| time (UTC) | temp F | wind direction | speed MPH | gust MPH | rain 1hr in | rain 24hr in | rain mn in | humidity % | barometer mb |
| 20260902073627 | 60 | 74 | 0.0 | 0.0 | 0.00 | 0.00 | 0.00 | 55 | 1015.1 |
| 20260902073605 | 61 | 74 | 0.0 | 0.0 | 0.00 | 0.00 | 0.00 | 54 | 1015.1 |
| 20260902073527 | 60 | 74 | 0.0 | 0.0 | 0.00 | 0.00 | 0.00 | 54 | 1015.1 |
| 20260902073502 | 60 | 74 | 0.0 | 0.0 | 0.00 | 0.00 | 0.00 | 54 | 1015.1 |
| 20260902073427 | 60 | 74 | 0.0 | 0.0 | 0.00 | 0.00 | 0.00 | 54 | 1015.1 |
| 20260902073409 | 60 | 74 | 0.0 | 0.0 | 0.00 | 0.00 | 0.00 | 54 | 1015.1 |
| 20260902073249 | 61 | 74 | 0.0 | 0.0 | 0.00 | 0.00 | 0.00 | 54 | 1015.1 |
| 20260902073238 | 61 | 74 | 0.0 | 0.0 | 0.00 | 0.00 | 0.00 | 55 | 1015.1 |
| 20260902073236 | 61 | 89 | 0.0 | 2.0 | 0.00 | 0.00 | 0.00 | 54 | 1015.9 |
| 20260902073027 | 61 | 74 | 0.0 | 0.0 | 0.00 | 0.00 | 0.00 | 54 | 1015.1 |
| 20260902072958 | 61 | 74 | 0.0 | 0.0 | 0.00 | 0.00 | 0.00 | 54 | 1015.1 |
| 20260902072928 | 61 | 74 | 0.0 | 0.0 | 0.00 | 0.00 | 0.00 | 54 | 1015.1 |
| 20260902072859 | 61 | 74 | 0.0 | 1.0 | 0.00 | 0.00 | 0.00 | 54 | 1015.1 |
| 20260902072826 | 61 | 71 | 0.0 | 0.0 | 0.00 | 0.00 | 0.00 | 54 | 1015.0 |
| 20260902072735 | 61 | 71 | 0.0 | 0.0 | 0.00 | 0.00 | 0.00 | 54 | 1015.0 |
| 20260902072732 | 61 | 52 | 1.0 | 2.0 | 0.00 | 0.00 | 0.00 | 54 | 1015.9 |
| 20260902072727 | 61 | 71 | 0.0 | 0.0 | 0.00 | 0.00 | 0.00 | 54 | 1015.0 |
| 20260902072658 | 61 | 71 | 0.0 | 0.0 | 0.00 | 0.00 | 0.00 | 54 | 1015.0 |
| 20260902072626 | 61 | 71 | 0.0 | 0.0 | 0.00 | 0.00 | 0.00 | 54 | 1015.0 |
| 20260902072527 | 61 | 71 | 0.0 | 0.0 | 0.00 | 0.00 | 0.00 | 54 | 1015.0 |
| 20260902072458 | 61 | 71 | 0.0 | 0.0 | 0.00 | 0.00 | 0.00 | 54 | 1015.0 |
| 20260902072428 | 61 | 71 | 0.0 | 0.0 | 0.00 | 0.00 | 0.00 | 54 | 1015.0 |
| 20260902072415 | 61 | 71 | 0.0 | 2.0 | 0.00 | 0.00 | 0.00 | 54 | 1015.0 |
| 20260902072408 | 61 | 71 | 0.0 | 0.0 | 0.00 | 0.00 | 0.00 | 55 | 1015.0 |
| 20260902072228 | 61 | 75 | 1.0 | 3.0 | 0.00 | 0.00 | 0.00 | 54 | 1016.0 |
| 20260902072156 | 61 | 71 | 0.0 | 0.0 | 0.00 | 0.00 | 0.00 | 54 | 1015.0 |
| 20260902072126 | 61 | 71 | 0.0 | 0.0 | 0.00 | 0.00 | 0.00 | 54 | 1015.0 |
| 20260902072029 | 61 | 71 | 0.0 | 0.0 | 0.00 | 0.00 | 0.00 | 54 | 1015.0 |
| 20260902072009 | 61 | 71 | 0.0 | 0.0 | 0.00 | 0.00 | 0.00 | 54 | 1015.0 |
| 20260902071833 | 61 | 18 | 2.0 | 0.0 | 0.00 | 0.00 | 0.00 | 54 | 1014.9 |
| 20260902071827 | 61 | 18 | 2.0 | 0.0 | 0.00 | 0.00 | 0.00 | 54 | 1014.9 |
| 20260902071757 | 61 | 18 | 2.0 | 0.0 | 0.00 | 0.00 | 0.00 | 54 | 1014.9 |
| 20260902071726 | 61 | 18 | 2.0 | 0.0 | 0.00 | 0.00 | 0.00 | 54 | 1014.9 |
| 20260902071724 | 61 | 56 | 1.0 | 2.0 | 0.00 | 0.00 | 0.00 | 54 | 1015.9 |
| 20260902071656 | 61 | 18 | 2.0 | 0.0 | 0.00 | 0.00 | 0.00 | 54 | 1014.9 |
| 20260902071626 | 61 | 18 | 2.0 | 0.0 | 0.00 | 0.00 | 0.00 | 54 | 1014.9 |
| 20260902071604 | 61 | 18 | 2.0 | 0.0 | 0.00 | 0.00 | 0.00 | 54 | 1014.9 |
| 20260902071557 | 61 | 18 | 2.0 | 0.0 | 0.00 | 0.00 | 0.00 | 54 | 1014.9 |
| 20260902071526 | 61 | 18 | 2.0 | 0.0 | 0.00 | 0.00 | 0.00 | 54 | 1014.9 |
| 20260902071508 | 61 | 18 | 2.0 | 0.0 | 0.00 | 0.00 | 0.00 | 54 | 1014.9 |
| 20260902071326 | 61 | 18 | 2.0 | 0.0 | 0.00 | 0.00 | 0.00 | 54 | 1014.9 |
| 20260902071306 | 61 | 48 | 1.0 | 0.0 | 0.00 | 0.00 | 0.00 | 54 | 1014.6 |
| 20260902071255 | 61 | 18 | 2.0 | 0.0 | 0.00 | 0.00 | 0.00 | 54 | 1014.9 |
| 20260902071219 | 61 | 62 | 2.0 | 4.0 | 0.00 | 0.00 | 0.00 | 54 | 1015.7 |
| 20260902071059 | 61 | 18 | 2.0 | 0.0 | 0.00 | 0.00 | 0.00 | 54 | 1014.9 |
| 20260902071027 | 61 | 18 | 2.0 | 0.0 | 0.00 | 0.00 | 0.00 | 54 | 1014.9 |
| 20260902070934 | 61 | 48 | 1.0 | 0.0 | 0.00 | 0.00 | 0.00 | 53 | 1014.6 |
| 20260902070930 | 61 | 18 | 2.0 | 0.0 | 0.00 | 0.00 | 0.00 | 54 | 1014.9 |
| 20260902070920 | 61 | 18 | 2.0 | 2.0 | 0.00 | 0.00 | 0.00 | 54 | 1014.9 |
| 20260902070906 | 61 | 48 | 1.0 | 0.0 | 0.00 | 0.00 | 0.00 | 54 | 1014.6 |
| 20260902070727 | 61 | 48 | 1.0 | 0.0 | 0.00 | 0.00 | 0.00 | 54 | 1014.6 |
| 20260902070715 | 61 | 45 | 2.0 | 4.0 | 0.00 | 0.00 | 0.00 | 54 | 1016.0 |
| 20260902070657 | 61 | 48 | 1.0 | 0.0 | 0.00 | 0.00 | 0.00 | 54 | 1014.6 |
| 20260902070633 | 61 | 48 | 1.0 | 0.0 | 0.00 | 0.00 | 0.00 | 53 | 1014.6 |
| 20260902070626 | 61 | 48 | 1.0 | 0.0 | 0.00 | 0.00 | 0.00 | 53 | 1014.6 |
| 20260902070557 | 61 | 48 | 1.0 | 0.0 | 0.00 | 0.00 | 0.00 | 53 | 1014.6 |
| 20260902070526 | 61 | 48 | 1.0 | 0.0 | 0.00 | 0.00 | 0.00 | 54 | 1014.6 |
| 20260902070453 | 61 | 48 | 1.0 | 0.0 | 0.00 | 0.00 | 0.00 | 53 | 1014.6 |
| 20260902070319 | 61 | 48 | 1.0 | 0.0 | 0.00 | 0.00 | 0.00 | 53 | 1014.6 |
| 20260902070309 | 61 | 48 | 1.0 | 0.0 | 0.00 | 0.00 | 0.00 | 54 | 1014.6 |
| 20260902070214 | 61 | 28 | 2.0 | 2.0 | 0.00 | 0.00 | 0.00 | 53 | 1015.8 |
| 20260902070132 | 61 | 16 | 4.0 | 0.0 | 0.00 | 0.00 | 0.00 | 54 | 1014.8 |
| 20260902070127 | 61 | 48 | 1.0 | 0.0 | 0.00 | 0.00 | 0.00 | 54 | 1014.6 |
| 20260902070108 | 61 | 48 | 1.0 | 0.0 | 0.00 | 0.00 | 0.00 | 53 | 1014.6 |
| 20260902070028 | 61 | 48 | 1.0 | 0.0 | 0.00 | 0.00 | 0.00 | 53 | 1014.6 |
| 20260902070010 | 61 | 16 | 4.0 | 0.0 | 0.00 | 0.00 | 0.00 | 53 | 1014.8 |
| 20260902065934 | 61 | 48 | 1.0 | 0.0 | 0.00 | 0.00 | 0.00 | 53 | 1014.6 |
| 20260902065858 | 61 | 48 | 1.0 | 2.0 | 0.00 | 0.00 | 0.00 | 53 | 1014.6 |
| 20260902065838 | 62 | 16 | 4.0 | 0.0 | 0.00 | 0.00 | 0.00 | 53 | 1014.8 |
| 20260902065828 | 61 | 16 | 4.0 | 0.0 | 0.00 | 0.00 | 0.00 | 54 | 1014.8 |
| 20260902065818 | 62 | 16 | 4.0 | 0.0 | 0.00 | 0.00 | 0.00 | 53 | 1014.8 |
| 20260902065814 | 62 | 16 | 4.0 | 0.0 | 0.00 | 0.00 | 0.00 | 53 | 1014.8 |
| 20260902065809 | 61 | 16 | 4.0 | 0.0 | 0.00 | 0.00 | 0.00 | 55 | 1014.8 |
| 20260902065759 | 61 | 16 | 4.0 | 0.0 | 0.00 | 0.00 | 0.00 | 53 | 1014.8 |
| 20260902065748 | 61 | 16 | 4.0 | 0.0 | 0.00 | 0.00 | 0.00 | 53 | 1014.8 |
| 20260902065713 | 61 | 43 | 0.0 | 2.0 | 0.00 | 0.00 | 0.00 | 53 | 1015.7 |
| 20260902065506 | 61 | 16 | 4.0 | 0.0 | 0.00 | 0.00 | 0.00 | 53 | 1014.8 |
| 20260902065456 | 62 | 16 | 4.0 | 0.0 | 0.00 | 0.00 | 0.00 | 53 | 1014.8 |
| 20260902065209 | 62 | 3 | 2.0 | 4.0 | 0.00 | 0.00 | 0.00 | 53 | 1015.7 |
| 20260902065207 | 62 | 16 | 4.0 | 0.0 | 0.00 | 0.00 | 0.00 | 53 | 1014.8 |
| 20260902065028 | 62 | 16 | 4.0 | 0.0 | 0.00 | 0.00 | 0.00 | 54 | 1014.8 |
| 20260902064927 | 62 | 16 | 4.0 | 0.0 | 0.00 | 0.00 | 0.00 | 54 | 1014.8 |
| 20260902064858 | 62 | 16 | 4.0 | 4.0 | 0.00 | 0.00 | 0.00 | 54 | 1014.8 |
| 20260902064834 | 62 | 40 | 2.0 | 0.0 | 0.00 | 0.00 | 0.00 | 53 | 1014.6 |
| 20260902064827 | 62 | 40 | 2.0 | 0.0 | 0.00 | 0.00 | 0.00 | 54 | 1014.6 |
| 20260902064726 | 62 | 40 | 2.0 | 0.0 | 0.00 | 0.00 | 0.00 | 54 | 1014.6 |
| 20260902064712 | 62 | 40 | 2.0 | 0.0 | 0.00 | 0.00 | 0.00 | 53 | 1014.6 |
| 20260902064704 | 62 | 22 | 2.0 | 5.0 | 0.00 | 0.00 | 0.00 | 54 | 1015.7 |
| 20260902064627 | 62 | 40 | 2.0 | 0.0 | 0.00 | 0.00 | 0.00 | 54 | 1014.6 |
| 20260902064529 | 62 | 40 | 2.0 | 0.0 | 0.00 | 0.00 | 0.00 | 54 | 1014.6 |
| 20260902064513 | 62 | 40 | 2.0 | 0.0 | 0.00 | 0.00 | 0.00 | 53 | 1014.6 |
| 20260902064501 | 62 | 40 | 2.0 | 0.0 | 0.00 | 0.00 | 0.00 | 54 | 1014.6 |
| 20260902064453 | 62 | 40 | 2.0 | 0.0 | 0.00 | 0.00 | 0.00 | 54 | 1014.6 |
| 20260902064200 | 62 | 57 | 0.0 | 2.0 | 0.00 | 0.00 | 0.00 | 53 | 1015.6 |
| 20260902064127 | 62 | 40 | 2.0 | 0.0 | 0.00 | 0.00 | 0.00 | 53 | 1014.6 |
| 20260902064114 | 62 | 36 | 3.0 | 0.0 | 0.00 | 0.00 | 0.00 | 53 | 1014.6 |
| 20260902064106 | 62 | 40 | 2.0 | 0.0 | 0.00 | 0.00 | 0.00 | 54 | 1014.6 |
| 20260902063927 | 62 | 40 | 2.0 | 0.0 | 0.00 | 0.00 | 0.00 | 53 | 1014.6 |
| 20260902063859 | 62 | 40 | 2.0 | 2.0 | 0.00 | 0.00 | 0.00 | 53 | 1014.6 |
| 20260902063826 | 62 | 36 | 3.0 | 0.0 | 0.00 | 0.00 | 0.00 | 53 | 1014.6 |
| 20260902063746 | 62 | 36 | 3.0 | 0.0 | 0.00 | 0.00 | 0.00 | 53 | 1014.6 |
| 20260902063742 | 62 | 36 | 3.0 | 0.0 | 0.00 | 0.00 | 0.00 | 53 | 1014.6 |
| 20260902063656 | 62 | 32 | 2.0 | 3.0 | 0.00 | 0.00 | 0.00 | 53 | 1015.5 |
| 20260902063557 | 62 | 36 | 3.0 | 0.0 | 0.00 | 0.00 | 0.00 | 53 | 1014.6 |
| 20260902063535 | 62 | 34 | 2.0 | 0.0 | 0.00 | 0.00 | 0.00 | 52 | 1014.8 |
| 20260902063526 | 62 | 36 | 3.0 | 0.0 | 0.00 | 0.00 | 0.00 | 53 | 1014.6 |
| 20260902063432 | 62 | 36 | 3.0 | 0.0 | 0.00 | 0.00 | 0.00 | 52 | 1014.6 |
| 20260902063428 | 62 | 36 | 3.0 | 0.0 | 0.00 | 0.00 | 0.00 | 53 | 1014.6 |
| 20260902063405 | 62 | 36 | 3.0 | 0.0 | 0.00 | 0.00 | 0.00 | 53 | 1014.6 |
| 20260902063344 | 62 | 36 | 3.0 | 0.0 | 0.00 | 0.00 | 0.00 | 54 | 1014.6 |
| 20260902063334 | 62 | 36 | 3.0 | 0.0 | 0.00 | 0.00 | 0.00 | 53 | 1014.6 |
| 20260902063323 | 62 | 36 | 3.0 | 0.0 | 0.00 | 0.00 | 0.00 | 52 | 1014.6 |
| 20260902063150 | 62 | 47 | 0.0 | 3.0 | 0.00 | 0.00 | 0.00 | 52 | 1015.6 |
| 20260902063046 | 62 | 36 | 3.0 | 0.0 | 0.00 | 0.00 | 0.00 | 52 | 1014.6 |
| 20260902062900 | 62 | 36 | 3.0 | 3.0 | 0.00 | 0.00 | 0.00 | 53 | 1014.6 |
| 20260902062826 | 62 | 34 | 2.0 | 0.0 | 0.00 | 0.00 | 0.00 | 53 | 1014.8 |
| 20260902062727 | 62 | 34 | 2.0 | 0.0 | 0.00 | 0.00 | 0.00 | 53 | 1014.8 |
| 20260902062706 | 62 | 34 | 2.0 | 0.0 | 0.00 | 0.00 | 0.00 | 53 | 1014.8 |
| 20260902062649 | 62 | 37 | 2.0 | 3.0 | 0.00 | 0.00 | 0.00 | 53 | 1015.6 |
| 20260902062526 | 62 | 34 | 2.0 | 0.0 | 0.00 | 0.00 | 0.00 | 53 | 1014.8 |
| 20260902062510 | 62 | 34 | 2.0 | 0.0 | 0.00 | 0.00 | 0.00 | 53 | 1014.8 |
| 20260902062457 | 62 | 34 | 2.0 | 0.0 | 0.00 | 0.00 | 0.00 | 52 | 1014.8 |
| 20260902062427 | 62 | 34 | 2.0 | 0.0 | 0.00 | 0.00 | 0.00 | 52 | 1014.8 |
| 20260902062409 | 62 | 34 | 2.0 | 0.0 | 0.00 | 0.00 | 0.00 | 53 | 1014.8 |
| 20260902062327 | 62 | 34 | 2.0 | 0.0 | 0.00 | 0.00 | 0.00 | 53 | 1014.8 |
| 20260902062257 | 62 | 34 | 2.0 | 0.0 | 0.00 | 0.00 | 0.00 | 53 | 1014.8 |
| 20260902062226 | 62 | 34 | 2.0 | 0.0 | 0.00 | 0.00 | 0.00 | 53 | 1014.8 |
| 20260902062211 | 63 | 20 | 1.0 | 0.0 | 0.00 | 0.00 | 0.00 | 54 | 1014.5 |
| 20260902062148 | 63 | 20 | 1.0 | 0.0 | 0.00 | 0.00 | 0.00 | 55 | 1014.5 |
| 20260902062144 | 62 | 34 | 2.0 | 0.0 | 0.00 | 0.00 | 0.00 | 53 | 1014.8 |
| 20260902062004 | 63 | 20 | 1.0 | 0.0 | 0.00 | 0.00 | 0.00 | 53 | 1014.5 |
| 20260902061939 | 63 | 20 | 1.0 | 0.0 | 0.00 | 0.00 | 0.00 | 53 | 1014.5 |
| 20260902061934 | 62 | 34 | 2.0 | 0.0 | 0.00 | 0.00 | 0.00 | 53 | 1014.8 |
| 20260902061925 | 62 | 34 | 2.0 | 2.0 | 0.00 | 0.00 | 0.00 | 54 | 1014.8 |
| 20260902061911 | 62 | 20 | 1.0 | 0.0 | 0.00 | 0.00 | 0.00 | 54 | 1014.5 |
| 20260902061901 | 62 | 20 | 1.0 | 0.0 | 0.00 | 0.00 | 0.00 | 54 | 1014.5 |
| 20260902061850 | 62 | 20 | 1.0 | 0.0 | 0.00 | 0.00 | 0.00 | 53 | 1014.5 |
| 20260902061841 | 62 | 20 | 1.0 | 0.0 | 0.00 | 0.00 | 0.00 | 53 | 1014.5 |
| 20260902061643 | 63 | 69 | 0.0 | 2.0 | 0.00 | 0.00 | 0.00 | 54 | 1015.4 |
| 20260902061607 | 63 | 20 | 1.0 | 0.0 | 0.00 | 0.00 | 0.00 | 54 | 1014.5 |
| 20260902061428 | 63 | 20 | 1.0 | 0.0 | 0.00 | 0.00 | 0.00 | 53 | 1014.5 |
| 20260902061418 | 63 | 20 | 1.0 | 2.0 | 0.00 | 0.00 | 0.00 | 54 | 1014.5 |
| 20260902061355 | 63 | 20 | 1.0 | 0.0 | 0.00 | 0.00 | 0.00 | 53 | 1014.5 |
| 20260902061208 | 63 | 33 | 1.0 | 0.0 | 0.00 | 0.00 | 0.00 | 54 | 1014.6 |
| 20260902061139 | 63 | 55 | 0.0 | 3.0 | 0.00 | 0.00 | 0.00 | 53 | 1015.4 |
| 20260902061136 | 63 | 33 | 1.0 | 0.0 | 0.00 | 0.00 | 0.00 | 54 | 1014.6 |
| 20260902061129 | 63 | 20 | 1.0 | 0.0 | 0.00 | 0.00 | 0.00 | 53 | 1014.5 |
| 20260902061119 | 63 | 33 | 1.0 | 0.0 | 0.00 | 0.00 | 0.00 | 53 | 1014.6 |
| 20260902061113 | 63 | 33 | 1.0 | 0.0 | 0.00 | 0.00 | 0.00 | 53 | 1014.6 |
| 20260902061056 | 63 | 20 | 1.0 | 0.0 | 0.00 | 0.00 | 0.00 | 53 | 1014.5 |
| 20260902061044 | 63 | 20 | 1.0 | 0.0 | 0.00 | 0.00 | 0.00 | 53 | 1014.5 |
| 20260902060922 | 63 | 33 | 1.0 | 0.0 | 0.00 | 0.00 | 0.00 | 54 | 1014.6 |
| 20260902060913 | 63 | 33 | 1.0 | 0.0 | 0.00 | 0.00 | 0.00 | 53 | 1014.6 |
| 20260902060857 | 63 | 33 | 1.0 | 0.0 | 0.00 | 0.00 | 0.00 | 54 | 1014.6 |
| 20260902060845 | 63 | 33 | 1.0 | 0.0 | 0.00 | 0.00 | 0.00 | 54 | 1014.6 |
| 20260902060636 | 63 | 55 | 0.0 | 2.0 | 0.00 | 0.00 | 0.00 | 54 | 1015.4 |
| 20260902060326 | 63 | 33 | 1.0 | 0.0 | 0.00 | 0.00 | 0.00 | 53 | 1014.6 |
| 20260902060227 | 63 | 33 | 1.0 | 0.0 | 0.00 | 0.00 | 0.00 | 53 | 1014.6 |
| 20260902060132 | 63 | 39 | 2.0 | 3.0 | 0.00 | 0.00 | 0.00 | 52 | 1015.5 |
| 20260902060126 | 63 | 33 | 1.0 | 0.0 | 0.00 | 0.00 | 0.00 | 53 | 1014.6 |
| 20260902060108 | 63 | 33 | 1.0 | 0.0 | 0.00 | 0.00 | 0.00 | 52 | 1014.6 |
| 20260902060034 | 63 | 89 | 0.0 | 0.0 | 0.00 | 0.00 | 0.00 | 53 | 1014.4 |
| 20260902060028 | 63 | 33 | 1.0 | 0.0 | 0.00 | 0.00 | 0.00 | 52 | 1014.6 |
| 20260902055957 | 63 | 33 | 1.0 | 0.0 | 0.00 | 0.00 | 0.00 | 53 | 1014.6 |
| 20260902055927 | 63 | 33 | 1.0 | 0.0 | 0.00 | 0.00 | 0.00 | 53 | 1014.6 |
| 20260902055858 | 63 | 33 | 1.0 | 2.0 | 0.00 | 0.00 | 0.00 | 53 | 1014.6 |
| 20260902055826 | 63 | 89 | 0.0 | 0.0 | 0.00 | 0.00 | 0.00 | 52 | 1014.4 |
| 20260902055729 | 63 | 89 | 0.0 | 0.0 | 0.00 | 0.00 | 0.00 | 53 | 1014.4 |
| 20260902055719 | 63 | 89 | 0.0 | 0.0 | 0.00 | 0.00 | 0.00 | 52 | 1014.4 |
| 20260902055707 | 63 | 89 | 0.0 | 0.0 | 0.00 | 0.00 | 0.00 | 53 | 1014.4 |
| 20260902055627 | 63 | 58 | 0.0 | 2.0 | 0.00 | 0.00 | 0.00 | 53 | 1015.7 |
| 20260902055525 | 63 | 89 | 0.0 | 0.0 | 0.00 | 0.00 | 0.00 | 53 | 1014.4 |
| 20260902055426 | 63 | 89 | 0.0 | 0.0 | 0.00 | 0.00 | 0.00 | 53 | 1014.4 |
| 20260902055412 | 63 | 89 | 0.0 | 0.0 | 0.00 | 0.00 | 0.00 | 53 | 1014.4 |
| 20260902055329 | 63 | 89 | 0.0 | 0.0 | 0.00 | 0.00 | 0.00 | 53 | 1014.4 |
| 20260902055258 | 63 | 89 | 0.0 | 0.0 | 0.00 | 0.00 | 0.00 | 52 | 1014.4 |
| 20260902055226 | 63 | 89 | 0.0 | 0.0 | 0.00 | 0.00 | 0.00 | 53 | 1014.4 |
| 20260902055128 | 63 | 89 | 0.0 | 0.0 | 0.00 | 0.00 | 0.00 | 53 | 1014.4 |
| 20260902055123 | 63 | 60 | 2.0 | 2.0 | 0.00 | 0.00 | 0.00 | 53 | 1015.4 |
| 20260902055106 | 63 | 44 | 0.0 | 0.0 | 0.00 | 0.00 | 0.00 | 55 | 1014.5 |
| 20260902055056 | 63 | 89 | 0.0 | 0.0 | 0.00 | 0.00 | 0.00 | 54 | 1014.4 |
| 20260902055046 | 63 | 44 | 0.0 | 0.0 | 0.00 | 0.00 | 0.00 | 52 | 1014.5 |
| 20260902055042 | 63 | 89 | 0.0 | 0.0 | 0.00 | 0.00 | 0.00 | 53 | 1014.4 |
| 20260902054858 | 63 | 89 | 0.0 | 0.0 | 0.00 | 0.00 | 0.00 | 53 | 1014.4 |
| 20260902054826 | 63 | 44 | 0.0 | 0.0 | 0.00 | 0.00 | 0.00 | 53 | 1014.5 |
| 20260902054738 | 63 | 44 | 0.0 | 0.0 | 0.00 | 0.00 | 0.00 | 53 | 1014.5 |
| 20260902054725 | 63 | 44 | 0.0 | 0.0 | 0.00 | 0.00 | 0.00 | 53 | 1014.5 |
| 20260902054717 | 63 | 44 | 0.0 | 0.0 | 0.00 | 0.00 | 0.00 | 53 | 1014.5 |
| 20260902054617 | 63 | 81 | 1.0 | 2.0 | 0.00 | 0.00 | 0.00 | 54 | 1015.5 |
| 20260902054426 | 63 | 44 | 0.0 | 0.0 | 0.00 | 0.00 | 0.00 | 53 | 1014.5 |
| 20260902054402 | 63 | 44 | 0.0 | 0.0 | 0.00 | 0.00 | 0.00 | 53 | 1014.5 |
| 20260902054327 | 63 | 44 | 0.0 | 0.0 | 0.00 | 0.00 | 0.00 | 52 | 1014.5 |
| 20260902054314 | 63 | 31 | 1.0 | 0.0 | 0.00 | 0.00 | 0.00 | 53 | 1014.6 |
| 20260902054309 | 63 | 44 | 0.0 | 0.0 | 0.00 | 0.00 | 0.00 | 52 | 1014.5 |
| 20260902054228 | 63 | 44 | 0.0 | 0.0 | 0.00 | 0.00 | 0.00 | 52 | 1014.5 |
| 20260902054129 | 63 | 44 | 0.0 | 0.0 | 0.00 | 0.00 | 0.00 | 52 | 1014.5 |
| 20260902054114 | 63 | 3 | 2.0 | 2.0 | 0.00 | 0.00 | 0.00 | 52 | 1015.3 |
| 20260902054039 | 64 | 31 | 1.0 | 0.0 | 0.00 | 0.00 | 0.00 | 53 | 1014.6 |
| 20260902054030 | 63 | 44 | 0.0 | 0.0 | 0.00 | 0.00 | 0.00 | 52 | 1014.5 |
| 20260902054004 | 63 | 44 | 0.0 | 0.0 | 0.00 | 0.00 | 0.00 | 52 | 1014.5 |
| 20260902053954 | 63 | 44 | 0.0 | 0.0 | 0.00 | 0.00 | 0.00 | 53 | 1014.5 |
| 20260902053944 | 63 | 44 | 0.0 | 1.0 | 0.00 | 0.00 | 0.00 | 52 | 1014.5 |
| 20260902053733 | 64 | 31 | 1.0 | 0.0 | 0.00 | 0.00 | 0.00 | 52 | 1014.6 |
| 20260902053729 | 64 | 31 | 1.0 | 0.0 | 0.00 | 0.00 | 0.00 | 53 | 1014.6 |
| 20260902053719 | 64 | 31 | 1.0 | 0.0 | 0.00 | 0.00 | 0.00 | 53 | 1014.6 |
| 20260902053708 | 64 | 31 | 1.0 | 0.0 | 0.00 | 0.00 | 0.00 | 52 | 1014.6 |
| 20260902053608 | 64 | 50 | 0.0 | 3.0 | 0.00 | 0.00 | 0.00 | 52 | 1015.5 |
| 20260902053527 | 64 | 31 | 1.0 | 0.0 | 0.00 | 0.00 | 0.00 | 52 | 1014.6 |
| 20260902053502 | 64 | 31 | 1.0 | 0.0 | 0.00 | 0.00 | 0.00 | 52 | 1014.6 |
| 20260902053457 | 64 | 31 | 1.0 | 0.0 | 0.00 | 0.00 | 0.00 | 52 | 1014.6 |
| 20260902053426 | 64 | 31 | 1.0 | 0.0 | 0.00 | 0.00 | 0.00 | 53 | 1014.6 |
| 20260902053357 | 64 | 31 | 1.0 | 0.0 | 0.00 | 0.00 | 0.00 | 53 | 1014.6 |
| 20260902053333 | 64 | 31 | 1.0 | 0.0 | 0.00 | 0.00 | 0.00 | 52 | 1014.6 |
| 20260902053312 | 64 | 31 | 1.0 | 0.0 | 0.00 | 0.00 | 0.00 | 52 | 1014.6 |
| 20260902053148 | 64 | 38 | 1.0 | 0.0 | 0.00 | 0.00 | 0.00 | 52 | 1014.5 |
| 20260902053144 | 64 | 31 | 1.0 | 0.0 | 0.00 | 0.00 | 0.00 | 52 | 1014.6 |
| 20260902053103 | 64 | 44 | 0.0 | 2.0 | 0.00 | 0.00 | 0.00 | 52 | 1015.4 |
| 20260902052926 | 64 | 31 | 1.0 | 0.0 | 0.00 | 0.00 | 0.00 | 52 | 1014.6 |
| 20260902052858 | 64 | 31 | 1.0 | 1.0 | 0.00 | 0.00 | 0.00 | 52 | 1014.6 |
| 20260902052832 | 64 | 38 | 1.0 | 0.0 | 0.00 | 0.00 | 0.00 | 52 | 1014.5 |
| 20260902052726 | 64 | 38 | 1.0 | 0.0 | 0.00 | 0.00 | 0.00 | 52 | 1014.5 |
| 20260902052706 | 64 | 38 | 1.0 | 0.0 | 0.00 | 0.00 | 0.00 | 52 | 1014.5 |
| 20260902052603 | 64 | 58 | 1.0 | 3.0 | 0.00 | 0.00 | 0.00 | 52 | 1015.3 |
| 20260902052526 | 64 | 38 | 1.0 | 0.0 | 0.00 | 0.00 | 0.00 | 52 | 1014.5 |
| 20260902052457 | 64 | 38 | 1.0 | 0.0 | 0.00 | 0.00 | 0.00 | 52 | 1014.5 |
| 20260902052434 | 64 | 65 | 0.0 | 0.0 | 0.00 | 0.00 | 0.00 | 53 | 1014.5 |
| 20260902052426 | 64 | 38 | 1.0 | 0.0 | 0.00 | 0.00 | 0.00 | 53 | 1014.5 |
| 20260902052335 | 64 | 38 | 1.0 | 0.0 | 0.00 | 0.00 | 0.00 | 52 | 1014.5 |
| 20260902052258 | 64 | 38 | 1.0 | 0.0 | 0.00 | 0.00 | 0.00 | 51 | 1014.5 |
| 20260902052227 | 64 | 38 | 1.0 | 0.0 | 0.00 | 0.00 | 0.00 | 51 | 1014.5 |
| 20260902052201 | 64 | 65 | 0.0 | 0.0 | 0.00 | 0.00 | 0.00 | 52 | 1014.5 |
| 20260902052157 | 64 | 38 | 1.0 | 0.0 | 0.00 | 0.00 | 0.00 | 51 | 1014.5 |
| 20260902052130 | 64 | 38 | 1.0 | 0.0 | 0.00 | 0.00 | 0.00 | 52 | 1014.5 |
| 20260902052119 | 64 | 65 | 0.0 | 0.0 | 0.00 | 0.00 | 0.00 | 53 | 1014.5 |
| 20260902052111 | 64 | 38 | 1.0 | 0.0 | 0.00 | 0.00 | 0.00 | 52 | 1014.5 |
| 20260902052100 | 64 | 38 | 1.0 | 0.0 | 0.00 | 0.00 | 0.00 | 51 | 1014.5 |
| 20260902052059 | 64 | 54 | 0.0 | 3.0 | 0.00 | 0.00 | 0.00 | 52 | 1015.3 |
| 20260902051943 | 65 | 65 | 0.0 | 0.0 | 0.00 | 0.00 | 0.00 | 53 | 1014.5 |
| 20260902051937 | 65 | 65 | 0.0 | 0.0 | 0.00 | 0.00 | 0.00 | 53 | 1014.5 |
| 20260902051927 | 64 | 38 | 1.0 | 0.0 | 0.00 | 0.00 | 0.00 | 52 | 1014.5 |
| 20260902051914 | 65 | 65 | 0.0 | 0.0 | 0.00 | 0.00 | 0.00 | 53 | 1014.5 |
| 20260902051910 | 64 | 38 | 1.0 | 2.0 | 0.00 | 0.00 | 0.00 | 53 | 1014.5 |
| 20260902051858 | 64 | 65 | 0.0 | 0.0 | 0.00 | 0.00 | 0.00 | 53 | 1014.5 |
| 20260902051848 | 64 | 65 | 0.0 | 0.0 | 0.00 | 0.00 | 0.00 | 53 | 1014.5 |
| 20260902051839 | 64 | 65 | 0.0 | 0.0 | 0.00 | 0.00 | 0.00 | 54 | 1014.5 |
| 20260902051825 | 64 | 65 | 0.0 | 0.0 | 0.00 | 0.00 | 0.00 | 53 | 1014.5 |
| 20260902051815 | 64 | 65 | 0.0 | 0.0 | 0.00 | 0.00 | 0.00 | 52 | 1014.5 |
| 20260902051650 | 64 | 65 | 0.0 | 0.0 | 0.00 | 0.00 | 0.00 | 52 | 1014.5 |
| 20260902051640 | 64 | 65 | 0.0 | 0.0 | 0.00 | 0.00 | 0.00 | 53 | 1014.5 |
| 20260902051558 | 64 | 57 | 0.0 | 2.0 | 0.00 | 0.00 | 0.00 | 52 | 1015.6 |
| 20260902051126 | 65 | 65 | 0.0 | 0.0 | 0.00 | 0.00 | 0.00 | 54 | 1014.5 |
| 20260902051058 | 65 | 38 | 0.0 | 2.0 | 0.00 | 0.00 | 0.00 | 53 | 1015.5 |
| 20260902051042 | 65 | 65 | 0.0 | 0.0 | 0.00 | 0.00 | 0.00 | 53 | 1014.5 |
| 20260902051009 | 65 | 65 | 0.0 | 0.0 | 0.00 | 0.00 | 0.00 | 53 | 1014.5 |
| 20260902050827 | 65 | 51 | 0.0 | 0.0 | 0.00 | 0.00 | 0.00 | 53 | 1014.5 |
| 20260902050759 | 65 | 51 | 0.0 | 0.0 | 0.00 | 0.00 | 0.00 | 53 | 1014.5 |
| 20260902050727 | 65 | 51 | 0.0 | 0.0 | 0.00 | 0.00 | 0.00 | 53 | 1014.5 |
| 20260902050658 | 65 | 51 | 0.0 | 0.0 | 0.00 | 0.00 | 0.00 | 53 | 1014.5 |
| 20260902050626 | 65 | 51 | 0.0 | 0.0 | 0.00 | 0.00 | 0.00 | 54 | 1014.5 |
| 20260902050557 | 65 | 72 | 0.0 | 1.0 | 0.00 | 0.00 | 0.00 | 53 | 1015.4 |
| 20260902050527 | 65 | 51 | 0.0 | 0.0 | 0.00 | 0.00 | 0.00 | 53 | 1014.5 |
| 20260902050457 | 65 | 51 | 0.0 | 0.0 | 0.00 | 0.00 | 0.00 | 53 | 1014.5 |
| 20260902050427 | 65 | 51 | 0.0 | 0.0 | 0.00 | 0.00 | 0.00 | 53 | 1014.5 |
| 20260902050357 | 65 | 51 | 0.0 | 0.0 | 0.00 | 0.00 | 0.00 | 53 | 1014.5 |
| 20260902050327 | 65 | 51 | 0.0 | 0.0 | 0.00 | 0.00 | 0.00 | 52 | 1014.5 |
| 20260902050302 | 65 | 51 | 0.0 | 0.0 | 0.00 | 0.00 | 0.00 | 52 | 1014.5 |
| 20260902050227 | 65 | 51 | 0.0 | 0.0 | 0.00 | 0.00 | 0.00 | 53 | 1014.5 |
| 20260902050209 | 65 | 51 | 0.0 | 0.0 | 0.00 | 0.00 | 0.00 | 52 | 1014.5 |
| 20260902050137 | 65 | 31 | 2.0 | 0.0 | 0.00 | 0.00 | 0.00 | 53 | 1014.3 |
| 20260902050126 | 65 | 51 | 0.0 | 0.0 | 0.00 | 0.00 | 0.00 | 52 | 1014.5 |
| 20260902050109 | 65 | 51 | 0.0 | 0.0 | 0.00 | 0.00 | 0.00 | 52 | 1014.5 |
| 20260902050053 | 66 | 31 | 2.0 | 2.0 | 0.00 | 0.00 | 0.00 | 54 | 1015.4 |
| 20260902050030 | 65 | 51 | 0.0 | 0.0 | 0.00 | 0.00 | 0.00 | 53 | 1014.5 |
| 20260902045956 | 65 | 51 | 0.0 | 0.0 | 0.00 | 0.00 | 0.00 | 54 | 1014.5 |
| 20260902045936 | 65 | 31 | 2.0 | 0.0 | 0.00 | 0.00 | 0.00 | 52 | 1014.3 |
| 20260902045929 | 65 | 51 | 0.0 | 0.0 | 0.00 | 0.00 | 0.00 | 53 | 1014.5 |
| 20260902045858 | 65 | 51 | 0.0 | 0.0 | 0.00 | 0.00 | 0.00 | 54 | 1014.5 |
| 20260902045829 | 65 | 31 | 2.0 | 0.0 | 0.00 | 0.00 | 0.00 | 53 | 1014.3 |
| 20260902045815 | 65 | 31 | 2.0 | 0.0 | 0.00 | 0.00 | 0.00 | 52 | 1014.3 |
| 20260902045808 | 65 | 31 | 2.0 | 0.0 | 0.00 | 0.00 | 0.00 | 53 | 1014.3 |
| 20260902045637 | 65 | 31 | 2.0 | 0.0 | 0.00 | 0.00 | 0.00 | 53 | 1014.3 |
| 20260902045628 | 65 | 31 | 2.0 | 0.0 | 0.00 | 0.00 | 0.00 | 53 | 1014.3 |
| 20260902045618 | 66 | 31 | 2.0 | 0.0 | 0.00 | 0.00 | 0.00 | 54 | 1014.3 |
| 20260902045607 | 65 | 31 | 2.0 | 0.0 | 0.00 | 0.00 | 0.00 | 53 | 1014.3 |
| 20260902045548 | 66 | 37 | 0.0 | 2.0 | 0.00 | 0.00 | 0.00 | 52 | 1015.3 |
| 20260902045444 | 66 | 37 | 0.0 | 0.0 | 0.00 | 0.00 | 0.00 | 55 | 1014.2 |
| 20260902045438 | 66 | 37 | 0.0 | 0.0 | 0.00 | 0.00 | 0.00 | 56 | 1014.2 |
| 20260902045426 | 65 | 31 | 2.0 | 0.0 | 0.00 | 0.00 | 0.00 | 52 | 1014.3 |
| 20260902045416 | 65 | 31 | 2.0 | 0.0 | 0.00 | 0.00 | 0.00 | 53 | 1014.3 |
| 20260902045406 | 65 | 31 | 2.0 | 0.0 | 0.00 | 0.00 | 0.00 | 52 | 1014.3 |
| 20260902045353 | 65 | 31 | 2.0 | 0.0 | 0.00 | 0.00 | 0.00 | 53 | 1014.3 |
| 20260902045118 | 66 | 37 | 0.0 | 0.0 | 0.00 | 0.00 | 0.00 | 63 | 1014.2 |
| 20260902045111 | 65 | 31 | 2.0 | 0.0 | 0.00 | 0.00 | 0.00 | 53 | 1014.3 |
| 20260902045045 | 66 | 0 | 1.0 | 2.0 | 0.00 | 0.00 | 0.00 | 54 | 1015.3 |
| 20260902044951 | 66 | 31 | 2.0 | 0.0 | 0.00 | 0.00 | 0.00 | 55 | 1014.3 |
| 20260902044940 | 66 | 31 | 2.0 | 2.0 | 0.00 | 0.00 | 0.00 | 54 | 1014.3 |
| 20260902044929 | 66 | 37 | 0.0 | 0.0 | 0.00 | 0.00 | 0.00 | 54 | 1014.2 |
| 20260902044627 | 66 | 37 | 0.0 | 0.0 | 0.00 | 0.00 | 0.00 | 56 | 1014.2 |
| 20260902044601 | 67 | 37 | 0.0 | 0.0 | 0.00 | 0.00 | 0.00 | 64 | 1014.2 |
| 20260902044557 | 66 | 37 | 0.0 | 0.0 | 0.00 | 0.00 | 0.00 | 57 | 1014.2 |
| 20260902044547 | 66 | 37 | 0.0 | 0.0 | 0.00 | 0.00 | 0.00 | 59 | 1014.2 |
| 20260902044544 | 66 | 30 | 2.0 | 2.0 | 0.00 | 0.00 | 0.00 | 58 | 1015.3 |
| 20260902044537 | 66 | 37 | 0.0 | 0.0 | 0.00 | 0.00 | 0.00 | 62 | 1014.2 |
| 20260902044356 | 66 | 37 | 0.0 | 0.0 | 0.00 | 0.00 | 0.00 | 64 | 1014.2 |
| 20260902044340 | 67 | 37 | 0.0 | 0.0 | 0.00 | 0.00 | 0.00 | 64 | 1014.2 |
| 20260902044327 | 67 | 37 | 0.0 | 0.0 | 0.00 | 0.00 | 0.00 | 65 | 1014.2 |
| 20260902044233 | 67 | 37 | 0.0 | 0.0 | 0.00 | 0.00 | 0.00 | 65 | 1014.2 |
| 20260902044156 | 67 | 37 | 0.0 | 0.0 | 0.00 | 0.00 | 0.00 | 65 | 1014.2 |
| 20260902044139 | 67 | 5 | 0.0 | 0.0 | 0.00 | 0.00 | 0.00 | 64 | 1014.2 |
| 20260902044132 | 67 | 37 | 0.0 | 0.0 | 0.00 | 0.00 | 0.00 | 64 | 1014.2 |
| 20260902044122 | 67 | 37 | 0.0 | 0.0 | 0.00 | 0.00 | 0.00 | 65 | 1014.2 |
| 20260902044040 | 67 | 55 | 0.0 | 1.0 | 0.00 | 0.00 | 0.00 | 65 | 1015.2 |
| 20260902043842 | 67 | 5 | 0.0 | 0.0 | 0.00 | 0.00 | 0.00 | 64 | 1014.2 |
| 20260902043820 | 67 | 5 | 0.0 | 0.0 | 0.00 | 0.00 | 0.00 | 64 | 1014.2 |
| 20260902043808 | 67 | 5 | 0.0 | 0.0 | 0.00 | 0.00 | 0.00 | 64 | 1014.2 |
| 20260902043629 | 67 | 5 | 0.0 | 0.0 | 0.00 | 0.00 | 0.00 | 64 | 1014.2 |
| 20260902043558 | 67 | 5 | 0.0 | 0.0 | 0.00 | 0.00 | 0.00 | 64 | 1014.2 |
| 20260902043535 | 67 | 50 | 0.0 | 2.0 | 0.00 | 0.00 | 0.00 | 64 | 1015.2 |
| 20260902043527 | 67 | 5 | 0.0 | 0.0 | 0.00 | 0.00 | 0.00 | 64 | 1014.2 |
| 20260902043443 | 67 | 5 | 0.0 | 0.0 | 0.00 | 0.00 | 0.00 | 64 | 1014.2 |
| 20260902043227 | 67 | 5 | 0.0 | 0.0 | 0.00 | 0.00 | 0.00 | 64 | 1014.2 |
| 20260902043156 | 67 | 5 | 0.0 | 0.0 | 0.00 | 0.00 | 0.00 | 64 | 1014.2 |
| 20260902043126 | 67 | 5 | 0.0 | 0.0 | 0.00 | 0.00 | 0.00 | 64 | 1014.2 |
| 20260902043057 | 67 | 5 | 0.0 | 0.0 | 0.00 | 0.00 | 0.00 | 64 | 1014.2 |
| 20260902043040 | 67 | 5 | 0.0 | 0.0 | 0.00 | 0.00 | 0.00 | 65 | 1014.2 |
| 20260902043030 | 67 | 18 | 0.0 | 0.0 | 0.00 | 0.00 | 0.00 | 65 | 1015.1 |
| 20260902042956 | 67 | 5 | 0.0 | 0.0 | 0.00 | 0.00 | 0.00 | 65 | 1014.2 |
| 20260902042926 | 67 | 5 | 0.0 | 0.0 | 0.00 | 0.00 | 0.00 | 65 | 1014.2 |
| 20260902042916 | 67 | 60 | 0.0 | 0.0 | 0.00 | 0.00 | 0.00 | 63 | 1014.0 |
| 20260902042859 | 67 | 5 | 0.0 | 0.0 | 0.00 | 0.00 | 0.00 | 65 | 1014.2 |
| 20260902042827 | 67 | 60 | 0.0 | 0.0 | 0.00 | 0.00 | 0.00 | 65 | 1014.0 |
| 20260902042758 | 67 | 60 | 0.0 | 0.0 | 0.00 | 0.00 | 0.00 | 64 | 1014.0 |
| 20260902042741 | 67 | 60 | 0.0 | 0.0 | 0.00 | 0.00 | 0.00 | 63 | 1014.0 |
| 20260902042727 | 67 | 60 | 0.0 | 0.0 | 0.00 | 0.00 | 0.00 | 64 | 1014.0 |
| 20260902042657 | 67 | 60 | 0.0 | 0.0 | 0.00 | 0.00 | 0.00 | 63 | 1014.0 |
| 20260902042627 | 67 | 60 | 0.0 | 0.0 | 0.00 | 0.00 | 0.00 | 63 | 1014.0 |
| 20260902042604 | 67 | 60 | 0.0 | 0.0 | 0.00 | 0.00 | 0.00 | 62 | 1014.0 |
| 20260902042558 | 67 | 60 | 0.0 | 0.0 | 0.00 | 0.00 | 0.00 | 63 | 1014.0 |
| 20260902042546 | 67 | 60 | 0.0 | 0.0 | 0.00 | 0.00 | 0.00 | 62 | 1014.0 |
| 20260902042537 | 67 | 60 | 0.0 | 0.0 | 0.00 | 0.00 | 0.00 | 62 | 1014.0 |
| 20260902042530 | 67 | 53 | 0.0 | 0.0 | 0.00 | 0.00 | 0.00 | 62 | 1015.2 |
| 20260902042408 | 67 | 60 | 0.0 | 0.0 | 0.00 | 0.00 | 0.00 | 63 | 1014.0 |
| 20260902042227 | 67 | 60 | 0.0 | 0.0 | 0.00 | 0.00 | 0.00 | 63 | 1014.0 |
| 20260902042206 | 67 | 60 | 0.0 | 0.0 | 0.00 | 0.00 | 0.00 | 64 | 1014.0 |
| 20260902042026 | 68 | 60 | 0.0 | 0.0 | 0.00 | 0.00 | 0.00 | 62 | 1014.9 |
| 20260902042011 | 68 | 44 | 0.0 | 0.0 | 0.00 | 0.00 | 0.00 | 62 | 1014.1 |
| 20260902041956 | 67 | 60 | 0.0 | 0.0 | 0.00 | 0.00 | 0.00 | 63 | 1014.0 |
| 20260902041925 | 67 | 60 | 0.0 | 0.0 | 0.00 | 0.00 | 0.00 | 63 | 1014.0 |
| 20260902041857 | 67 | 60 | 0.0 | 0.0 | 0.00 | 0.00 | 0.00 | 63 | 1014.0 |
| 20260902041838 | 68 | 44 | 0.0 | 0.0 | 0.00 | 0.00 | 0.00 | 63 | 1014.1 |
| 20260902041813 | 68 | 44 | 0.0 | 0.0 | 0.00 | 0.00 | 0.00 | 61 | 1014.1 |
| 20260902041756 | 68 | 44 | 0.0 | 0.0 | 0.00 | 0.00 | 0.00 | 63 | 1014.1 |
| 20260902041729 | 68 | 44 | 0.0 | 0.0 | 0.00 | 0.00 | 0.00 | 62 | 1014.1 |
| 20260902041646 | 68 | 44 | 0.0 | 0.0 | 0.00 | 0.00 | 0.00 | 61 | 1014.1 |
| 20260902041642 | 68 | 44 | 0.0 | 0.0 | 0.00 | 0.00 | 0.00 | 63 | 1014.1 |
| 20260902041525 | 68 | 354 | 0.0 | 2.0 | 0.00 | 0.00 | 0.00 | 62 | 1015.0 |
| 20260902041506 | 68 | 44 | 0.0 | 0.0 | 0.00 | 0.00 | 0.00 | 62 | 1014.1 |
| 20260902041443 | 68 | 44 | 0.0 | 0.0 | 0.00 | 0.00 | 0.00 | 62 | 1014.1 |
| 20260902041309 | 68 | 124 | 0.0 | 0.0 | 0.00 | 0.00 | 0.00 | 62 | 1013.8 |
| 20260902041301 | 68 | 44 | 0.0 | 0.0 | 0.00 | 0.00 | 0.00 | 61 | 1014.1 |
| 20260902041247 | 68 | 44 | 0.0 | 0.0 | 0.00 | 0.00 | 0.00 | 61 | 1014.1 |
| 20260902041020 | 68 | 38 | 0.0 | 1.0 | 0.00 | 0.00 | 0.00 | 61 | 1014.8 |
| 20260902040956 | 68 | 44 | 0.0 | 0.0 | 0.00 | 0.00 | 0.00 | 61 | 1014.1 |
| 20260902040925 | 68 | 44 | 0.0 | 0.0 | 0.00 | 0.00 | 0.00 | 62 | 1014.1 |
| 20260902040857 | 68 | 44 | 0.0 | 0.0 | 0.00 | 0.00 | 0.00 | 62 | 1014.1 |
| 20260902040826 | 68 | 124 | 0.0 | 0.0 | 0.00 | 0.00 | 0.00 | 62 | 1013.8 |
| 20260902040726 | 68 | 124 | 0.0 | 0.0 | 0.00 | 0.00 | 0.00 | 62 | 1013.8 |
| 20260902040705 | 68 | 124 | 0.0 | 0.0 | 0.00 | 0.00 | 0.00 | 62 | 1013.8 |
| 20260902040525 | 68 | 124 | 0.0 | 0.0 | 0.00 | 0.00 | 0.00 | 62 | 1013.8 |
| 20260902040520 | 68 | 39 | 0.0 | 1.0 | 0.00 | 0.00 | 0.00 | 62 | 1014.9 |
| 20260902040513 | 68 | 124 | 0.0 | 0.0 | 0.00 | 0.00 | 0.00 | 63 | 1013.8 |
| 20260902040455 | 68 | 124 | 0.0 | 0.0 | 0.00 | 0.00 | 0.00 | 62 | 1013.8 |
| 20260902040425 | 68 | 124 | 0.0 | 0.0 | 0.00 | 0.00 | 0.00 | 63 | 1013.8 |
| 20260902040405 | 68 | 124 | 0.0 | 0.0 | 0.00 | 0.00 | 0.00 | 62 | 1013.8 |
| 20260902040355 | 68 | 124 | 0.0 | 0.0 | 0.00 | 0.00 | 0.00 | 63 | 1013.8 |
| 20260902040325 | 68 | 124 | 0.0 | 0.0 | 0.00 | 0.00 | 0.00 | 63 | 1013.8 |
| 20260902040311 | 68 | 49 | 0.0 | 0.0 | 0.00 | 0.00 | 0.00 | 62 | 1013.7 |
| 20260902040235 | 68 | 49 | 0.0 | 0.0 | 0.00 | 0.00 | 0.00 | 61 | 1013.7 |
| 20260902040228 | 68 | 124 | 0.0 | 0.0 | 0.00 | 0.00 | 0.00 | 63 | 1013.8 |
| 20260902040212 | 68 | 49 | 0.0 | 0.0 | 0.00 | 0.00 | 0.00 | 62 | 1013.7 |
| 20260902040202 | 68 | 124 | 0.0 | 0.0 | 0.00 | 0.00 | 0.00 | 62 | 1013.8 |
| 20260902040146 | 68 | 124 | 0.0 | 0.0 | 0.00 | 0.00 | 0.00 | 63 | 1013.8 |
| 20260902040015 | 68 | 44 | 0.0 | 0.0 | 0.00 | 0.00 | 0.00 | 63 | 1014.7 |
| 20260902035912 | 69 | 49 | 0.0 | 0.0 | 0.00 | 0.00 | 0.00 | 62 | 1013.7 |
| 20260902035756 | 69 | 49 | 0.0 | 0.0 | 0.00 | 0.00 | 0.00 | 62 | 1013.7 |
| 20260902035746 | 69 | 49 | 0.0 | 0.0 | 0.00 | 0.00 | 0.00 | 61 | 1013.7 |
| 20260902035605 | 68 | 49 | 0.0 | 0.0 | 0.00 | 0.00 | 0.00 | 62 | 1013.7 |
| 20260902035549 | 68 | 49 | 0.0 | 0.0 | 0.00 | 0.00 | 0.00 | 61 | 1013.7 |
| 20260902035540 | 68 | 49 | 0.0 | 0.0 | 0.00 | 0.00 | 0.00 | 61 | 1013.7 |
| 20260902035514 | 68 | 38 | 1.0 | 2.0 | 0.00 | 0.00 | 0.00 | 61 | 1014.8 |
| 20260902035419 | 68 | 49 | 0.0 | 0.0 | 0.00 | 0.00 | 0.00 | 61 | 1013.7 |
| 20260902035409 | 68 | 49 | 0.0 | 0.0 | 0.00 | 0.00 | 0.00 | 62 | 1013.7 |
| 20260902035240 | 68 | 49 | 0.0 | 0.0 | 0.00 | 0.00 | 0.00 | 62 | 1013.7 |
| 20260902035028 | 68 | 49 | 0.0 | 0.0 | 0.00 | 0.00 | 0.00 | 62 | 1013.7 |
| 20260902035009 | 68 | 19 | 0.0 | 1.0 | 0.00 | 0.00 | 0.00 | 65 | 1014.6 |
| 20260902034956 | 68 | 49 | 0.0 | 0.0 | 0.00 | 0.00 | 0.00 | 65 | 1013.7 |
| 20260902034926 | 68 | 49 | 0.0 | 0.0 | 0.00 | 0.00 | 0.00 | 63 | 1013.7 |
| 20260902034858 | 68 | 49 | 0.0 | 0.0 | 0.00 | 0.00 | 0.00 | 64 | 1013.7 |
| 20260902034826 | 68 | 342 | 1.0 | 0.0 | 0.00 | 0.00 | 0.00 | 64 | 1013.6 |
| 20260902034810 | 69 | 342 | 1.0 | 0.0 | 0.00 | 0.00 | 0.00 | 62 | 1013.6 |
| 20260902034756 | 69 | 342 | 1.0 | 0.0 | 0.00 | 0.00 | 0.00 | 64 | 1013.6 |
| 20260902034725 | 69 | 342 | 1.0 | 0.0 | 0.00 | 0.00 | 0.00 | 64 | 1013.6 |
| 20260902034703 | 69 | 342 | 1.0 | 0.0 | 0.00 | 0.00 | 0.00 | 63 | 1013.6 |
| 20260902034656 | 69 | 342 | 1.0 | 0.0 | 0.00 | 0.00 | 0.00 | 64 | 1013.6 |
| 20260902034625 | 69 | 342 | 1.0 | 0.0 | 0.00 | 0.00 | 0.00 | 64 | 1013.6 |
| 20260902034540 | 69 | 342 | 1.0 | 0.0 | 0.00 | 0.00 | 0.00 | 62 | 1013.6 |
| 20260902034533 | 69 | 342 | 1.0 | 0.0 | 0.00 | 0.00 | 0.00 | 60 | 1013.6 |
| 20260902034526 | 69 | 342 | 1.0 | 0.0 | 0.00 | 0.00 | 0.00 | 64 | 1013.6 |
| 20260902034509 | 69 | 58 | 1.0 | 0.0 | 0.00 | 0.00 | 0.00 | 62 | 1013.3 |
| 20260902034505 | 69 | 342 | 1.0 | 0.0 | 0.00 | 0.00 | 0.00 | 64 | 1013.6 |
| 20260902034503 | 69 | 44 | 0.0 | 1.0 | 0.00 | 0.00 | 0.00 | 64 | 1014.4 |
| 20260902034455 | 69 | 342 | 1.0 | 0.0 | 0.00 | 0.00 | 0.00 | 63 | 1013.6 |
| 20260902034444 | 69 | 342 | 1.0 | 0.0 | 0.00 | 0.00 | 0.00 | 63 | 1013.6 |
| 20260902034435 | 69 | 342 | 1.0 | 0.0 | 0.00 | 0.00 | 0.00 | 62 | 1013.6 |
| 20260902034159 | 69 | 342 | 1.0 | 0.0 | 0.00 | 0.00 | 0.00 | 61 | 1013.6 |
| 20260902034145 | 69 | 342 | 1.0 | 0.0 | 0.00 | 0.00 | 0.00 | 62 | 1013.6 |
| 20260902034002 | 69 | 44 | 0.0 | 1.0 | 0.00 | 0.00 | 0.00 | 61 | 1014.5 |
| 20260902033857 | 69 | 342 | 1.0 | 1.0 | 0.00 | 0.00 | 0.00 | 61 | 1013.6 |
| 20260902033825 | 69 | 58 | 1.0 | 0.0 | 0.00 | 0.00 | 0.00 | 61 | 1013.3 |
| 20260902033805 | 70 | 58 | 1.0 | 0.0 | 0.00 | 0.00 | 0.00 | 62 | 1013.3 |
| 20260902033756 | 69 | 58 | 1.0 | 0.0 | 0.00 | 0.00 | 0.00 | 61 | 1013.3 |
| 20260902033729 | 69 | 58 | 1.0 | 0.0 | 0.00 | 0.00 | 0.00 | 62 | 1013.3 |
| 20260902033719 | 70 | 58 | 1.0 | 0.0 | 0.00 | 0.00 | 0.00 | 59 | 1013.3 |
| 20260902033715 | 69 | 58 | 1.0 | 0.0 | 0.00 | 0.00 | 0.00 | 62 | 1013.3 |
| 20260902033705 | 69 | 58 | 1.0 | 0.0 | 0.00 | 0.00 | 0.00 | 61 | 1013.3 |
| 20260902033532 | 70 | 58 | 1.0 | 0.0 | 0.00 | 0.00 | 0.00 | 59 | 1013.3 |
| 20260902033526 | 70 | 58 | 1.0 | 0.0 | 0.00 | 0.00 | 0.00 | 62 | 1013.3 |
| 20260902033507 | 70 | 58 | 1.0 | 0.0 | 0.00 | 0.00 | 0.00 | 62 | 1013.3 |
| 20260902033501 | 70 | 54 | 0.0 | 0.0 | 0.00 | 0.00 | 0.00 | 62 | 1014.4 |
| 20260902033456 | 70 | 58 | 1.0 | 0.0 | 0.00 | 0.00 | 0.00 | 62 | 1013.3 |
| 20260902033446 | 70 | 58 | 1.0 | 0.0 | 0.00 | 0.00 | 0.00 | 61 | 1013.3 |
| 20260902033307 | 70 | 58 | 1.0 | 0.0 | 0.00 | 0.00 | 0.00 | 60 | 1013.3 |
| 20260902033001 | 70 | 352 | 0.0 | 1.0 | 0.00 | 0.00 | 0.00 | 59 | 1014.4 |
| 20260902032938 | 70 | 58 | 1.0 | 0.0 | 0.00 | 0.00 | 0.00 | 59 | 1013.3 |
| 20260902032909 | 70 | 58 | 1.0 | 1.0 | 0.00 | 0.00 | 0.00 | 59 | 1013.3 |
| 20260902032826 | 70 | 50 | 0.0 | 0.0 | 0.00 | 0.00 | 0.00 | 59 | 1013.4 |
| 20260902032727 | 70 | 50 | 0.0 | 0.0 | 0.00 | 0.00 | 0.00 | 59 | 1013.4 |
| 20260902032626 | 70 | 50 | 0.0 | 0.0 | 0.00 | 0.00 | 0.00 | 58 | 1013.4 |
| 20260902032609 | 70 | 50 | 0.0 | 0.0 | 0.00 | 0.00 | 0.00 | 58 | 1013.4 |
| 20260902032526 | 70 | 50 | 0.0 | 0.0 | 0.00 | 0.00 | 0.00 | 58 | 1013.4 |
| 20260902032508 | 70 | 50 | 0.0 | 0.0 | 0.00 | 0.00 | 0.00 | 59 | 1013.4 |
| 20260902032455 | 70 | 20 | 0.0 | 1.0 | 0.00 | 0.00 | 0.00 | 58 | 1014.3 |
| 20260902032426 | 70 | 50 | 0.0 | 0.0 | 0.00 | 0.00 | 0.00 | 58 | 1013.4 |
| 20260902032356 | 70 | 50 | 0.0 | 0.0 | 0.00 | 0.00 | 0.00 | 59 | 1013.4 |
| 20260902032326 | 70 | 50 | 0.0 | 0.0 | 0.00 | 0.00 | 0.00 | 58 | 1013.4 |
| 20260902032306 | 71 | 50 | 0.0 | 0.0 | 0.00 | 0.00 | 0.00 | 58 | 1013.4 |
| 20260902032226 | 71 | 50 | 0.0 | 0.0 | 0.00 | 0.00 | 0.00 | 58 | 1013.4 |
| 20260902032203 | 71 | 50 | 0.0 | 0.0 | 0.00 | 0.00 | 0.00 | 58 | 1013.4 |
| 20260902032127 | 71 | 50 | 0.0 | 0.0 | 0.00 | 0.00 | 0.00 | 60 | 1013.4 |
| 20260902032029 | 71 | 50 | 0.0 | 0.0 | 0.00 | 0.00 | 0.00 | 58 | 1013.4 |
| 20260902031950 | 71 | 16 | 0.0 | 1.0 | 0.00 | 0.00 | 0.00 | 58 | 1014.3 |
| 20260902031926 | 71 | 50 | 0.0 | 0.0 | 0.00 | 0.00 | 0.00 | 58 | 1013.4 |
| 20260902031913 | 71 | 334 | 1.0 | 0.0 | 0.00 | 0.00 | 0.00 | 58 | 1013.3 |
| 20260902031857 | 71 | 50 | 0.0 | 0.0 | 0.00 | 0.00 | 0.00 | 58 | 1013.4 |
| 20260902031825 | 71 | 334 | 1.0 | 0.0 | 0.00 | 0.00 | 0.00 | 58 | 1013.3 |
| 20260902031727 | 71 | 334 | 1.0 | 0.0 | 0.00 | 0.00 | 0.00 | 58 | 1013.3 |
| 20260902031657 | 71 | 334 | 1.0 | 0.0 | 0.00 | 0.00 | 0.00 | 59 | 1013.3 |
| 20260902031630 | 71 | 334 | 1.0 | 0.0 | 0.00 | 0.00 | 0.00 | 58 | 1013.3 |
| 20260902031552 | 71 | 334 | 1.0 | 0.0 | 0.00 | 0.00 | 0.00 | 58 | 1013.3 |
| 20260902031445 | 71 | 23 | 0.0 | 2.0 | 0.00 | 0.00 | 0.00 | 58 | 1014.2 |
| 20260902031356 | 71 | 334 | 1.0 | 0.0 | 0.00 | 0.00 | 0.00 | 58 | 1013.3 |
| 20260902031326 | 71 | 334 | 1.0 | 0.0 | 0.00 | 0.00 | 0.00 | 59 | 1013.3 |
| 20260902031232 | 71 | 0 | 0.0 | 0.0 | 0.00 | 0.00 | 0.00 | 58 | 1013.1 |
| 20260902031227 | 71 | 334 | 1.0 | 0.0 | 0.00 | 0.00 | 0.00 | 58 | 1013.3 |
| 20260902031156 | 71 | 334 | 1.0 | 0.0 | 0.00 | 0.00 | 0.00 | 58 | 1013.3 |
| 20260902031125 | 71 | 334 | 1.0 | 0.0 | 0.00 | 0.00 | 0.00 | 58 | 1013.3 |
| 20260902031029 | 71 | 334 | 1.0 | 0.0 | 0.00 | 0.00 | 0.00 | 58 | 1013.3 |
| 20260902030942 | 71 | 345 | 0.0 | 2.0 | 0.00 | 0.00 | 0.00 | 58 | 1014.2 |
| 20260902030931 | 71 | 0 | 0.0 | 0.0 | 0.00 | 0.00 | 0.00 | 58 | 1013.1 |
| 20260902030927 | 71 | 334 | 1.0 | 0.0 | 0.00 | 0.00 | 0.00 | 58 | 1013.3 |
| 20260902030917 | 71 | 334 | 1.0 | 2.0 | 0.00 | 0.00 | 0.00 | 58 | 1013.3 |
| 20260902030906 | 71 | 0 | 0.0 | 0.0 | 0.00 | 0.00 | 0.00 | 58 | 1013.1 |
| 20260902030726 | 71 | 0 | 0.0 | 0.0 | 0.00 | 0.00 | 0.00 | 59 | 1013.1 |
| 20260902030659 | 71 | 0 | 0.0 | 0.0 | 0.00 | 0.00 | 0.00 | 57 | 1013.1 |
| 20260902030627 | 71 | 0 | 0.0 | 0.0 | 0.00 | 0.00 | 0.00 | 59 | 1013.1 |
| 20260902030602 | 72 | 0 | 0.0 | 0.0 | 0.00 | 0.00 | 0.00 | 58 | 1013.1 |
| 20260902030557 | 71 | 0 | 0.0 | 0.0 | 0.00 | 0.00 | 0.00 | 59 | 1013.1 |
| 20260902030538 | 72 | 0 | 0.0 | 1.0 | 0.00 | 0.00 | 0.00 | 58 | 1013.1 |
| 20260902030531 | 72 | 25 | 0.0 | 0.0 | 0.00 | 0.00 | 0.00 | 57 | 1013.1 |
| 20260902030526 | 71 | 0 | 0.0 | 0.0 | 0.00 | 0.00 | 0.00 | 58 | 1013.1 |
| 20260902030516 | 71 | 0 | 0.0 | 0.0 | 0.00 | 0.00 | 0.00 | 58 | 1013.1 |
| 20260902030507 | 71 | 0 | 0.0 | 0.0 | 0.00 | 0.00 | 0.00 | 59 | 1013.1 |
| 20260902030451 | 71 | 0 | 0.0 | 0.0 | 0.00 | 0.00 | 0.00 | 58 | 1013.1 |
| 20260902030441 | 71 | 358 | 0.0 | 1.0 | 0.00 | 0.00 | 0.00 | 58 | 1014.2 |
| 20260902030032 | 72 | 0 | 0.0 | 0.0 | 0.00 | 0.00 | 0.00 | 58 | 1013.1 |
| 20260902030017 | 72 | 25 | 0.0 | 0.0 | 0.00 | 0.00 | 0.00 | 57 | 1013.1 |
| 20260902030009 | 72 | 0 | 0.0 | 0.0 | 0.00 | 0.00 | 0.00 | 58 | 1013.1 |
| 20260902025940 | 72 | 346 | 0.0 | 1.0 | 0.00 | 0.00 | 0.00 | 58 | 1014.3 |
| 20260902025828 | 72 | 25 | 0.0 | 0.0 | 0.00 | 0.00 | 0.00 | 58 | 1013.1 |
| 20260902025817 | 72 | 25 | 0.0 | 0.0 | 0.00 | 0.00 | 0.00 | 58 | 1013.1 |
| 20260902025807 | 72 | 25 | 0.0 | 0.0 | 0.00 | 0.00 | 0.00 | 57 | 1013.1 |
| 20260902025627 | 72 | 25 | 0.0 | 0.0 | 0.00 | 0.00 | 0.00 | 57 | 1013.1 |
| 20260902025606 | 72 | 25 | 0.0 | 0.0 | 0.00 | 0.00 | 0.00 | 57 | 1013.1 |
| 20260902025436 | 72 | 63 | 0.0 | 1.0 | 0.00 | 0.00 | 0.00 | 58 | 1013.9 |
| 20260902025426 | 72 | 25 | 0.0 | 0.0 | 0.00 | 0.00 | 0.00 | 58 | 1013.1 |
| 20260902025357 | 72 | 25 | 0.0 | 0.0 | 0.00 | 0.00 | 0.00 | 58 | 1013.1 |
| 20260902025326 | 72 | 25 | 0.0 | 0.0 | 0.00 | 0.00 | 0.00 | 58 | 1013.1 |
| 20260902025226 | 72 | 25 | 0.0 | 0.0 | 0.00 | 0.00 | 0.00 | 57 | 1013.1 |
| 20260902025156 | 72 | 25 | 0.0 | 0.0 | 0.00 | 0.00 | 0.00 | 58 | 1013.1 |
| 20260902025126 | 72 | 25 | 0.0 | 0.0 | 0.00 | 0.00 | 0.00 | 57 | 1013.1 |
| 20260902025055 | 72 | 25 | 0.0 | 0.0 | 0.00 | 0.00 | 0.00 | 57 | 1013.1 |
| 20260902025028 | 72 | 25 | 0.0 | 0.0 | 0.00 | 0.00 | 0.00 | 58 | 1013.1 |
| 20260902024957 | 72 | 25 | 0.0 | 0.0 | 0.00 | 0.00 | 0.00 | 58 | 1013.1 |
| 20260902024931 | 73 | 25 | 0.0 | 0.0 | 0.00 | 0.00 | 0.00 | 57 | 1014.1 |
| 20260902024925 | 72 | 25 | 0.0 | 0.0 | 0.00 | 0.00 | 0.00 | 58 | 1013.1 |
| 20260902024901 | 73 | 309 | 0.0 | 0.0 | 0.00 | 0.00 | 0.00 | 57 | 1013.0 |
| 20260902024857 | 73 | 25 | 0.0 | 0.0 | 0.00 | 0.00 | 0.00 | 57 | 1013.1 |
| 20260902024826 | 73 | 309 | 0.0 | 0.0 | 0.00 | 0.00 | 0.00 | 58 | 1013.0 |
| 20260902024726 | 73 | 309 | 0.0 | 0.0 | 0.00 | 0.00 | 0.00 | 57 | 1013.0 |
| 20260902024656 | 73 | 309 | 0.0 | 0.0 | 0.00 | 0.00 | 0.00 | 57 | 1013.0 |
| 20260902024625 | 73 | 309 | 0.0 | 0.0 | 0.00 | 0.00 | 0.00 | 57 | 1013.0 |
| 20260902024548 | 73 | 309 | 0.0 | 0.0 | 0.00 | 0.00 | 0.00 | 57 | 1013.0 |
| 20260902024540 | 73 | 309 | 0.0 | 0.0 | 0.00 | 0.00 | 0.00 | 57 | 1013.0 |
| 20260902024426 | 73 | 31 | 2.0 | 2.0 | 0.00 | 0.00 | 0.00 | 58 | 1013.8 |
| 20260902024355 | 73 | 309 | 0.0 | 0.0 | 0.00 | 0.00 | 0.00 | 58 | 1013.0 |
| 20260902024325 | 73 | 309 | 0.0 | 0.0 | 0.00 | 0.00 | 0.00 | 57 | 1013.0 |
| 20260902024257 | 73 | 309 | 0.0 | 0.0 | 0.00 | 0.00 | 0.00 | 57 | 1013.0 |
| 20260902024225 | 73 | 309 | 0.0 | 0.0 | 0.00 | 0.00 | 0.00 | 57 | 1013.0 |
| 20260902024213 | 73 | 309 | 0.0 | 0.0 | 0.00 | 0.00 | 0.00 | 57 | 1013.0 |
| 20260902024039 | 73 | 309 | 0.0 | 0.0 | 0.00 | 0.00 | 0.00 | 57 | 1013.0 |
| 20260902023956 | 73 | 309 | 0.0 | 0.0 | 0.00 | 0.00 | 0.00 | 58 | 1013.0 |
| 20260902023926 | 73 | 309 | 0.0 | 0.0 | 0.00 | 0.00 | 0.00 | 57 | 1013.0 |
| 20260902023921 | 73 | 309 | 0.0 | 1.0 | 0.00 | 0.00 | 0.00 | 57 | 1013.9 |
| 20260902023857 | 73 | 309 | 0.0 | 0.0 | 0.00 | 0.00 | 0.00 | 57 | 1013.0 |
| 20260902023826 | 73 | 217 | 0.0 | 0.0 | 0.00 | 0.00 | 0.00 | 57 | 1012.7 |
| 20260902023756 | 73 | 217 | 0.0 | 0.0 | 0.00 | 0.00 | 0.00 | 57 | 1012.7 |
| 20260902023726 | 73 | 217 | 0.0 | 0.0 | 0.00 | 0.00 | 0.00 | 57 | 1012.7 |
| 20260902023657 | 73 | 217 | 0.0 | 0.0 | 0.00 | 0.00 | 0.00 | 57 | 1012.7 |
| 20260902023626 | 73 | 217 | 0.0 | 0.0 | 0.00 | 0.00 | 0.00 | 57 | 1012.7 |
| 20260902023528 | 73 | 217 | 0.0 | 0.0 | 0.00 | 0.00 | 0.00 | 56 | 1012.7 |
| 20260902023456 | 74 | 217 | 0.0 | 0.0 | 0.00 | 0.00 | 0.00 | 57 | 1012.7 |
| 20260902023426 | 73 | 217 | 0.0 | 0.0 | 0.00 | 0.00 | 0.00 | 56 | 1012.7 |
| 20260902023417 | 74 | 315 | 0.0 | 2.0 | 0.00 | 0.00 | 0.00 | 56 | 1013.8 |
| 20260902023408 | 74 | 217 | 0.0 | 0.0 | 0.00 | 0.00 | 0.00 | 56 | 1012.7 |
| 20260902023327 | 74 | 217 | 0.0 | 0.0 | 0.00 | 0.00 | 0.00 | 56 | 1012.7 |
| 20260902023317 | 74 | 217 | 0.0 | 0.0 | 0.00 | 0.00 | 0.00 | 56 | 1012.7 |
| 20260902023256 | 74 | 217 | 0.0 | 0.0 | 0.00 | 0.00 | 0.00 | 56 | 1012.7 |
| 20260902023225 | 74 | 217 | 0.0 | 0.0 | 0.00 | 0.00 | 0.00 | 56 | 1012.7 |
| 20260902023155 | 74 | 217 | 0.0 | 0.0 | 0.00 | 0.00 | 0.00 | 56 | 1012.7 |
| 20260902023125 | 74 | 217 | 0.0 | 0.0 | 0.00 | 0.00 | 0.00 | 56 | 1012.7 |
| 20260902023115 | 74 | 60 | 0.0 | 0.0 | 0.00 | 0.00 | 0.00 | 56 | 1012.9 |
| 20260902023028 | 74 | 217 | 0.0 | 0.0 | 0.00 | 0.00 | 0.00 | 56 | 1012.7 |
| 20260902023008 | 74 | 60 | 0.0 | 0.0 | 0.00 | 0.00 | 0.00 | 56 | 1012.9 |
| 20260902022948 | 74 | 217 | 0.0 | 0.0 | 0.00 | 0.00 | 0.00 | 56 | 1012.7 |
| 20260902022938 | 74 | 217 | 0.0 | 0.0 | 0.00 | 0.00 | 0.00 | 56 | 1012.7 |
| 20260902022916 | 74 | 4 | 0.0 | 1.0 | 0.00 | 0.00 | 0.00 | 56 | 1013.8 |
| 20260902022804 | 74 | 60 | 0.0 | 0.0 | 0.00 | 0.00 | 0.00 | 56 | 1012.9 |
| 20260902022756 | 74 | 60 | 0.0 | 0.0 | 0.00 | 0.00 | 0.00 | 56 | 1012.9 |
| 20260902022428 | 74 | 60 | 0.0 | 0.0 | 0.00 | 0.00 | 0.00 | 56 | 1012.9 |
| 20260902022411 | 74 | 269 | 0.0 | 1.0 | 0.00 | 0.00 | 0.00 | 55 | 1013.8 |
| 20260902022356 | 74 | 60 | 0.0 | 0.0 | 0.00 | 0.00 | 0.00 | 55 | 1012.9 |
| 20260902022325 | 74 | 60 | 0.0 | 0.0 | 0.00 | 0.00 | 0.00 | 55 | 1012.9 |
| 20260902022306 | 74 | 60 | 0.0 | 0.0 | 0.00 | 0.00 | 0.00 | 56 | 1012.9 |
| 20260902022121 | 74 | 60 | 0.0 | 0.0 | 0.00 | 0.00 | 0.00 | 56 | 1012.9 |
| 20260902022108 | 75 | 60 | 0.0 | 0.0 | 0.00 | 0.00 | 0.00 | 55 | 1012.7 |
| 20260902022027 | 74 | 60 | 0.0 | 0.0 | 0.00 | 0.00 | 0.00 | 56 | 1012.9 |
| 20260902021926 | 74 | 60 | 0.0 | 0.0 | 0.00 | 0.00 | 0.00 | 56 | 1012.9 |
| 20260902021908 | 74 | 60 | 0.0 | 0.0 | 0.00 | 0.00 | 0.00 | 55 | 1013.7 |
| 20260902021856 | 74 | 60 | 0.0 | 0.0 | 0.00 | 0.00 | 0.00 | 55 | 1012.9 |
| 20260902021828 | 74 | 60 | 0.0 | 0.0 | 0.00 | 0.00 | 0.00 | 55 | 1012.9 |
| 20260902021746 | 74 | 60 | 0.0 | 0.0 | 0.00 | 0.00 | 0.00 | 55 | 1012.7 |
| 20260902021737 | 74 | 60 | 0.0 | 0.0 | 0.00 | 0.00 | 0.00 | 55 | 1012.7 |
| 20260902021557 | 75 | 60 | 0.0 | 0.0 | 0.00 | 0.00 | 0.00 | 55 | 1012.7 |
| 20260902021532 | 75 | 60 | 0.0 | 0.0 | 0.00 | 0.00 | 0.00 | 55 | 1012.7 |
| 20260902021527 | 75 | 60 | 0.0 | 0.0 | 0.00 | 0.00 | 0.00 | 55 | 1012.7 |
| 20260902021508 | 75 | 60 | 0.0 | 0.0 | 0.00 | 0.00 | 0.00 | 55 | 1012.7 |
| 20260902021425 | 75 | 60 | 0.0 | 0.0 | 0.00 | 0.00 | 0.00 | 55 | 1012.7 |
| 20260902021407 | 75 | 55 | 0.0 | 1.0 | 0.00 | 0.00 | 0.00 | 55 | 1013.7 |
| 20260902021326 | 75 | 60 | 0.0 | 0.0 | 0.00 | 0.00 | 0.00 | 55 | 1012.7 |
| 20260902021234 | 75 | 60 | 0.0 | 0.0 | 0.00 | 0.00 | 0.00 | 55 | 1012.7 |
| 20260902021205 | 75 | 60 | 0.0 | 0.0 | 0.00 | 0.00 | 0.00 | 55 | 1012.7 |
| 20260902021028 | 75 | 60 | 0.0 | 0.0 | 0.00 | 0.00 | 0.00 | 55 | 1012.7 |
| 20260902021008 | 75 | 60 | 0.0 | 0.0 | 0.00 | 0.00 | 0.00 | 55 | 1012.7 |
| 20260902020926 | 75 | 60 | 0.0 | 0.0 | 0.00 | 0.00 | 0.00 | 55 | 1012.7 |
| 20260902020903 | 75 | 60 | 0.0 | 0.0 | 0.00 | 0.00 | 0.00 | 54 | 1013.7 |
| 20260902020855 | 75 | 60 | 0.0 | 0.0 | 0.00 | 0.00 | 0.00 | 54 | 1012.7 |
| 20260902020841 | 76 | 25 | 0.0 | 0.0 | 0.00 | 0.00 | 0.00 | 54 | 1012.8 |
| 20260902020827 | 75 | 60 | 0.0 | 0.0 | 0.00 | 0.00 | 0.00 | 54 | 1012.7 |
| 20260902020738 | 75 | 25 | 0.0 | 0.0 | 0.00 | 0.00 | 0.00 | 54 | 1012.8 |
| 20260902020657 | 75 | 25 | 0.0 | 0.0 | 0.00 | 0.00 | 0.00 | 54 | 1012.8 |
| 20260902020625 | 75 | 25 | 0.0 | 0.0 | 0.00 | 0.00 | 0.00 | 54 | 1012.8 |
| 20260902020609 | 75 | 25 | 0.0 | 0.0 | 0.00 | 0.00 | 0.00 | 54 | 1012.8 |
| 20260902020528 | 76 | 25 | 0.0 | 0.0 | 0.00 | 0.00 | 0.00 | 54 | 1012.8 |
| 20260902020517 | 76 | 25 | 0.0 | 0.0 | 0.00 | 0.00 | 0.00 | 54 | 1012.8 |
| 20260902020506 | 76 | 25 | 0.0 | 0.0 | 0.00 | 0.00 | 0.00 | 55 | 1012.8 |
| 20260902020359 | 76 | 129 | 0.0 | 0.0 | 0.00 | 0.00 | 0.00 | 53 | 1013.6 |
| 20260902020339 | 76 | 25 | 0.0 | 0.0 | 0.00 | 0.00 | 0.00 | 53 | 1012.8 |
| 20260902020225 | 76 | 25 | 0.0 | 0.0 | 0.00 | 0.00 | 0.00 | 53 | 1012.8 |
| 20260902020208 | 76 | 25 | 0.0 | 0.0 | 0.00 | 0.00 | 0.00 | 53 | 1012.8 |
| 20260902020125 | 76 | 25 | 0.0 | 0.0 | 0.00 | 0.00 | 0.00 | 53 | 1012.8 |
| 20260902020109 | 76 | 25 | 0.0 | 0.0 | 0.00 | 0.00 | 0.00 | 53 | 1012.8 |
| 20260902020028 | 76 | 25 | 0.0 | 0.0 | 0.00 | 0.00 | 0.00 | 53 | 1012.8 |
| 20260902015956 | 76 | 25 | 0.0 | 0.0 | 0.00 | 0.00 | 0.00 | 53 | 1012.8 |
| 20260902015925 | 76 | 25 | 0.0 | 0.0 | 0.00 | 0.00 | 0.00 | 54 | 1012.8 |
| 20260902015902 | 77 | 297 | 0.0 | 0.0 | 0.00 | 0.00 | 0.00 | 52 | 1012.6 |
| 20260902015855 | 76 | 25 | 0.0 | 0.0 | 0.00 | 0.00 | 0.00 | 53 | 1012.8 |
| 20260902015826 | 76 | 25 | 0.0 | 0.0 | 0.00 | 0.00 | 0.00 | 53 | 1012.8 |
| 20260902015755 | 76 | 326 | 0.0 | 0.0 | 0.00 | 0.00 | 0.00 | 53 | 1012.8 |
| 20260902015733 | 77 | 297 | 0.0 | 0.0 | 0.00 | 0.00 | 0.00 | 53 | 1012.6 |
| 20260902015725 | 76 | 326 | 0.0 | 0.0 | 0.00 | 0.00 | 0.00 | 53 | 1012.8 |
| 20260902015626 | 76 | 326 | 0.0 | 0.0 | 0.00 | 0.00 | 0.00 | 53 | 1012.8 |
| 20260902015545 | 77 | 326 | 0.0 | 0.0 | 0.00 | 0.00 | 0.00 | 53 | 1012.8 |
| 20260902015535 | 76 | 326 | 0.0 | 0.0 | 0.00 | 0.00 | 0.00 | 53 | 1012.8 |
| 20260902015527 | 76 | 326 | 0.0 | 0.0 | 0.00 | 0.00 | 0.00 | 53 | 1012.8 |
| 20260902015517 | 77 | 326 | 0.0 | 0.0 | 0.00 | 0.00 | 0.00 | 53 | 1012.8 |
| 20260902015358 | 77 | 326 | 0.0 | 0.0 | 0.00 | 0.00 | 0.00 | 53 | 1012.8 |
| 20260902015349 | 77 | 27 | 0.0 | 0.0 | 0.00 | 0.00 | 0.00 | 53 | 1013.7 |
| 20260902015226 | 77 | 326 | 0.0 | 0.0 | 0.00 | 0.00 | 0.00 | 53 | 1012.8 |
| 20260902015217 | 77 | 297 | 0.0 | 0.0 | 0.00 | 0.00 | 0.00 | 52 | 1012.6 |
| 20260902015207 | 78 | 297 | 0.0 | 0.0 | 0.00 | 0.00 | 0.00 | 53 | 1012.6 |
| 20260902015157 | 77 | 326 | 0.0 | 0.0 | 0.00 | 0.00 | 0.00 | 53 | 1012.8 |
| 20260902015026 | 77 | 326 | 0.0 | 0.0 | 0.00 | 0.00 | 0.00 | 52 | 1012.8 |
| 20260902015013 | 77 | 326 | 0.0 | 0.0 | 0.00 | 0.00 | 0.00 | 52 | 1012.8 |
| 20260902015002 | 77 | 326 | 0.0 | 1.0 | 0.00 | 0.00 | 0.00 | 53 | 1012.8 |
| 20260902014845 | 77 | 229 | 1.0 | 1.0 | 0.00 | 0.00 | 0.00 | 52 | 1013.7 |
| 20260902014559 | 78 | 297 | 0.0 | 0.0 | 0.00 | 0.00 | 0.00 | 52 | 1012.6 |
| 20260902014545 | 78 | 297 | 0.0 | 0.0 | 0.00 | 0.00 | 0.00 | 51 | 1012.6 |
| 20260902014541 | 77 | 297 | 0.0 | 0.0 | 0.00 | 0.00 | 0.00 | 53 | 1012.6 |
| 20260902014342 | 78 | 333 | 0.0 | 1.0 | 0.00 | 0.00 | 0.00 | 52 | 1013.7 |
| 20260902014326 | 78 | 297 | 0.0 | 0.0 | 0.00 | 0.00 | 0.00 | 52 | 1012.6 |
| 20260902014241 | 78 | 55 | 0.0 | 0.0 | 0.00 | 0.00 | 0.00 | 51 | 1012.8 |
| 20260902014232 | 78 | 297 | 0.0 | 0.0 | 0.00 | 0.00 | 0.00 | 52 | 1012.6 |
| 20260902014220 | 78 | 297 | 0.0 | 0.0 | 0.00 | 0.00 | 0.00 | 52 | 1012.6 |
| 20260902013925 | 78 | 297 | 0.0 | 0.0 | 0.00 | 0.00 | 0.00 | 51 | 1012.6 |
| 20260902013856 | 78 | 297 | 0.0 | 0.0 | 0.00 | 0.00 | 0.00 | 52 | 1012.6 |
| 20260902013846 | 79 | 55 | 0.0 | 0.0 | 0.00 | 0.00 | 0.00 | 51 | 1012.8 |
| 20260902013842 | 78 | 297 | 0.0 | 0.0 | 0.00 | 0.00 | 0.00 | 52 | 1012.6 |
| 20260902013657 | 78 | 55 | 0.0 | 0.0 | 0.00 | 0.00 | 0.00 | 52 | 1012.8 |
| 20260902013626 | 78 | 55 | 0.0 | 0.0 | 0.00 | 0.00 | 0.00 | 51 | 1012.8 |
| 20260902013527 | 78 | 55 | 0.0 | 0.0 | 0.00 | 0.00 | 0.00 | 51 | 1012.8 |
| 20260902013513 | 79 | 55 | 0.0 | 0.0 | 0.00 | 0.00 | 0.00 | 51 | 1012.8 |
| 20260902013448 | 78 | 55 | 0.0 | 0.0 | 0.00 | 0.00 | 0.00 | 51 | 1012.8 |
| 20260902013437 | 78 | 55 | 0.0 | 0.0 | 0.00 | 0.00 | 0.00 | 51 | 1012.8 |
| 20260902013336 | 78 | 252 | 2.0 | 2.0 | 0.00 | 0.00 | 0.00 | 51 | 1013.7 |
| 20260902013256 | 79 | 55 | 0.0 | 0.0 | 0.00 | 0.00 | 0.00 | 51 | 1012.8 |
| 20260902013225 | 79 | 55 | 0.0 | 0.0 | 0.00 | 0.00 | 0.00 | 52 | 1012.8 |
| 20260902013143 | 79 | 55 | 0.0 | 0.0 | 0.00 | 0.00 | 0.00 | 51 | 1012.8 |
| 20260902012957 | 79 | 55 | 0.0 | 0.0 | 0.00 | 0.00 | 0.00 | 51 | 1012.8 |
| 20260902012925 | 79 | 55 | 0.0 | 0.0 | 0.00 | 0.00 | 0.00 | 51 | 1012.8 |
| 20260902012856 | 79 | 55 | 0.0 | 0.0 | 0.00 | 0.00 | 0.00 | 51 | 1012.8 |
| 20260902012832 | 79 | 55 | 0.0 | 2.0 | 0.00 | 0.00 | 0.00 | 51 | 1013.7 |
| 20260902012827 | 79 | 55 | 0.0 | 0.0 | 0.00 | 0.00 | 0.00 | 51 | 1012.8 |
| 20260902012756 | 79 | 320 | 0.0 | 0.0 | 0.00 | 0.00 | 0.00 | 51 | 1012.7 |
| 20260902012725 | 79 | 320 | 0.0 | 0.0 | 0.00 | 0.00 | 0.00 | 51 | 1012.7 |
| 20260902012639 | 79 | 320 | 0.0 | 0.0 | 0.00 | 0.00 | 0.00 | 51 | 1012.7 |
| 20260902012528 | 79 | 320 | 0.0 | 0.0 | 0.00 | 0.00 | 0.00 | 50 | 1012.7 |
| 20260902012518 | 79 | 320 | 0.0 | 0.0 | 0.00 | 0.00 | 0.00 | 50 | 1012.7 |
| 20260902012457 | 79 | 320 | 0.0 | 0.0 | 0.00 | 0.00 | 0.00 | 50 | 1012.7 |
| 20260902012426 | 79 | 320 | 0.0 | 0.0 | 0.00 | 0.00 | 0.00 | 50 | 1012.7 |
| 20260902012339 | 79 | 320 | 0.0 | 0.0 | 0.00 | 0.00 | 0.00 | 51 | 1012.7 |
| 20260902012327 | 79 | 35 | 1.0 | 1.0 | 0.00 | 0.00 | 0.00 | 51 | 1013.8 |
| 20260902012226 | 79 | 320 | 0.0 | 0.0 | 0.00 | 0.00 | 0.00 | 50 | 1012.7 |
| 20260902012141 | 79 | 320 | 0.0 | 0.0 | 0.00 | 0.00 | 0.00 | 50 | 1012.7 |
| 20260902011958 | 79 | 320 | 0.0 | 0.0 | 0.00 | 0.00 | 0.00 | 51 | 1012.7 |
| 20260902011950 | 79 | 50 | 0.0 | 0.0 | 0.00 | 0.00 | 0.00 | 50 | 1012.8 |
| 20260902011925 | 79 | 320 | 0.0 | 0.0 | 0.00 | 0.00 | 0.00 | 51 | 1012.7 |
| 20260902011855 | 79 | 320 | 0.0 | 0.0 | 0.00 | 0.00 | 0.00 | 50 | 1012.7 |
| 20260902011827 | 79 | 320 | 0.0 | 0.0 | 0.00 | 0.00 | 0.00 | 50 | 1012.7 |
| 20260902011823 | 79 | 305 | 0.0 | 1.0 | 0.00 | 0.00 | 0.00 | 50 | 1013.5 |
| 20260902011726 | 79 | 50 | 0.0 | 0.0 | 0.00 | 0.00 | 0.00 | 50 | 1012.8 |
| 20260902011643 | 80 | 50 | 0.0 | 0.0 | 0.00 | 0.00 | 0.00 | 49 | 1012.8 |
| 20260902011639 | 79 | 50 | 0.0 | 0.0 | 0.00 | 0.00 | 0.00 | 50 | 1012.8 |
| 20260902011611 | 79 | 50 | 0.0 | 0.0 | 0.00 | 0.00 | 0.00 | 50 | 1012.8 |
| 20260902011426 | 79 | 50 | 0.0 | 0.0 | 0.00 | 0.00 | 0.00 | 50 | 1012.8 |
| 20260902011357 | 80 | 50 | 0.0 | 0.0 | 0.00 | 0.00 | 0.00 | 50 | 1012.8 |
| 20260902011339 | 80 | 50 | 0.0 | 0.0 | 0.00 | 0.00 | 0.00 | 49 | 1012.8 |
| 20260902011317 | 80 | 249 | 0.0 | 1.0 | 0.00 | 0.00 | 0.00 | 49 | 1013.6 |
| 20260902011309 | 80 | 50 | 0.0 | 0.0 | 0.00 | 0.00 | 0.00 | 49 | 1012.8 |
| 20260902011255 | 80 | 50 | 0.0 | 0.0 | 0.00 | 0.00 | 0.00 | 49 | 1012.8 |
| 20260902011225 | 80 | 50 | 0.0 | 0.0 | 0.00 | 0.00 | 0.00 | 50 | 1012.8 |
| 20260902011205 | 80 | 50 | 0.0 | 0.0 | 0.00 | 0.00 | 0.00 | 50 | 1012.8 |
| 20260902011040 | 80 | 50 | 0.0 | 0.0 | 0.00 | 0.00 | 0.00 | 49 | 1012.8 |
| 20260902011014 | 80 | 301 | 0.0 | 0.0 | 0.00 | 0.00 | 0.00 | 49 | 1012.7 |
| 20260902011010 | 80 | 50 | 0.0 | 0.0 | 0.00 | 0.00 | 0.00 | 49 | 1012.8 |
| 20260902011000 | 80 | 50 | 0.0 | 0.0 | 0.00 | 0.00 | 0.00 | 50 | 1012.8 |
| 20260902010937 | 80 | 50 | 0.0 | 0.0 | 0.00 | 0.00 | 0.00 | 50 | 1012.8 |
| 20260902010816 | 80 | 347 | 0.0 | 1.0 | 0.00 | 0.00 | 0.00 | 49 | 1013.6 |
| 20260902010808 | 80 | 301 | 0.0 | 0.0 | 0.00 | 0.00 | 0.00 | 49 | 1012.7 |
| 20260902010738 | 80 | 301 | 0.0 | 0.0 | 0.00 | 0.00 | 0.00 | 49 | 1012.7 |
| 20260902010709 | 80 | 301 | 0.0 | 0.0 | 0.00 | 0.00 | 0.00 | 49 | 1012.7 |
| 20260902010626 | 80 | 301 | 0.0 | 0.0 | 0.00 | 0.00 | 0.00 | 49 | 1012.7 |
| 20260902010547 | 80 | 301 | 0.0 | 0.0 | 0.00 | 0.00 | 0.00 | 49 | 1012.7 |
| 20260902010543 | 80 | 301 | 0.0 | 0.0 | 0.00 | 0.00 | 0.00 | 49 | 1012.7 |
| 20260902010327 | 80 | 301 | 0.0 | 0.0 | 0.00 | 0.00 | 0.00 | 49 | 1012.7 |
| 20260902010312 | 80 | 5 | 0.0 | 1.0 | 0.00 | 0.00 | 0.00 | 49 | 1013.8 |
| 20260902010226 | 80 | 301 | 0.0 | 0.0 | 0.00 | 0.00 | 0.00 | 49 | 1012.7 |
| 20260902010151 | 80 | 301 | 0.0 | 0.0 | 0.00 | 0.00 | 0.00 | 48 | 1012.7 |
| 20260902010142 | 80 | 301 | 0.0 | 0.0 | 0.00 | 0.00 | 0.00 | 48 | 1012.7 |
| 20260902005956 | 80 | 301 | 0.0 | 0.0 | 0.00 | 0.00 | 0.00 | 49 | 1012.7 |
| 20260902005926 | 80 | 301 | 0.0 | 0.0 | 0.00 | 0.00 | 0.00 | 48 | 1012.7 |
| 20260902005904 | 80 | 256 | 0.0 | 0.0 | 0.00 | 0.00 | 0.00 | 49 | 1012.9 |
| 20260902005855 | 80 | 301 | 0.0 | 0.0 | 0.00 | 0.00 | 0.00 | 48 | 1012.7 |
| 20260902005827 | 80 | 301 | 0.0 | 0.0 | 0.00 | 0.00 | 0.00 | 48 | 1012.7 |
| 20260902005811 | 80 | 256 | 0.0 | 0.0 | 0.00 | 0.00 | 0.00 | 48 | 1013.7 |
| 20260902005735 | 80 | 256 | 0.0 | 0.0 | 0.00 | 0.00 | 0.00 | 49 | 1012.9 |
| 20260902005730 | 80 | 256 | 0.0 | 0.0 | 0.00 | 0.00 | 0.00 | 48 | 1012.9 |
| 20260902005626 | 80 | 256 | 0.0 | 0.0 | 0.00 | 0.00 | 0.00 | 48 | 1012.9 |
| 20260902005602 | 81 | 256 | 0.0 | 1.0 | 0.00 | 0.00 | 0.00 | 48 | 1012.9 |
| 20260902005558 | 80 | 256 | 0.0 | 0.0 | 0.00 | 0.00 | 0.00 | 49 | 1012.9 |
| 20260902005548 | 80 | 256 | 0.0 | 0.0 | 0.00 | 0.00 | 0.00 | 48 | 1012.9 |
| 20260902005540 | 80 | 256 | 0.0 | 0.0 | 0.00 | 0.00 | 0.00 | 48 | 1012.9 |
| 20260902005418 | 80 | 256 | 0.0 | 0.0 | 0.00 | 0.00 | 0.00 | 48 | 1012.9 |
| 20260902005406 | 80 | 256 | 0.0 | 0.0 | 0.00 | 0.00 | 0.00 | 49 | 1012.9 |
| 20260902005306 | 80 | 38 | 0.0 | 2.0 | 0.00 | 0.00 | 0.00 | 49 | 1013.5 |
| 20260902005227 | 80 | 256 | 0.0 | 0.0 | 0.00 | 0.00 | 0.00 | 49 | 1012.9 |
| 20260902005141 | 81 | 253 | 0.0 | 0.0 | 0.00 | 0.00 | 0.00 | 48 | 1012.9 |
| 20260902005126 | 80 | 256 | 0.0 | 0.0 | 0.00 | 0.00 | 0.00 | 48 | 1012.9 |
| 20260902005056 | 80 | 256 | 0.0 | 0.0 | 0.00 | 0.00 | 0.00 | 48 | 1012.9 |
| 20260902005025 | 81 | 256 | 0.0 | 0.0 | 0.00 | 0.00 | 0.00 | 48 | 1012.9 |
| 20260902004947 | 81 | 256 | 0.0 | 0.0 | 0.00 | 0.00 | 0.00 | 48 | 1012.9 |
| 20260902004938 | 81 | 256 | 0.0 | 0.0 | 0.00 | 0.00 | 0.00 | 48 | 1012.9 |
| 20260902004815 | 81 | 253 | 0.0 | 0.0 | 0.00 | 0.00 | 0.00 | 48 | 1012.9 |
| 20260902004805 | 81 | 253 | 0.0 | 0.0 | 0.00 | 0.00 | 0.00 | 47 | 1012.9 |
| 20260902004801 | 81 | 290 | 0.0 | 2.0 | 0.00 | 0.00 | 0.00 | 48 | 1013.5 |
| 20260902004626 | 81 | 253 | 0.0 | 0.0 | 0.00 | 0.00 | 0.00 | 48 | 1012.9 |
| 20260902004557 | 81 | 253 | 0.0 | 0.0 | 0.00 | 0.00 | 0.00 | 48 | 1012.9 |
| 20260902004526 | 81 | 253 | 0.0 | 0.0 | 0.00 | 0.00 | 0.00 | 49 | 1012.9 |
| 20260902004502 | 81 | 253 | 0.0 | 0.0 | 0.00 | 0.00 | 0.00 | 48 | 1012.9 |
| 20260902004426 | 81 | 253 | 0.0 | 0.0 | 0.00 | 0.00 | 0.00 | 48 | 1012.9 |
| 20260902004335 | 81 | 253 | 0.0 | 0.0 | 0.00 | 0.00 | 0.00 | 48 | 1012.9 |
| 20260902004328 | 81 | 253 | 0.0 | 0.0 | 0.00 | 0.00 | 0.00 | 48 | 1012.9 |
| 20260902004256 | 81 | 265 | 0.0 | 1.0 | 0.00 | 0.00 | 0.00 | 48 | 1013.7 |
| 20260902004226 | 81 | 253 | 0.0 | 0.0 | 0.00 | 0.00 | 0.00 | 48 | 1012.9 |
| 20260902004156 | 81 | 253 | 0.0 | 0.0 | 0.00 | 0.00 | 0.00 | 48 | 1012.9 |
| 20260902004143 | 82 | 199 | 0.0 | 0.0 | 0.00 | 0.00 | 0.00 | 47 | 1012.8 |
| 20260902004139 | 81 | 253 | 0.0 | 0.0 | 0.00 | 0.00 | 0.00 | 47 | 1012.9 |
| 20260902004125 | 81 | 253 | 0.0 | 0.0 | 0.00 | 0.00 | 0.00 | 47 | 1012.9 |
| 20260902004116 | 81 | 253 | 0.0 | 0.0 | 0.00 | 0.00 | 0.00 | 47 | 1012.9 |
| 20260902003827 | 81 | 253 | 0.0 | 2.0 | 0.00 | 0.00 | 0.00 | 47 | 1012.9 |
| 20260902003750 | 81 | 314 | 1.0 | 1.0 | 0.00 | 0.00 | 0.00 | 47 | 1014.0 |
| 20260902003742 | 82 | 199 | 0.0 | 0.0 | 0.00 | 0.00 | 0.00 | 47 | 1012.8 |
| 20260902003726 | 81 | 199 | 0.0 | 0.0 | 0.00 | 0.00 | 0.00 | 47 | 1012.8 |
| 20260902003659 | 81 | 199 | 0.0 | 0.0 | 0.00 | 0.00 | 0.00 | 48 | 1012.8 |
| 20260902003626 | 81 | 199 | 0.0 | 0.0 | 0.00 | 0.00 | 0.00 | 48 | 1012.8 |
| 20260902003611 | 82 | 199 | 0.0 | 0.0 | 0.00 | 0.00 | 0.00 | 47 | 1012.8 |
| 20260902003556 | 81 | 199 | 0.0 | 0.0 | 0.00 | 0.00 | 0.00 | 47 | 1012.8 |
| 20260902003540 | 82 | 199 | 0.0 | 0.0 | 0.00 | 0.00 | 0.00 | 47 | 1012.8 |
| 20260902003407 | 82 | 199 | 0.0 | 0.0 | 0.00 | 0.00 | 0.00 | 47 | 1012.8 |
| 20260902003246 | 82 | 224 | 2.0 | 2.0 | 0.00 | 0.00 | 0.00 | 47 | 1013.8 |
| 20260902003244 | 82 | 302 | 0.0 | 0.0 | 0.00 | 0.00 | 0.00 | 47 | 1013.1 |
| 20260902003240 | 82 | 199 | 0.0 | 0.0 | 0.00 | 0.00 | 0.00 | 47 | 1012.8 |
| 20260902003055 | 82 | 199 | 0.0 | 0.0 | 0.00 | 0.00 | 0.00 | 47 | 1012.8 |
| 20260902003027 | 82 | 199 | 0.0 | 0.0 | 0.00 | 0.00 | 0.00 | 48 | 1012.8 |
| 20260902003012 | 84 | 302 | 0.0 | 0.0 | 0.00 | 0.00 | 0.00 | 44 | 1013.1 |
| 20260902002956 | 82 | 199 | 0.0 | 0.0 | 0.00 | 0.00 | 0.00 | 48 | 1012.8 |
| 20260902002940 | 82 | 199 | 0.0 | 0.0 | 0.00 | 0.00 | 0.00 | 47 | 1012.8 |
| 20260902002906 | 82 | 302 | 0.0 | 0.0 | 0.00 | 0.00 | 0.00 | 46 | 1013.1 |
| 20260902002901 | 82 | 199 | 0.0 | 0.0 | 0.00 | 0.00 | 0.00 | 47 | 1012.8 |
| 20260902002843 | 82 | 199 | 0.0 | 1.0 | 0.00 | 0.00 | 0.00 | 47 | 1012.8 |
| 20260902002742 | 82 | 294 | 0.0 | 3.0 | 0.00 | 0.00 | 0.00 | 47 | 1013.9 |
| 20260902002704 | 82 | 302 | 0.0 | 0.0 | 0.00 | 0.00 | 0.00 | 47 | 1013.1 |
| 20260902002654 | 82 | 302 | 0.0 | 0.0 | 0.00 | 0.00 | 0.00 | 46 | 1013.1 |
| 20260902002644 | 82 | 302 | 0.0 | 0.0 | 0.00 | 0.00 | 0.00 | 46 | 1013.1 |
| 20260902002530 | 82 | 302 | 0.0 | 0.0 | 0.00 | 0.00 | 0.00 | 47 | 1013.1 |
| 20260902002520 | 82 | 302 | 0.0 | 0.0 | 0.00 | 0.00 | 0.00 | 47 | 1013.1 |
| 20260902002509 | 82 | 302 | 0.0 | 0.0 | 0.00 | 0.00 | 0.00 | 46 | 1013.1 |
| 20260902002326 | 82 | 302 | 0.0 | 0.0 | 0.00 | 0.00 | 0.00 | 46 | 1013.1 |
| 20260902002257 | 83 | 302 | 0.0 | 0.0 | 0.00 | 0.00 | 0.00 | 46 | 1013.1 |
| 20260902002236 | 83 | 243 | 3.0 | 3.0 | 0.00 | 0.00 | 0.00 | 45 | 1013.7 |
| 20260902002226 | 83 | 302 | 0.0 | 0.0 | 0.00 | 0.00 | 0.00 | 45 | 1013.1 |
| 20260902002126 | 83 | 302 | 0.0 | 0.0 | 0.00 | 0.00 | 0.00 | 45 | 1013.1 |
| 20260902002115 | 84 | 324 | 0.0 | 0.0 | 0.00 | 0.00 | 0.00 | 45 | 1013.0 |
| 20260902002045 | 83 | 302 | 0.0 | 0.0 | 0.00 | 0.00 | 0.00 | 45 | 1013.1 |
| 20260902002037 | 83 | 302 | 0.0 | 0.0 | 0.00 | 0.00 | 0.00 | 45 | 1013.1 |
| 20260902001856 | 84 | 302 | 0.0 | 0.0 | 0.00 | 0.00 | 0.00 | 45 | 1013.1 |
| 20260902001827 | 84 | 302 | 0.0 | 1.0 | 0.00 | 0.00 | 0.00 | 45 | 1013.1 |
| 20260902001810 | 84 | 324 | 0.0 | 0.0 | 0.00 | 0.00 | 0.00 | 45 | 1013.0 |
| 20260902001800 | 84 | 324 | 0.0 | 0.0 | 0.00 | 0.00 | 0.00 | 44 | 1013.0 |
| 20260902001750 | 84 | 324 | 0.0 | 0.0 | 0.00 | 0.00 | 0.00 | 44 | 1013.0 |
| 20260902001732 | 84 | 309 | 0.0 | 2.0 | 0.00 | 0.00 | 0.00 | 45 | 1013.7 |
| 20260902001526 | 84 | 324 | 0.0 | 0.0 | 0.00 | 0.00 | 0.00 | 44 | 1013.0 |
| 20260902001457 | 84 | 324 | 0.0 | 0.0 | 0.00 | 0.00 | 0.00 | 44 | 1013.0 |
| 20260902001425 | 85 | 324 | 0.0 | 0.0 | 0.00 | 0.00 | 0.00 | 44 | 1013.0 |
| 20260902001356 | 85 | 324 | 0.0 | 0.0 | 0.00 | 0.00 | 0.00 | 44 | 1013.0 |
| 20260902001326 | 85 | 324 | 0.0 | 0.0 | 0.00 | 0.00 | 0.00 | 43 | 1013.0 |
| 20260902001256 | 85 | 324 | 0.0 | 0.0 | 0.00 | 0.00 | 0.00 | 43 | 1013.0 |
| 20260902001231 | 86 | 132 | 0.0 | 2.0 | 0.00 | 0.00 | 0.00 | 43 | 1013.9 |
| 20260902001226 | 85 | 324 | 0.0 | 0.0 | 0.00 | 0.00 | 0.00 | 43 | 1013.0 |
| 20260902001126 | 86 | 324 | 0.0 | 0.0 | 0.00 | 0.00 | 0.00 | 43 | 1013.0 |
| 20260902001029 | 86 | 324 | 0.0 | 0.0 | 0.00 | 0.00 | 0.00 | 42 | 1013.0 |
| 20260902000955 | 87 | 324 | 0.0 | 0.0 | 0.00 | 0.00 | 0.00 | 42 | 1013.0 |
| 20260902000926 | 87 | 324 | 0.0 | 0.0 | 0.00 | 0.00 | 0.00 | 41 | 1013.0 |
| 20260902000856 | 87 | 324 | 0.0 | 0.0 | 0.00 | 0.00 | 0.00 | 42 | 1013.0 |
| 20260902000837 | 87 | 334 | 2.0 | 0.0 | 0.00 | 0.00 | 0.00 | 41 | 1012.7 |
| 20260902000829 | 87 | 324 | 0.0 | 3.0 | 0.00 | 0.00 | 0.00 | 41 | 1013.0 |
| 20260902000756 | 87 | 334 | 2.0 | 0.0 | 0.00 | 0.00 | 0.00 | 41 | 1012.7 |
| 20260902000726 | 87 | 334 | 2.0 | 0.0 | 0.00 | 0.00 | 0.00 | 40 | 1012.7 |
| 20260902000655 | 87 | 334 | 2.0 | 0.0 | 0.00 | 0.00 | 0.00 | 41 | 1012.7 |
| 20260902000627 | 87 | 334 | 2.0 | 0.0 | 0.00 | 0.00 | 0.00 | 40 | 1012.7 |
| 20260902000608 | 87 | 334 | 2.0 | 0.0 | 0.00 | 0.00 | 0.00 | 41 | 1012.7 |
| 20260902000534 | 87 | 334 | 2.0 | 0.0 | 0.00 | 0.00 | 0.00 | 41 | 1012.7 |
| 20260902000530 | 87 | 334 | 2.0 | 0.0 | 0.00 | 0.00 | 0.00 | 41 | 1012.7 |
| 20260902000520 | 87 | 334 | 2.0 | 0.0 | 0.00 | 0.00 | 0.00 | 40 | 1012.7 |
| 20260902000510 | 87 | 334 | 2.0 | 0.0 | 0.00 | 0.00 | 0.00 | 41 | 1012.7 |
| 20260902000326 | 87 | 334 | 2.0 | 0.0 | 0.00 | 0.00 | 0.00 | 41 | 1012.7 |
| 20260902000243 | 87 | 253 | 0.0 | 0.0 | 0.00 | 0.00 | 0.00 | 41 | 1012.8 |
| 20260902000226 | 87 | 334 | 2.0 | 0.0 | 0.00 | 0.00 | 0.00 | 41 | 1012.7 |
| 20260902000221 | 87 | 315 | 0.0 | 2.0 | 0.00 | 0.00 | 0.00 | 42 | 1013.8 |
| 20260902000158 | 87 | 334 | 2.0 | 0.0 | 0.00 | 0.00 | 0.00 | 42 | 1012.7 |
| 20260902000127 | 86 | 334 | 2.0 | 0.0 | 0.00 | 0.00 | 0.00 | 43 | 1012.7 |
| 20260902000113 | 87 | 253 | 0.0 | 0.0 | 0.00 | 0.00 | 0.00 | 40 | 1012.8 |
| 20260902000105 | 86 | 334 | 2.0 | 0.0 | 0.00 | 0.00 | 0.00 | 42 | 1012.7 |
| 20260902000039 | 87 | 334 | 2.0 | 0.0 | 0.00 | 0.00 | 0.00 | 42 | 1012.7 |
| 20260901235907 | 87 | 334 | 2.0 | 2.0 | 0.00 | 0.00 | 0.00 | 42 | 1012.7 |
| 20260901235726 | 87 | 253 | 0.0 | 0.0 | 0.00 | 0.00 | 0.00 | 41 | 1012.8 |
| 20260901235721 | 87 | 234 | 3.0 | 3.0 | 0.00 | 0.00 | 0.00 | 40 | 1013.7 |
| 20260901235641 | 87 | 253 | 0.0 | 0.0 | 0.00 | 0.00 | 0.00 | 40 | 1012.8 |
| 20260901235455 | 87 | 253 | 0.0 | 0.0 | 0.00 | 0.00 | 0.00 | 39 | 1012.8 |
| 20260901235443 | 88 | 253 | 0.0 | 0.0 | 0.00 | 0.00 | 0.00 | 39 | 1012.8 |
| 20260901235425 | 87 | 253 | 0.0 | 0.0 | 0.00 | 0.00 | 0.00 | 41 | 1012.8 |
| 20260901235329 | 88 | 253 | 0.0 | 1.0 | 0.00 | 0.00 | 0.00 | 41 | 1012.8 |
| 20260901235325 | 88 | 253 | 0.0 | 0.0 | 0.00 | 0.00 | 0.00 | 40 | 1012.8 |
| 20260901235255 | 88 | 253 | 0.0 | 0.0 | 0.00 | 0.00 | 0.00 | 40 | 1012.8 |
| 20260901235244 | 88 | 337 | 1.0 | 0.0 | 0.00 | 0.00 | 0.00 | 40 | 1012.9 |
| 20260901235229 | 88 | 253 | 0.0 | 0.0 | 0.00 | 0.00 | 0.00 | 41 | 1012.8 |
| 20260901235218 | 88 | 337 | 1.0 | 0.0 | 0.00 | 0.00 | 0.00 | 41 | 1012.9 |
| 20260901235216 | 87 | 333 | 0.0 | 3.0 | 0.00 | 0.00 | 0.00 | 41 | 1013.8 |
| 20260901235205 | 87 | 337 | 1.0 | 0.0 | 0.00 | 0.00 | 0.00 | 41 | 1012.9 |
| 20260901235201 | 88 | 253 | 0.0 | 0.0 | 0.00 | 0.00 | 0.00 | 40 | 1012.8 |
| 20260901235151 | 87 | 253 | 0.0 | 0.0 | 0.00 | 0.00 | 0.00 | 41 | 1012.8 |
| 20260901235126 | 87 | 253 | 0.0 | 0.0 | 0.00 | 0.00 | 0.00 | 41 | 1012.8 |
| 20260901235116 | 88 | 253 | 0.0 | 0.0 | 0.00 | 0.00 | 0.00 | 41 | 1012.8 |
| 20260901235105 | 88 | 253 | 0.0 | 0.0 | 0.00 | 0.00 | 0.00 | 40 | 1012.8 |
| 20260901234715 | 87 | 257 | 0.0 | 2.0 | 0.00 | 0.00 | 0.00 | 41 | 1013.7 |
| 20260901234646 | 87 | 337 | 1.0 | 0.0 | 0.00 | 0.00 | 0.00 | 41 | 1012.9 |
| 20260901234624 | 87 | 337 | 1.0 | 0.0 | 0.00 | 0.00 | 0.00 | 41 | 1012.9 |
| 20260901234614 | 87 | 337 | 1.0 | 0.0 | 0.00 | 0.00 | 0.00 | 42 | 1012.9 |
| 20260901234446 | 88 | 337 | 1.0 | 0.0 | 0.00 | 0.00 | 0.00 | 40 | 1012.9 |
| 20260901234442 | 87 | 337 | 1.0 | 0.0 | 0.00 | 0.00 | 0.00 | 41 | 1012.9 |
| 20260901234256 | 87 | 337 | 1.0 | 0.0 | 0.00 | 0.00 | 0.00 | 40 | 1012.9 |
| 20260901234228 | 87 | 337 | 1.0 | 0.0 | 0.00 | 0.00 | 0.00 | 41 | 1012.9 |
| 20260901234210 | 87 | 249 | 0.0 | 3.0 | 0.00 | 0.00 | 0.00 | 40 | 1013.9 |
| 20260901234144 | 89 | 301 | 2.0 | 0.0 | 0.00 | 0.00 | 0.00 | 38 | 1012.9 |
| 20260901234139 | 87 | 337 | 1.0 | 0.0 | 0.00 | 0.00 | 0.00 | 41 | 1012.9 |
| 20260901234124 | 87 | 337 | 1.0 | 0.0 | 0.00 | 0.00 | 0.00 | 40 | 1012.9 |
| 20260901233827 | 88 | 337 | 1.0 | 2.0 | 0.00 | 0.00 | 0.00 | 39 | 1012.9 |
| 20260901233756 | 89 | 301 | 2.0 | 0.0 | 0.00 | 0.00 | 0.00 | 40 | 1012.9 |
| 20260901233735 | 88 | 250 | 1.0 | 0.0 | 0.00 | 0.00 | 0.00 | 39 | 1012.9 |
| 20260901233725 | 89 | 301 | 2.0 | 0.0 | 0.00 | 0.00 | 0.00 | 39 | 1012.9 |
| 20260901233710 | 89 | 4 | 1.0 | 2.0 | 0.00 | 0.00 | 0.00 | 39 | 1013.8 |
| 20260901233642 | 86 | 250 | 1.0 | 0.0 | 0.00 | 0.00 | 0.00 | 42 | 1012.9 |
| 20260901233634 | 88 | 301 | 2.0 | 0.0 | 0.00 | 0.00 | 0.00 | 39 | 1012.9 |
| 20260901233626 | 89 | 301 | 2.0 | 0.0 | 0.00 | 0.00 | 0.00 | 39 | 1012.9 |
| 20260901233613 | 88 | 301 | 2.0 | 0.0 | 0.00 | 0.00 | 0.00 | 38 | 1012.9 |
| 20260901233607 | 88 | 301 | 2.0 | 0.0 | 0.00 | 0.00 | 0.00 | 38 | 1012.9 |
| 20260901233551 | 89 | 301 | 2.0 | 0.0 | 0.00 | 0.00 | 0.00 | 39 | 1012.9 |
| 20260901233541 | 89 | 301 | 2.0 | 0.0 | 0.00 | 0.00 | 0.00 | 39 | 1012.9 |
| 20260901233422 | 89 | 301 | 2.0 | 0.0 | 0.00 | 0.00 | 0.00 | 39 | 1012.9 |
| 20260901233411 | 88 | 301 | 2.0 | 0.0 | 0.00 | 0.00 | 0.00 | 40 | 1012.9 |
| 20260901233250 | 88 | 301 | 2.0 | 0.0 | 0.00 | 0.00 | 0.00 | 40 | 1012.9 |
| 20260901233236 | 88 | 301 | 2.0 | 0.0 | 0.00 | 0.00 | 0.00 | 40 | 1012.9 |
| 20260901233207 | 88 | 326 | 0.0 | 3.0 | 0.00 | 0.00 | 0.00 | 40 | 1013.7 |
| 20260901232835 | 88 | 250 | 1.0 | 0.0 | 0.00 | 0.00 | 0.00 | 41 | 1012.9 |
| 20260901232831 | 88 | 301 | 2.0 | 2.0 | 0.00 | 0.00 | 0.00 | 38 | 1012.9 |
| 20260901232819 | 87 | 250 | 1.0 | 0.0 | 0.00 | 0.00 | 0.00 | 38 | 1012.9 |
| 20260901232809 | 87 | 250 | 1.0 | 0.0 | 0.00 | 0.00 | 0.00 | 39 | 1012.9 |
| 20260901232707 | 88 | 272 | 2.0 | 3.0 | 0.00 | 0.00 | 0.00 | 40 | 1013.8 |
| 20260901232626 | 88 | 250 | 1.0 | 0.0 | 0.00 | 0.00 | 0.00 | 40 | 1012.9 |
| 20260901232605 | 87 | 250 | 1.0 | 0.0 | 0.00 | 0.00 | 0.00 | 41 | 1012.9 |
| 20260901232549 | 88 | 250 | 1.0 | 0.0 | 0.00 | 0.00 | 0.00 | 40 | 1012.9 |
| 20260901232540 | 88 | 250 | 1.0 | 0.0 | 0.00 | 0.00 | 0.00 | 40 | 1012.9 |
| 20260901232426 | 88 | 250 | 1.0 | 0.0 | 0.00 | 0.00 | 0.00 | 40 | 1012.9 |
| 20260901232416 | 88 | 250 | 1.0 | 0.0 | 0.00 | 0.00 | 0.00 | 40 | 1012.9 |
| 20260901232406 | 88 | 250 | 1.0 | 0.0 | 0.00 | 0.00 | 0.00 | 41 | 1012.9 |
| 20260901232246 | 87 | 261 | 0.0 | 0.0 | 0.00 | 0.00 | 0.00 | 41 | 1012.9 |
| 20260901232242 | 88 | 250 | 1.0 | 0.0 | 0.00 | 0.00 | 0.00 | 41 | 1012.9 |
| 20260901232202 | 87 | 284 | 0.0 | 2.0 | 0.00 | 0.00 | 0.00 | 41 | 1013.9 |
| 20260901232030 | 87 | 250 | 1.0 | 0.0 | 0.00 | 0.00 | 0.00 | 41 | 1012.9 |
| 20260901232013 | 88 | 261 | 0.0 | 0.0 | 0.00 | 0.00 | 0.00 | 41 | 1012.9 |
| 20260901232006 | 87 | 250 | 1.0 | 0.0 | 0.00 | 0.00 | 0.00 | 42 | 1012.9 |
| 20260901231843 | 86 | 250 | 1.0 | 2.0 | 0.00 | 0.00 | 0.00 | 42 | 1012.9 |
| 20260901231829 | 87 | 261 | 0.0 | 0.0 | 0.00 | 0.00 | 0.00 | 42 | 1012.9 |
| 20260901231806 | 87 | 261 | 0.0 | 0.0 | 0.00 | 0.00 | 0.00 | 41 | 1012.9 |
| 20260901231658 | 88 | 287 | 2.0 | 3.0 | 0.00 | 0.00 | 0.00 | 41 | 1013.8 |
| 20260901231638 | 88 | 261 | 0.0 | 0.0 | 0.00 | 0.00 | 0.00 | 41 | 1012.9 |
| 20260901231626 | 88 | 261 | 0.0 | 0.0 | 0.00 | 0.00 | 0.00 | 41 | 1012.9 |
| 20260901231541 | 88 | 261 | 0.0 | 0.0 | 0.00 | 0.00 | 0.00 | 41 | 1012.9 |
| 20260901231355 | 88 | 261 | 0.0 | 0.0 | 0.00 | 0.00 | 0.00 | 41 | 1012.9 |
| 20260901231328 | 88 | 261 | 0.0 | 0.0 | 0.00 | 0.00 | 0.00 | 40 | 1012.9 |
| 20260901231317 | 87 | 261 | 0.0 | 2.0 | 0.00 | 0.00 | 0.00 | 41 | 1012.9 |
| 20260901231307 | 88 | 261 | 0.0 | 0.0 | 0.00 | 0.00 | 0.00 | 40 | 1012.9 |
| 20260901231154 | 88 | 295 | 2.0 | 2.0 | 0.00 | 0.00 | 0.00 | 40 | 1013.8 |
| 20260901231125 | 88 | 261 | 0.0 | 0.0 | 0.00 | 0.00 | 0.00 | 40 | 1012.9 |
| 20260901231045 | 87 | 252 | 0.0 | 0.0 | 0.00 | 0.00 | 0.00 | 41 | 1013.0 |
| 20260901231028 | 87 | 261 | 0.0 | 0.0 | 0.00 | 0.00 | 0.00 | 41 | 1012.9 |
| 20260901230946 | 87 | 261 | 0.0 | 0.0 | 0.00 | 0.00 | 0.00 | 41 | 1012.9 |
| 20260901230937 | 87 | 261 | 0.0 | 0.0 | 0.00 | 0.00 | 0.00 | 41 | 1012.9 |
| 20260901230731 | 88 | 252 | 0.0 | 0.0 | 0.00 | 0.00 | 0.00 | 40 | 1013.0 |
| 20260901230727 | 87 | 252 | 0.0 | 0.0 | 0.00 | 0.00 | 0.00 | 41 | 1013.0 |
| 20260901230717 | 87 | 252 | 0.0 | 0.0 | 0.00 | 0.00 | 0.00 | 41 | 1013.0 |
| 20260901230707 | 88 | 252 | 0.0 | 0.0 | 0.00 | 0.00 | 0.00 | 41 | 1013.0 |
| 20260901230650 | 88 | 353 | 2.0 | 2.0 | 0.00 | 0.00 | 0.00 | 41 | 1013.9 |
| 20260901230528 | 87 | 252 | 0.0 | 0.0 | 0.00 | 0.00 | 0.00 | 41 | 1013.0 |
| 20260901230518 | 88 | 252 | 0.0 | 0.0 | 0.00 | 0.00 | 0.00 | 40 | 1013.0 |
| 20260901230506 | 88 | 252 | 0.0 | 1.0 | 0.00 | 0.00 | 0.00 | 40 | 1013.0 |
| 20260901230457 | 87 | 252 | 0.0 | 0.0 | 0.00 | 0.00 | 0.00 | 42 | 1013.0 |
| 20260901230447 | 88 | 324 | 0.0 | 0.0 | 0.00 | 0.00 | 0.00 | 39 | 1013.1 |
| 20260901230442 | 89 | 324 | 0.0 | 0.0 | 0.00 | 0.00 | 0.00 | 39 | 1013.1 |
| 20260901230433 | 89 | 324 | 0.0 | 0.0 | 0.00 | 0.00 | 0.00 | 39 | 1013.1 |
| 20260901230426 | 87 | 252 | 0.0 | 0.0 | 0.00 | 0.00 | 0.00 | 41 | 1013.0 |
| 20260901230414 | 88 | 324 | 0.0 | 0.0 | 0.00 | 0.00 | 0.00 | 39 | 1013.1 |
| 20260901230409 | 87 | 252 | 0.0 | 0.0 | 0.00 | 0.00 | 0.00 | 42 | 1013.0 |
| 20260901230359 | 87 | 252 | 0.0 | 0.0 | 0.00 | 0.00 | 0.00 | 41 | 1013.0 |
| 20260901230349 | 87 | 252 | 0.0 | 0.0 | 0.00 | 0.00 | 0.00 | 42 | 1013.0 |
| 20260901230338 | 87 | 252 | 0.0 | 0.0 | 0.00 | 0.00 | 0.00 | 41 | 1013.0 |
| 20260901230323 | 87 | 252 | 0.0 | 0.0 | 0.00 | 0.00 | 0.00 | 41 | 1013.0 |
| 20260901230312 | 87 | 252 | 0.0 | 0.0 | 0.00 | 0.00 | 0.00 | 41 | 1013.0 |
| 20260901230301 | 88 | 252 | 0.0 | 0.0 | 0.00 | 0.00 | 0.00 | 40 | 1013.0 |
| 20260901230149 | 87 | 326 | 4.0 | 4.0 | 0.00 | 0.00 | 0.00 | 41 | 1013.9 |
| 20260901225858 | 88 | 324 | 0.0 | 0.0 | 0.00 | 0.00 | 0.00 | 40 | 1013.1 |
| 20260901225848 | 88 | 324 | 0.0 | 0.0 | 0.00 | 0.00 | 0.00 | 39 | 1013.1 |
| 20260901225644 | 89 | 355 | 2.0 | 2.0 | 0.00 | 0.00 | 0.00 | 39 | 1014.0 |
| 20260901225606 | 89 | 324 | 0.0 | 0.0 | 0.00 | 0.00 | 0.00 | 39 | 1013.1 |
| 20260901225446 | 88 | 324 | 0.0 | 0.0 | 0.00 | 0.00 | 0.00 | 39 | 1013.1 |
| 20260901225436 | 88 | 324 | 0.0 | 0.0 | 0.00 | 0.00 | 0.00 | 40 | 1013.1 |
| 20260901225256 | 88 | 324 | 0.0 | 0.0 | 0.00 | 0.00 | 0.00 | 39 | 1013.1 |
| 20260901225225 | 89 | 324 | 0.0 | 0.0 | 0.00 | 0.00 | 0.00 | 39 | 1013.1 |
| 20260901225208 | 89 | 324 | 0.0 | 0.0 | 0.00 | 0.00 | 0.00 | 39 | 1013.1 |
| 20260901225139 | 89 | 307 | 2.0 | 3.0 | 0.00 | 0.00 | 0.00 | 39 | 1013.9 |
| 20260901225127 | 89 | 324 | 0.0 | 0.0 | 0.00 | 0.00 | 0.00 | 39 | 1013.1 |
| 20260901225104 | 90 | 177 | 1.0 | 0.0 | 0.00 | 0.00 | 0.00 | 39 | 1013.1 |
| 20260901225034 | 89 | 324 | 0.0 | 0.0 | 0.00 | 0.00 | 0.00 | 39 | 1013.1 |
| 20260901224955 | 89 | 324 | 0.0 | 0.0 | 0.00 | 0.00 | 0.00 | 39 | 1013.1 |
| 20260901224925 | 89 | 324 | 0.0 | 0.0 | 0.00 | 0.00 | 0.00 | 39 | 1013.1 |
| 20260901224855 | 89 | 324 | 0.0 | 0.0 | 0.00 | 0.00 | 0.00 | 38 | 1013.1 |
| 20260901224827 | 90 | 324 | 0.0 | 2.0 | 0.00 | 0.00 | 0.00 | 38 | 1013.1 |
| 20260901224746 | 90 | 177 | 1.0 | 0.0 | 0.00 | 0.00 | 0.00 | 39 | 1013.1 |
| 20260901224736 | 90 | 177 | 1.0 | 0.0 | 0.00 | 0.00 | 0.00 | 40 | 1013.1 |
| 20260901224636 | 90 | 164 | 0.0 | 2.0 | 0.00 | 0.00 | 0.00 | 39 | 1014.1 |
| 20260901224557 | 90 | 177 | 1.0 | 0.0 | 0.00 | 0.00 | 0.00 | 40 | 1013.1 |
| 20260901224526 | 89 | 177 | 1.0 | 0.0 | 0.00 | 0.00 | 0.00 | 39 | 1013.1 |
| 20260901224455 | 89 | 177 | 1.0 | 0.0 | 0.00 | 0.00 | 0.00 | 39 | 1013.1 |
| 20260901224425 | 89 | 177 | 1.0 | 0.0 | 0.00 | 0.00 | 0.00 | 40 | 1013.1 |
| 20260901224413 | 89 | 177 | 1.0 | 0.0 | 0.00 | 0.00 | 0.00 | 31 | 1013.1 |
| 20260901224357 | 89 | 177 | 1.0 | 0.0 | 0.00 | 0.00 | 0.00 | 39 | 1013.1 |
| 20260901224326 | 89 | 177 | 1.0 | 0.0 | 0.00 | 0.00 | 0.00 | 39 | 1013.1 |
| 20260901224257 | 90 | 177 | 1.0 | 0.0 | 0.00 | 0.00 | 0.00 | 39 | 1013.1 |
| 20260901224232 | 88 | 177 | 1.0 | 3.0 | 0.00 | 0.00 | 0.00 | 30 | 1013.1 |
| 20260901224226 | 90 | 177 | 1.0 | 0.0 | 0.00 | 0.00 | 0.00 | 38 | 1013.1 |
| 20260901224156 | 90 | 177 | 1.0 | 0.0 | 0.00 | 0.00 | 0.00 | 38 | 1013.1 |
| 20260901224132 | 89 | 299 | 0.0 | 4.0 | 0.00 | 0.00 | 0.00 | 37 | 1014.0 |
| 20260901224125 | 89 | 177 | 1.0 | 0.0 | 0.00 | 0.00 | 0.00 | 37 | 1013.1 |
| 20260901224058 | 89 | 177 | 1.0 | 0.0 | 0.00 | 0.00 | 0.00 | 37 | 1013.1 |
| 20260901224047 | 90 | 177 | 1.0 | 0.0 | 0.00 | 0.00 | 0.00 | 36 | 1013.1 |
| 20260901224036 | 89 | 177 | 1.0 | 0.0 | 0.00 | 0.00 | 0.00 | 32 | 1013.1 |
| 20260901223910 | 89 | 177 | 1.0 | 0.0 | 0.00 | 0.00 | 0.00 | 28 | 1013.1 |
| 20260901223726 | 88 | 200 | 3.0 | 0.0 | 0.00 | 0.00 | 0.00 | 21 | 1013.0 |
| 20260901223655 | 88 | 200 | 3.0 | 0.0 | 0.00 | 0.00 | 0.00 | 22 | 1013.0 |
| 20260901223627 | 88 | 161 | 0.0 | 5.0 | 0.00 | 0.00 | 0.00 | 21 | 1014.1 |
| 20260901223530 | 88 | 200 | 3.0 | 0.0 | 0.00 | 0.00 | 0.00 | 22 | 1013.0 |
| 20260901223526 | 88 | 200 | 3.0 | 0.0 | 0.00 | 0.00 | 0.00 | 21 | 1013.0 |
| 20260901223457 | 88 | 200 | 3.0 | 0.0 | 0.00 | 0.00 | 0.00 | 21 | 1013.0 |
| 20260901223427 | 88 | 200 | 3.0 | 0.0 | 0.00 | 0.00 | 0.00 | 22 | 1013.0 |
| 20260901223344 | 87 | 200 | 3.0 | 0.0 | 0.00 | 0.00 | 0.00 | 22 | 1013.0 |
| 20260901223326 | 88 | 200 | 3.0 | 0.0 | 0.00 | 0.00 | 0.00 | 22 | 1013.0 |
| 20260901223256 | 88 | 200 | 3.0 | 0.0 | 0.00 | 0.00 | 0.00 | 22 | 1013.0 |
| 20260901223233 | 87 | 200 | 3.0 | 3.0 | 0.00 | 0.00 | 0.00 | 22 | 1013.0 |
| 20260901223226 | 88 | 200 | 3.0 | 0.0 | 0.00 | 0.00 | 0.00 | 22 | 1013.0 |
| 20260901223208 | 87 | 173 | 2.0 | 0.0 | 0.00 | 0.00 | 0.00 | 22 | 1013.2 |
| 20260901223159 | 88 | 200 | 3.0 | 0.0 | 0.00 | 0.00 | 0.00 | 22 | 1013.0 |
| 20260901223122 | 88 | 162 | 2.0 | 6.0 | 0.00 | 0.00 | 0.00 | 22 | 1014.1 |
| 20260901223030 | 88 | 200 | 3.0 | 0.0 | 0.00 | 0.00 | 0.00 | 22 | 1013.0 |
| 20260901223020 | 88 | 200 | 3.0 | 0.0 | 0.00 | 0.00 | 0.00 | 21 | 1013.0 |
| 20260901222725 | 87 | 173 | 2.0 | 0.0 | 0.00 | 0.00 | 0.00 | 22 | 1013.2 |
| 20260901222658 | 87 | 173 | 2.0 | 0.0 | 0.00 | 0.00 | 0.00 | 22 | 1013.2 |
| 20260901222647 | 88 | 173 | 2.0 | 0.0 | 0.00 | 0.00 | 0.00 | 22 | 1013.2 |
| 20260901222626 | 87 | 173 | 2.0 | 0.0 | 0.00 | 0.00 | 0.00 | 23 | 1013.2 |
| 20260901222618 | 86 | 199 | 2.0 | 6.0 | 0.00 | 0.00 | 0.00 | 22 | 1014.1 |
| 20260901222555 | 87 | 173 | 2.0 | 0.0 | 0.00 | 0.00 | 0.00 | 22 | 1013.2 |
| 20260901222538 | 86 | 173 | 2.0 | 0.0 | 0.00 | 0.00 | 0.00 | 22 | 1013.2 |
| 20260901222508 | 87 | 202 | 5.0 | 0.0 | 0.00 | 0.00 | 0.00 | 22 | 1013.3 |
| 20260901222458 | 86 | 173 | 2.0 | 0.0 | 0.00 | 0.00 | 0.00 | 22 | 1013.2 |
| 20260901222333 | 87 | 173 | 2.0 | 0.0 | 0.00 | 0.00 | 0.00 | 22 | 1013.2 |
| 20260901222322 | 88 | 173 | 2.0 | 0.0 | 0.00 | 0.00 | 0.00 | 22 | 1013.2 |
| 20260901222125 | 87 | 173 | 2.0 | 0.0 | 0.00 | 0.00 | 0.00 | 23 | 1013.2 |
| 20260901222114 | 87 | 264 | 1.0 | 6.0 | 0.00 | 0.00 | 0.00 | 23 | 1014.3 |
| 20260901222056 | 87 | 173 | 2.0 | 0.0 | 0.00 | 0.00 | 0.00 | 22 | 1013.2 |
| 20260901222045 | 87 | 202 | 5.0 | 0.0 | 0.00 | 0.00 | 0.00 | 23 | 1013.3 |
| 20260901222030 | 87 | 173 | 2.0 | 0.0 | 0.00 | 0.00 | 0.00 | 23 | 1013.2 |
| 20260901222007 | 87 | 202 | 5.0 | 0.0 | 0.00 | 0.00 | 0.00 | 23 | 1013.3 |
| 20260901221959 | 87 | 173 | 2.0 | 0.0 | 0.00 | 0.00 | 0.00 | 22 | 1013.2 |
| 20260901221948 | 87 | 202 | 5.0 | 0.0 | 0.00 | 0.00 | 0.00 | 23 | 1013.3 |
| 20260901221937 | 87 | 173 | 2.0 | 0.0 | 0.00 | 0.00 | 0.00 | 23 | 1013.2 |
| 20260901221922 | 87 | 173 | 2.0 | 0.0 | 0.00 | 0.00 | 0.00 | 23 | 1013.2 |
| 20260901221910 | 87 | 173 | 2.0 | 6.0 | 0.00 | 0.00 | 0.00 | 23 | 1013.2 |
| 20260901221737 | 87 | 202 | 5.0 | 0.0 | 0.00 | 0.00 | 0.00 | 23 | 1013.3 |
| 20260901221610 | 87 | 139 | 3.0 | 6.0 | 0.00 | 0.00 | 0.00 | 23 | 1014.1 |
| 20260901221449 | 86 | 202 | 5.0 | 0.0 | 0.00 | 0.00 | 0.00 | 23 | 1013.3 |
| 20260901221439 | 86 | 202 | 5.0 | 0.0 | 0.00 | 0.00 | 0.00 | 24 | 1013.3 |
| 20260901221227 | 87 | 202 | 5.0 | 0.0 | 0.00 | 0.00 | 0.00 | 23 | 1013.3 |
| 20260901221156 | 87 | 202 | 5.0 | 0.0 | 0.00 | 0.00 | 0.00 | 23 | 1013.3 |
| 20260901221125 | 87 | 202 | 5.0 | 0.0 | 0.00 | 0.00 | 0.00 | 23 | 1013.3 |
| 20260901221105 | 87 | 195 | 2.0 | 4.0 | 0.00 | 0.00 | 0.00 | 23 | 1014.4 |
| 20260901221040 | 87 | 202 | 5.0 | 0.0 | 0.00 | 0.00 | 0.00 | 23 | 1013.3 |
| 20260901220956 | 87 | 202 | 5.0 | 0.0 | 0.00 | 0.00 | 0.00 | 23 | 1013.3 |
| 20260901220926 | 87 | 202 | 5.0 | 0.0 | 0.00 | 0.00 | 0.00 | 23 | 1013.3 |
| 20260901220905 | 87 | 205 | 5.0 | 0.0 | 0.00 | 0.00 | 0.00 | 23 | 1013.2 |
| 20260901220858 | 87 | 202 | 5.0 | 0.0 | 0.00 | 0.00 | 0.00 | 23 | 1013.3 |
| 20260901220825 | 87 | 202 | 5.0 | 0.0 | 0.00 | 0.00 | 0.00 | 23 | 1013.3 |
| 20260901220758 | 87 | 202 | 5.0 | 5.0 | 0.00 | 0.00 | 0.00 | 22 | 1013.3 |
| 20260901220741 | 87 | 205 | 5.0 | 0.0 | 0.00 | 0.00 | 0.00 | 23 | 1013.2 |
| 20260901220727 | 87 | 205 | 5.0 | 0.0 | 0.00 | 0.00 | 0.00 | 22 | 1013.2 |
| 20260901220656 | 88 | 205 | 5.0 | 0.0 | 0.00 | 0.00 | 0.00 | 22 | 1013.2 |
| 20260901220625 | 88 | 205 | 5.0 | 0.0 | 0.00 | 0.00 | 0.00 | 23 | 1013.2 |
| 20260901220604 | 87 | 128 | 2.0 | 4.0 | 0.00 | 0.00 | 0.00 | 23 | 1014.2 |
| 20260901220548 | 87 | 205 | 5.0 | 0.0 | 0.00 | 0.00 | 0.00 | 23 | 1013.2 |
| 20260901220544 | 87 | 205 | 5.0 | 0.0 | 0.00 | 0.00 | 0.00 | 23 | 1013.2 |
| 20260901220419 | 87 | 205 | 5.0 | 0.0 | 0.00 | 0.00 | 0.00 | 23 | 1013.2 |
| 20260901220408 | 87 | 205 | 5.0 | 0.0 | 0.00 | 0.00 | 0.00 | 24 | 1013.2 |
| 20260901220226 | 87 | 205 | 5.0 | 0.0 | 0.00 | 0.00 | 0.00 | 23 | 1013.2 |
| 20260901220147 | 87 | 180 | 3.0 | 0.0 | 0.00 | 0.00 | 0.00 | 23 | 1013.5 |
| 20260901220143 | 87 | 205 | 5.0 | 0.0 | 0.00 | 0.00 | 0.00 | 23 | 1013.2 |
| 20260901220103 | 87 | 290 | 0.0 | 6.0 | 0.00 | 0.00 | 0.00 | 24 | 1014.3 |
| 20260901220002 | 87 | 205 | 5.0 | 0.0 | 0.00 | 0.00 | 0.00 | 24 | 1013.2 |
| 20260901215925 | 87 | 205 | 5.0 | 0.0 | 0.00 | 0.00 | 0.00 | 24 | 1013.2 |
| 20260901215856 | 87 | 205 | 5.0 | 0.0 | 0.00 | 0.00 | 0.00 | 23 | 1013.2 |
| 20260901215826 | 87 | 205 | 5.0 | 0.0 | 0.00 | 0.00 | 0.00 | 24 | 1013.2 |
| 20260901215814 | 87 | 180 | 3.0 | 0.0 | 0.00 | 0.00 | 0.00 | 23 | 1013.5 |
| 20260901215757 | 86 | 205 | 5.0 | 6.0 | 0.00 | 0.00 | 0.00 | 24 | 1013.2 |
| 20260901215726 | 86 | 180 | 3.0 | 0.0 | 0.00 | 0.00 | 0.00 | 25 | 1013.5 |
| 20260901215714 | 86 | 180 | 3.0 | 0.0 | 0.00 | 0.00 | 0.00 | 23 | 1013.5 |
| 20260901215707 | 86 | 180 | 3.0 | 0.0 | 0.00 | 0.00 | 0.00 | 24 | 1013.5 |
| 20260901215601 | 86 | 109 | 0.0 | 4.0 | 0.00 | 0.00 | 0.00 | 23 | 1014.3 |
| 20260901215526 | 87 | 180 | 3.0 | 0.0 | 0.00 | 0.00 | 0.00 | 23 | 1013.5 |
| 20260901215513 | 87 | 180 | 3.0 | 0.0 | 0.00 | 0.00 | 0.00 | 23 | 1013.5 |
| 20260901215506 | 87 | 180 | 3.0 | 0.0 | 0.00 | 0.00 | 0.00 | 24 | 1013.5 |
| 20260901215442 | 87 | 180 | 3.0 | 0.0 | 0.00 | 0.00 | 0.00 | 23 | 1013.5 |
| 20260901215314 | 87 | 180 | 3.0 | 0.0 | 0.00 | 0.00 | 0.00 | 23 | 1013.5 |
| 20260901215306 | 87 | 180 | 3.0 | 0.0 | 0.00 | 0.00 | 0.00 | 23 | 1013.5 |
| 20260901215132 | 86 | 180 | 3.0 | 0.0 | 0.00 | 0.00 | 0.00 | 24 | 1013.5 |
| 20260901215122 | 86 | 180 | 3.0 | 0.0 | 0.00 | 0.00 | 0.00 | 24 | 1013.5 |
| 20260901215056 | 86 | 172 | 1.0 | 11.0 | 0.00 | 0.00 | 0.00 | 24 | 1014.5 |
| 20260901214825 | 87 | 180 | 3.0 | 0.0 | 0.00 | 0.00 | 0.00 | 23 | 1013.5 |
| 20260901214757 | 87 | 180 | 3.0 | 5.0 | 0.00 | 0.00 | 0.00 | 24 | 1013.5 |
| 20260901214725 | 87 | 211 | 7.0 | 0.0 | 0.00 | 0.00 | 0.00 | 23 | 1013.6 |
| 20260901214626 | 87 | 211 | 7.0 | 0.0 | 0.00 | 0.00 | 0.00 | 22 | 1013.6 |
| 20260901214557 | 87 | 211 | 7.0 | 0.0 | 0.00 | 0.00 | 0.00 | 21 | 1013.6 |
| 20260901214555 | 87 | 212 | 0.0 | 2.0 | 0.00 | 0.00 | 0.00 | 21 | 1014.4 |
| 20260901214544 | 87 | 211 | 7.0 | 0.0 | 0.00 | 0.00 | 0.00 | 22 | 1013.6 |
| 20260901214525 | 86 | 211 | 7.0 | 0.0 | 0.00 | 0.00 | 0.00 | 22 | 1013.6 |
| 20260901214456 | 86 | 211 | 7.0 | 0.0 | 0.00 | 0.00 | 0.00 | 21 | 1013.6 |
| 20260901214425 | 86 | 211 | 7.0 | 0.0 | 0.00 | 0.00 | 0.00 | 21 | 1013.6 |
| 20260901214356 | 87 | 211 | 7.0 | 0.0 | 0.00 | 0.00 | 0.00 | 21 | 1013.6 |
| 20260901214326 | 87 | 211 | 7.0 | 0.0 | 0.00 | 0.00 | 0.00 | 21 | 1013.6 |
| 20260901214226 | 87 | 211 | 7.0 | 0.0 | 0.00 | 0.00 | 0.00 | 21 | 1013.6 |
| 20260901214216 | 87 | 207 | 5.0 | 0.0 | 0.00 | 0.00 | 0.00 | 20 | 1013.8 |
| 20260901214206 | 87 | 211 | 7.0 | 0.0 | 0.00 | 0.00 | 0.00 | 22 | 1013.6 |
| 20260901214049 | 87 | 208 | 5.0 | 5.0 | 0.00 | 0.00 | 0.00 | 22 | 1014.6 |
| 20260901214031 | 87 | 211 | 7.0 | 0.0 | 0.00 | 0.00 | 0.00 | 22 | 1013.6 |
| 20260901213957 | 86 | 211 | 7.0 | 0.0 | 0.00 | 0.00 | 0.00 | 22 | 1013.6 |
| 20260901213938 | 86 | 207 | 5.0 | 0.0 | 0.00 | 0.00 | 0.00 | 22 | 1013.8 |
| 20260901213926 | 87 | 211 | 7.0 | 0.0 | 0.00 | 0.00 | 0.00 | 22 | 1013.6 |
| 20260901213857 | 87 | 211 | 7.0 | 0.0 | 0.00 | 0.00 | 0.00 | 22 | 1013.6 |
| 20260901213826 | 87 | 211 | 7.0 | 0.0 | 0.00 | 0.00 | 0.00 | 22 | 1013.6 |
| 20260901213757 | 87 | 211 | 7.0 | 8.0 | 0.00 | 0.00 | 0.00 | 21 | 1013.6 |
| 20260901213743 | 87 | 207 | 5.0 | 0.0 | 0.00 | 0.00 | 0.00 | 19 | 1013.8 |
| 20260901213616 | 87 | 207 | 5.0 | 0.0 | 0.00 | 0.00 | 0.00 | 21 | 1013.8 |
| 20260901213607 | 86 | 207 | 5.0 | 0.0 | 0.00 | 0.00 | 0.00 | 22 | 1013.8 |
| 20260901213543 | 87 | 255 | 2.0 | 4.0 | 0.00 | 0.00 | 0.00 | 20 | 1014.6 |
| 20260901213425 | 86 | 207 | 5.0 | 0.0 | 0.00 | 0.00 | 0.00 | 22 | 1013.8 |
| 20260901213326 | 86 | 207 | 5.0 | 0.0 | 0.00 | 0.00 | 0.00 | 21 | 1013.8 |
| 20260901213238 | 87 | 207 | 5.0 | 5.0 | 0.00 | 0.00 | 0.00 | 20 | 1013.8 |
| 20260901213226 | 86 | 207 | 5.0 | 0.0 | 0.00 | 0.00 | 0.00 | 21 | 1013.8 |
| 20260901213156 | 86 | 207 | 5.0 | 0.0 | 0.00 | 0.00 | 0.00 | 21 | 1013.8 |
| 20260901213125 | 86 | 207 | 5.0 | 0.0 | 0.00 | 0.00 | 0.00 | 21 | 1013.8 |
| 20260901213037 | 86 | 169 | 5.0 | 8.0 | 0.00 | 0.00 | 0.00 | 21 | 1014.5 |
| 20260901213028 | 86 | 207 | 5.0 | 0.0 | 0.00 | 0.00 | 0.00 | 21 | 1013.8 |
| 20260901212956 | 86 | 207 | 5.0 | 0.0 | 0.00 | 0.00 | 0.00 | 21 | 1013.8 |
| 20260901212926 | 87 | 207 | 5.0 | 0.0 | 0.00 | 0.00 | 0.00 | 21 | 1013.8 |
| 20260901212907 | 87 | 207 | 5.0 | 0.0 | 0.00 | 0.00 | 0.00 | 20 | 1013.8 |
| 20260901212726 | 87 | 188 | 2.0 | 0.0 | 0.00 | 0.00 | 0.00 | 20 | 1013.7 |
| 20260901212637 | 86 | 188 | 2.0 | 0.0 | 0.00 | 0.00 | 0.00 | 21 | 1013.7 |
| 20260901212626 | 87 | 188 | 2.0 | 0.0 | 0.00 | 0.00 | 0.00 | 20 | 1013.7 |
| 20260901212555 | 88 | 188 | 2.0 | 0.0 | 0.00 | 0.00 | 0.00 | 20 | 1013.7 |
| 20260901212531 | 87 | 227 | 1.0 | 4.0 | 0.00 | 0.00 | 0.00 | 21 | 1014.7 |
| 20260901212525 | 87 | 188 | 2.0 | 0.0 | 0.00 | 0.00 | 0.00 | 21 | 1013.7 |
| 20260901212455 | 87 | 188 | 2.0 | 0.0 | 0.00 | 0.00 | 0.00 | 21 | 1013.7 |
| 20260901212426 | 87 | 188 | 2.0 | 0.0 | 0.00 | 0.00 | 0.00 | 22 | 1013.7 |
| 20260901212355 | 87 | 188 | 2.0 | 0.0 | 0.00 | 0.00 | 0.00 | 22 | 1013.7 |
| 20260901212326 | 87 | 188 | 2.0 | 0.0 | 0.00 | 0.00 | 0.00 | 21 | 1013.7 |
| 20260901212306 | 87 | 188 | 2.0 | 0.0 | 0.00 | 0.00 | 0.00 | 22 | 1013.7 |
| 20260901212126 | 86 | 188 | 2.0 | 0.0 | 0.00 | 0.00 | 0.00 | 21 | 1013.7 |
| 20260901212030 | 86 | 188 | 2.0 | 0.0 | 0.00 | 0.00 | 0.00 | 21 | 1013.7 |
| 20260901212028 | 86 | 190 | 3.0 | 5.0 | 0.00 | 0.00 | 0.00 | 21 | 1014.5 |
| 20260901211956 | 85 | 188 | 2.0 | 0.0 | 0.00 | 0.00 | 0.00 | 21 | 1013.7 |
| 20260901211925 | 85 | 188 | 2.0 | 0.0 | 0.00 | 0.00 | 0.00 | 21 | 1013.7 |
| 20260901211911 | 86 | 231 | 4.0 | 0.0 | 0.00 | 0.00 | 0.00 | 21 | 1013.9 |
| 20260901211826 | 85 | 188 | 2.0 | 0.0 | 0.00 | 0.00 | 0.00 | 21 | 1013.7 |
| 20260901211757 | 86 | 188 | 2.0 | 8.0 | 0.00 | 0.00 | 0.00 | 21 | 1013.7 |
| 20260901211725 | 86 | 231 | 4.0 | 0.0 | 0.00 | 0.00 | 0.00 | 21 | 1013.9 |
| 20260901211655 | 86 | 231 | 4.0 | 0.0 | 0.00 | 0.00 | 0.00 | 21 | 1013.9 |
| 20260901211625 | 86 | 231 | 4.0 | 0.0 | 0.00 | 0.00 | 0.00 | 21 | 1013.9 |
| 20260901211600 | 86 | 231 | 4.0 | 0.0 | 0.00 | 0.00 | 0.00 | 22 | 1013.9 |
| 20260901211540 | 86 | 231 | 4.0 | 0.0 | 0.00 | 0.00 | 0.00 | 21 | 1013.9 |
| 20260901211523 | 85 | 203 | 0.0 | 9.0 | 0.00 | 0.00 | 0.00 | 22 | 1014.8 |
| 20260901211357 | 87 | 231 | 4.0 | 0.0 | 0.00 | 0.00 | 0.00 | 21 | 1013.9 |
| 20260901211326 | 87 | 231 | 4.0 | 0.0 | 0.00 | 0.00 | 0.00 | 21 | 1013.9 |
| 20260901211256 | 86 | 231 | 4.0 | 0.0 | 0.00 | 0.00 | 0.00 | 22 | 1013.9 |
| 20260901211226 | 86 | 231 | 4.0 | 0.0 | 0.00 | 0.00 | 0.00 | 22 | 1013.9 |
| 20260901211213 | 86 | 198 | 5.0 | 0.0 | 0.00 | 0.00 | 0.00 | 22 | 1014.1 |
| 20260901211206 | 86 | 231 | 4.0 | 0.0 | 0.00 | 0.00 | 0.00 | 22 | 1013.9 |
| 20260901211029 | 86 | 231 | 4.0 | 0.0 | 0.00 | 0.00 | 0.00 | 22 | 1013.9 |
| 20260901211019 | 87 | 191 | 2.0 | 3.0 | 0.00 | 0.00 | 0.00 | 20 | 1014.7 |
| 20260901210925 | 86 | 231 | 4.0 | 0.0 | 0.00 | 0.00 | 0.00 | 22 | 1013.9 |
| 20260901210846 | 86 | 231 | 4.0 | 0.0 | 0.00 | 0.00 | 0.00 | 22 | 1013.9 |
| 20260901210836 | 86 | 231 | 4.0 | 4.0 | 0.00 | 0.00 | 0.00 | 22 | 1013.9 |
| 20260901210654 | 86 | 198 | 5.0 | 0.0 | 0.00 | 0.00 | 0.00 | 22 | 1014.1 |
| 20260901210624 | 86 | 198 | 5.0 | 0.0 | 0.00 | 0.00 | 0.00 | 25 | 1014.1 |
| 20260901210555 | 86 | 198 | 5.0 | 0.0 | 0.00 | 0.00 | 0.00 | 25 | 1014.1 |
| 20260901210542 | 86 | 198 | 5.0 | 0.0 | 0.00 | 0.00 | 0.00 | 21 | 1014.1 |
| 20260901210525 | 86 | 198 | 5.0 | 0.0 | 0.00 | 0.00 | 0.00 | 25 | 1014.1 |
| 20260901210514 | 86 | 259 | 1.0 | 7.0 | 0.00 | 0.00 | 0.00 | 25 | 1014.8 |
| 20260901210424 | 86 | 198 | 5.0 | 0.0 | 0.00 | 0.00 | 0.00 | 25 | 1014.1 |
| 20260901210325 | 86 | 198 | 5.0 | 0.0 | 0.00 | 0.00 | 0.00 | 22 | 1014.1 |
| 20260901210245 | 86 | 198 | 5.0 | 0.0 | 0.00 | 0.00 | 0.00 | 21 | 1014.1 |
| 20260901210233 | 86 | 198 | 5.0 | 0.0 | 0.00 | 0.00 | 0.00 | 21 | 1014.1 |
| 20260901210027 | 86 | 198 | 5.0 | 0.0 | 0.00 | 0.00 | 0.00 | 21 | 1014.1 |
| 20260901210011 | 86 | 206 | 0.0 | 7.0 | 0.00 | 0.00 | 0.00 | 22 | 1014.9 |
| 20260901205954 | 86 | 198 | 5.0 | 0.0 | 0.00 | 0.00 | 0.00 | 21 | 1014.1 |
| 20260901205924 | 86 | 198 | 5.0 | 0.0 | 0.00 | 0.00 | 0.00 | 21 | 1014.1 |
| 20260901205825 | 86 | 198 | 5.0 | 0.0 | 0.00 | 0.00 | 0.00 | 23 | 1014.1 |
| 20260901205756 | 86 | 198 | 5.0 | 6.0 | 0.00 | 0.00 | 0.00 | 23 | 1014.1 |
| 20260901205725 | 86 | 215 | 5.0 | 0.0 | 0.00 | 0.00 | 0.00 | 23 | 1014.1 |
| 20260901205624 | 86 | 215 | 5.0 | 0.0 | 0.00 | 0.00 | 0.00 | 23 | 1014.1 |
| 20260901205557 | 86 | 215 | 5.0 | 0.0 | 0.00 | 0.00 | 0.00 | 23 | 1014.1 |
| 20260901205525 | 86 | 215 | 5.0 | 0.0 | 0.00 | 0.00 | 0.00 | 23 | 1014.1 |
| 20260901205505 | 86 | 123 | 2.0 | 7.0 | 0.00 | 0.00 | 0.00 | 23 | 1014.9 |
| 20260901205425 | 86 | 215 | 5.0 | 0.0 | 0.00 | 0.00 | 0.00 | 23 | 1014.1 |
| 20260901205400 | 86 | 215 | 5.0 | 0.0 | 0.00 | 0.00 | 0.00 | 22 | 1014.1 |
| 20260901205355 | 86 | 215 | 5.0 | 0.0 | 0.00 | 0.00 | 0.00 | 23 | 1014.1 |
| 20260901205325 | 85 | 215 | 5.0 | 0.0 | 0.00 | 0.00 | 0.00 | 20 | 1014.1 |
| 20260901205254 | 85 | 215 | 5.0 | 0.0 | 0.00 | 0.00 | 0.00 | 20 | 1014.1 |
| 20260901205224 | 85 | 215 | 5.0 | 0.0 | 0.00 | 0.00 | 0.00 | 20 | 1014.1 |
| 20260901205212 | 86 | 237 | 2.0 | 0.0 | 0.00 | 0.00 | 0.00 | 23 | 1014.2 |
| 20260901205156 | 85 | 215 | 5.0 | 0.0 | 0.00 | 0.00 | 0.00 | 20 | 1014.1 |
| 20260901205125 | 86 | 215 | 5.0 | 0.0 | 0.00 | 0.00 | 0.00 | 22 | 1014.1 |
| 20260901205042 | 86 | 215 | 5.0 | 0.0 | 0.00 | 0.00 | 0.00 | 22 | 1014.1 |
| 20260901205000 | 86 | 202 | 7.0 | 7.0 | 0.00 | 0.00 | 0.00 | 21 | 1014.8 |
| 20260901204848 | 86 | 215 | 5.0 | 0.0 | 0.00 | 0.00 | 0.00 | 22 | 1014.1 |
| 20260901204838 | 86 | 215 | 5.0 | 9.0 | 0.00 | 0.00 | 0.00 | 23 | 1014.1 |
| 20260901204629 | 87 | 237 | 2.0 | 0.0 | 0.00 | 0.00 | 0.00 | 22 | 1014.2 |
| 20260901204625 | 86 | 237 | 2.0 | 0.0 | 0.00 | 0.00 | 0.00 | 23 | 1014.2 |
| 20260901204554 | 86 | 237 | 2.0 | 0.0 | 0.00 | 0.00 | 0.00 | 24 | 1014.2 |
| 20260901204524 | 86 | 237 | 2.0 | 0.0 | 0.00 | 0.00 | 0.00 | 23 | 1014.2 |
| 20260901204457 | 86 | 230 | 2.0 | 6.0 | 0.00 | 0.00 | 0.00 | 23 | 1014.9 |
| 20260901204426 | 87 | 237 | 2.0 | 0.0 | 0.00 | 0.00 | 0.00 | 22 | 1014.2 |
| 20260901204416 | 86 | 237 | 2.0 | 0.0 | 0.00 | 0.00 | 0.00 | 22 | 1014.2 |
| 20260901204356 | 87 | 237 | 2.0 | 0.0 | 0.00 | 0.00 | 0.00 | 22 | 1014.2 |
| 20260901204325 | 87 | 237 | 2.0 | 0.0 | 0.00 | 0.00 | 0.00 | 22 | 1014.2 |
| 20260901204312 | 86 | 237 | 2.0 | 3.0 | 0.00 | 0.00 | 0.00 | 22 | 1014.2 |
| 20260901204305 | 87 | 237 | 2.0 | 0.0 | 0.00 | 0.00 | 0.00 | 22 | 1014.2 |
| 20260901204129 | 87 | 237 | 2.0 | 0.0 | 0.00 | 0.00 | 0.00 | 22 | 1014.2 |
| 20260901204108 | 86 | 249 | 0.0 | 0.0 | 0.00 | 0.00 | 0.00 | 22 | 1014.3 |
| 20260901204046 | 86 | 237 | 2.0 | 0.0 | 0.00 | 0.00 | 0.00 | 22 | 1014.2 |
| 20260901203955 | 86 | 217 | 1.0 | 5.0 | 0.00 | 0.00 | 0.00 | 22 | 1015.0 |
| 20260901203914 | 85 | 249 | 0.0 | 0.0 | 0.00 | 0.00 | 0.00 | 22 | 1014.3 |
| 20260901203907 | 86 | 237 | 2.0 | 0.0 | 0.00 | 0.00 | 0.00 | 22 | 1014.2 |
| 20260901203728 | 85 | 249 | 0.0 | 0.0 | 0.00 | 0.00 | 0.00 | 23 | 1014.3 |
| 20260901203724 | 86 | 249 | 0.0 | 0.0 | 0.00 | 0.00 | 0.00 | 22 | 1014.3 |
| 20260901203714 | 85 | 249 | 0.0 | 0.0 | 0.00 | 0.00 | 0.00 | 22 | 1014.3 |
| 20260901203704 | 86 | 249 | 0.0 | 0.0 | 0.00 | 0.00 | 0.00 | 22 | 1014.3 |
| 20260901203529 | 85 | 249 | 0.0 | 0.0 | 0.00 | 0.00 | 0.00 | 24 | 1014.3 |
| 20260901203525 | 86 | 249 | 0.0 | 0.0 | 0.00 | 0.00 | 0.00 | 22 | 1014.3 |
| 20260901203515 | 86 | 249 | 0.0 | 0.0 | 0.00 | 0.00 | 0.00 | 23 | 1014.3 |
| 20260901203505 | 85 | 249 | 0.0 | 0.0 | 0.00 | 0.00 | 0.00 | 22 | 1014.3 |
| 20260901203451 | 86 | 239 | 3.0 | 5.0 | 0.00 | 0.00 | 0.00 | 23 | 1014.8 |
| 20260901203325 | 85 | 249 | 0.0 | 0.0 | 0.00 | 0.00 | 0.00 | 23 | 1014.3 |
| 20260901203312 | 85 | 262 | 0.0 | 0.0 | 0.00 | 0.00 | 0.00 | 29 | 1014.5 |
| 20260901203304 | 85 | 249 | 0.0 | 0.0 | 0.00 | 0.00 | 0.00 | 23 | 1014.3 |
| 20260901203127 | 85 | 249 | 0.0 | 0.0 | 0.00 | 0.00 | 0.00 | 24 | 1014.3 |
| 20260901203118 | 85 | 249 | 0.0 | 0.0 | 0.00 | 0.00 | 0.00 | 24 | 1014.3 |
| 20260901203107 | 85 | 249 | 0.0 | 0.0 | 0.00 | 0.00 | 0.00 | 23 | 1014.3 |
| 20260901202946 | 85 | 233 | 3.0 | 6.0 | 0.00 | 0.00 | 0.00 | 28 | 1015.0 |
| 20260901202935 | 84 | 262 | 0.0 | 0.0 | 0.00 | 0.00 | 0.00 | 30 | 1014.5 |
| 20260901202925 | 85 | 249 | 0.0 | 0.0 | 0.00 | 0.00 | 0.00 | 24 | 1014.3 |
| 20260901202856 | 85 | 249 | 0.0 | 0.0 | 0.00 | 0.00 | 0.00 | 28 | 1014.3 |
| 20260901202846 | 85 | 249 | 0.0 | 0.0 | 0.00 | 0.00 | 0.00 | 29 | 1014.3 |
| 20260901202836 | 85 | 249 | 0.0 | 1.0 | 0.00 | 0.00 | 0.00 | 29 | 1014.3 |
| 20260901202655 | 85 | 262 | 0.0 | 0.0 | 0.00 | 0.00 | 0.00 | 29 | 1014.5 |
| 20260901202625 | 85 | 262 | 0.0 | 0.0 | 0.00 | 0.00 | 0.00 | 30 | 1014.5 |
| 20260901202613 | 84 | 262 | 0.0 | 0.0 | 0.00 | 0.00 | 0.00 | 31 | 1014.5 |
| 20260901202605 | 85 | 262 | 0.0 | 0.0 | 0.00 | 0.00 | 0.00 | 30 | 1014.5 |
| 20260901202442 | 84 | 223 | 0.0 | 5.0 | 0.00 | 0.00 | 0.00 | 30 | 1015.1 |
| 20260901202426 | 84 | 262 | 0.0 | 0.0 | 0.00 | 0.00 | 0.00 | 30 | 1014.5 |
| 20260901202356 | 84 | 262 | 0.0 | 0.0 | 0.00 | 0.00 | 0.00 | 30 | 1014.5 |
| 20260901202331 | 84 | 262 | 0.0 | 0.0 | 0.00 | 0.00 | 0.00 | 31 | 1014.5 |
| 20260901202324 | 84 | 262 | 0.0 | 0.0 | 0.00 | 0.00 | 0.00 | 30 | 1014.5 |
| 20260901202255 | 84 | 262 | 0.0 | 0.0 | 0.00 | 0.00 | 0.00 | 30 | 1014.5 |
| 20260901202224 | 84 | 262 | 0.0 | 0.0 | 0.00 | 0.00 | 0.00 | 30 | 1014.5 |
| 20260901202133 | 84 | 262 | 0.0 | 0.0 | 0.00 | 0.00 | 0.00 | 30 | 1014.5 |
| 20260901202119 | 84 | 262 | 0.0 | 0.0 | 0.00 | 0.00 | 0.00 | 30 | 1014.5 |
| 20260901201937 | 84 | 222 | 4.0 | 8.0 | 0.00 | 0.00 | 0.00 | 31 | 1015.1 |
| 20260901201824 | 84 | 262 | 0.0 | 0.0 | 0.00 | 0.00 | 0.00 | 31 | 1014.5 |
| 20260901201755 | 84 | 262 | 0.0 | 2.0 | 0.00 | 0.00 | 0.00 | 31 | 1014.5 |
| 20260901201725 | 84 | 235 | 1.0 | 0.0 | 0.00 | 0.00 | 0.00 | 31 | 1014.6 |
| 20260901201654 | 84 | 235 | 1.0 | 0.0 | 0.00 | 0.00 | 0.00 | 31 | 1014.6 |
| 20260901201625 | 84 | 235 | 1.0 | 0.0 | 0.00 | 0.00 | 0.00 | 32 | 1014.6 |
| 20260901201555 | 84 | 235 | 1.0 | 0.0 | 0.00 | 0.00 | 0.00 | 32 | 1014.6 |
| 20260901201530 | 82 | 304 | 0.0 | 0.0 | 0.00 | 0.00 | 0.00 | 37 | 1014.5 |
| 20260901201525 | 84 | 235 | 1.0 | 0.0 | 0.00 | 0.00 | 0.00 | 32 | 1014.6 |
| 20260901201432 | 84 | 217 | 4.0 | 6.0 | 0.00 | 0.00 | 0.00 | 32 | 1015.3 |
| 20260901201425 | 84 | 235 | 1.0 | 0.0 | 0.00 | 0.00 | 0.00 | 32 | 1014.6 |
| 20260901201338 | 84 | 235 | 1.0 | 0.0 | 0.00 | 0.00 | 0.00 | 34 | 1014.6 |
| 20260901201325 | 84 | 235 | 1.0 | 0.0 | 0.00 | 0.00 | 0.00 | 32 | 1014.6 |
| 20260901201255 | 84 | 235 | 1.0 | 0.0 | 0.00 | 0.00 | 0.00 | 34 | 1014.6 |
| 20260901201224 | 83 | 235 | 1.0 | 0.0 | 0.00 | 0.00 | 0.00 | 34 | 1014.6 |
| 20260901201210 | 82 | 304 | 0.0 | 0.0 | 0.00 | 0.00 | 0.00 | 37 | 1014.5 |
| 20260901201151 | 83 | 235 | 1.0 | 0.0 | 0.00 | 0.00 | 0.00 | 34 | 1014.6 |
| 20260901201142 | 83 | 235 | 1.0 | 0.0 | 0.00 | 0.00 | 0.00 | 34 | 1014.6 |
| 20260901201028 | 84 | 235 | 1.0 | 0.0 | 0.00 | 0.00 | 0.00 | 34 | 1014.6 |
| 20260901201016 | 84 | 235 | 1.0 | 0.0 | 0.00 | 0.00 | 0.00 | 33 | 1014.6 |
| 20260901201005 | 84 | 235 | 1.0 | 0.0 | 0.00 | 0.00 | 0.00 | 34 | 1014.6 |
| 20260901200931 | 84 | 221 | 3.0 | 4.0 | 0.00 | 0.00 | 0.00 | 34 | 1015.4 |
| 20260901200825 | 84 | 235 | 1.0 | 0.0 | 0.00 | 0.00 | 0.00 | 35 | 1014.6 |
| 20260901200756 | 84 | 235 | 1.0 | 3.0 | 0.00 | 0.00 | 0.00 | 35 | 1014.6 |
| 20260901200740 | 83 | 304 | 0.0 | 0.0 | 0.00 | 0.00 | 0.00 | 35 | 1014.5 |
| 20260901200727 | 83 | 304 | 0.0 | 0.0 | 0.00 | 0.00 | 0.00 | 36 | 1014.5 |
| 20260901200608 | 83 | 304 | 0.0 | 0.0 | 0.00 | 0.00 | 0.00 | 35 | 1014.5 |
| 20260901200559 | 83 | 304 | 0.0 | 0.0 | 0.00 | 0.00 | 0.00 | 36 | 1014.5 |
| 20260901200537 | 83 | 304 | 0.0 | 0.0 | 0.00 | 0.00 | 0.00 | 37 | 1014.5 |
| 20260901200427 | 82 | 162 | 1.0 | 4.0 | 0.00 | 0.00 | 0.00 | 37 | 1015.4 |
| 20260901200325 | 82 | 304 | 0.0 | 0.0 | 0.00 | 0.00 | 0.00 | 37 | 1014.5 |
| 20260901200236 | 83 | 291 | 2.0 | 0.0 | 0.00 | 0.00 | 0.00 | 37 | 1014.8 |
| 20260901200232 | 82 | 304 | 0.0 | 0.0 | 0.00 | 0.00 | 0.00 | 37 | 1014.5 |
| 20260901200218 | 82 | 304 | 0.0 | 0.0 | 0.00 | 0.00 | 0.00 | 38 | 1014.5 |
| 20260901200026 | 82 | 304 | 0.0 | 0.0 | 0.00 | 0.00 | 0.00 | 37 | 1014.5 |
| 20260901195955 | 82 | 304 | 0.0 | 0.0 | 0.00 | 0.00 | 0.00 | 37 | 1014.5 |
| 20260901195926 | 83 | 149 | 0.0 | 4.0 | 0.00 | 0.00 | 0.00 | 38 | 1015.6 |
| 20260901195924 | 83 | 304 | 0.0 | 0.0 | 0.00 | 0.00 | 0.00 | 38 | 1014.5 |
| 20260901195832 | 83 | 291 | 2.0 | 0.0 | 0.00 | 0.00 | 0.00 | 39 | 1014.8 |
| 20260901195828 | 83 | 304 | 0.0 | 0.0 | 0.00 | 0.00 | 0.00 | 38 | 1014.5 |
| 20260901195818 | 82 | 304 | 0.0 | 3.0 | 0.00 | 0.00 | 0.00 | 38 | 1014.5 |
| 20260901195806 | 82 | 291 | 2.0 | 0.0 | 0.00 | 0.00 | 0.00 | 38 | 1014.8 |
| 20260901195624 | 83 | 291 | 2.0 | 0.0 | 0.00 | 0.00 | 0.00 | 37 | 1014.8 |
| 20260901195607 | 83 | 291 | 2.0 | 0.0 | 0.00 | 0.00 | 0.00 | 38 | 1014.8 |
| 20260901195526 | 82 | 291 | 2.0 | 0.0 | 0.00 | 0.00 | 0.00 | 38 | 1014.8 |
| 20260901195424 | 82 | 291 | 2.0 | 0.0 | 0.00 | 0.00 | 0.00 | 39 | 1014.8 |
| 20260901195414 | 83 | 291 | 2.0 | 0.0 | 0.00 | 0.00 | 0.00 | 38 | 1014.8 |
| 20260901195404 | 83 | 291 | 2.0 | 0.0 | 0.00 | 0.00 | 0.00 | 39 | 1014.8 |
| 20260901195225 | 83 | 291 | 2.0 | 0.0 | 0.00 | 0.00 | 0.00 | 39 | 1014.8 |
| 20260901195155 | 83 | 291 | 2.0 | 0.0 | 0.00 | 0.00 | 0.00 | 40 | 1014.8 |
| 20260901195125 | 83 | 291 | 2.0 | 0.0 | 0.00 | 0.00 | 0.00 | 40 | 1014.8 |
| 20260901195028 | 82 | 291 | 2.0 | 0.0 | 0.00 | 0.00 | 0.00 | 40 | 1014.8 |
| 20260901195000 | 82 | 291 | 2.0 | 0.0 | 0.00 | 0.00 | 0.00 | 39 | 1014.8 |
| 20260901194934 | 82 | 207 | 5.0 | 0.0 | 0.00 | 0.00 | 0.00 | 40 | 1014.8 |
| 20260901194925 | 82 | 291 | 2.0 | 0.0 | 0.00 | 0.00 | 0.00 | 39 | 1014.8 |
| 20260901194920 | 83 | 151 | 4.0 | 4.0 | 0.00 | 0.00 | 0.00 | 39 | 1015.8 |
| 20260901194856 | 83 | 291 | 2.0 | 0.0 | 0.00 | 0.00 | 0.00 | 39 | 1014.8 |
| 20260901194824 | 83 | 291 | 2.0 | 0.0 | 0.00 | 0.00 | 0.00 | 39 | 1014.8 |
| 20260901194803 | 82 | 207 | 5.0 | 0.0 | 0.00 | 0.00 | 0.00 | 41 | 1014.8 |
| 20260901194757 | 83 | 291 | 2.0 | 5.0 | 0.00 | 0.00 | 0.00 | 39 | 1014.8 |
| 20260901194725 | 83 | 207 | 5.0 | 0.0 | 0.00 | 0.00 | 0.00 | 39 | 1014.8 |
| 20260901194625 | 83 | 207 | 5.0 | 0.0 | 0.00 | 0.00 | 0.00 | 39 | 1014.8 |
| 20260901194606 | 83 | 207 | 5.0 | 0.0 | 0.00 | 0.00 | 0.00 | 40 | 1014.8 |
| 20260901194446 | 81 | 207 | 5.0 | 0.0 | 0.00 | 0.00 | 0.00 | 42 | 1014.8 |
| 20260901194442 | 82 | 207 | 5.0 | 0.0 | 0.00 | 0.00 | 0.00 | 40 | 1014.8 |
| 20260901194414 | 82 | 124 | 0.0 | 2.0 | 0.00 | 0.00 | 0.00 | 41 | 1015.6 |
| 20260901194254 | 82 | 207 | 5.0 | 0.0 | 0.00 | 0.00 | 0.00 | 41 | 1014.8 |
| 20260901194225 | 82 | 207 | 5.0 | 0.0 | 0.00 | 0.00 | 0.00 | 42 | 1014.8 |
| 20260901194200 | 83 | 239 | 0.0 | 0.0 | 0.00 | 0.00 | 0.00 | 40 | 1015.0 |
| 20260901194155 | 82 | 207 | 5.0 | 0.0 | 0.00 | 0.00 | 0.00 | 42 | 1014.8 |
| 20260901194130 | 81 | 207 | 5.0 | 0.0 | 0.00 | 0.00 | 0.00 | 41 | 1014.8 |
| 20260901194120 | 81 | 207 | 5.0 | 0.0 | 0.00 | 0.00 | 0.00 | 41 | 1014.8 |
| 20260901194108 | 81 | 207 | 5.0 | 0.0 | 0.00 | 0.00 | 0.00 | 42 | 1014.8 |
| 20260901193925 | 81 | 207 | 5.0 | 0.0 | 0.00 | 0.00 | 0.00 | 42 | 1014.8 |
| 20260901193911 | 81 | 128 | 2.0 | 10.0 | 0.00 | 0.00 | 0.00 | 42 | 1015.8 |
| 20260901193847 | 82 | 207 | 5.0 | 0.0 | 0.00 | 0.00 | 0.00 | 42 | 1014.8 |
| 20260901193837 | 82 | 207 | 5.0 | 6.0 | 0.00 | 0.00 | 0.00 | 42 | 1014.8 |
| 20260901193656 | 83 | 239 | 0.0 | 0.0 | 0.00 | 0.00 | 0.00 | 40 | 1015.0 |
| 20260901193625 | 83 | 239 | 0.0 | 0.0 | 0.00 | 0.00 | 0.00 | 40 | 1015.0 |
| 20260901193529 | 82 | 239 | 0.0 | 0.0 | 0.00 | 0.00 | 0.00 | 42 | 1015.0 |
| 20260901193525 | 83 | 239 | 0.0 | 0.0 | 0.00 | 0.00 | 0.00 | 41 | 1015.0 |
| 20260901193456 | 83 | 239 | 0.0 | 0.0 | 0.00 | 0.00 | 0.00 | 40 | 1015.0 |
| 20260901193424 | 83 | 239 | 0.0 | 0.0 | 0.00 | 0.00 | 0.00 | 40 | 1015.0 |
| 20260901193410 | 84 | 245 | 1.0 | 1.0 | 0.00 | 0.00 | 0.00 | 41 | 1015.7 |
| 20260901193355 | 83 | 239 | 0.0 | 0.0 | 0.00 | 0.00 | 0.00 | 41 | 1015.0 |
| 20260901193334 | 83 | 239 | 0.0 | 0.0 | 0.00 | 0.00 | 0.00 | 41 | 1015.0 |
| 20260901193324 | 83 | 239 | 0.0 | 0.0 | 0.00 | 0.00 | 0.00 | 41 | 1015.0 |
| 20260901193242 | 82 | 241 | 2.0 | 0.0 | 0.00 | 0.00 | 0.00 | 41 | 1015.2 |
| 20260901193238 | 83 | 239 | 0.0 | 0.0 | 0.00 | 0.00 | 0.00 | 41 | 1015.0 |
| 20260901193215 | 82 | 239 | 0.0 | 0.0 | 0.00 | 0.00 | 0.00 | 42 | 1015.0 |
| 20260901193205 | 82 | 239 | 0.0 | 0.0 | 0.00 | 0.00 | 0.00 | 41 | 1015.0 |
| 20260901193032 | 81 | 241 | 2.0 | 0.0 | 0.00 | 0.00 | 0.00 | 43 | 1015.2 |
| 20260901193028 | 82 | 239 | 0.0 | 0.0 | 0.00 | 0.00 | 0.00 | 43 | 1015.0 |
| 20260901193016 | 82 | 239 | 0.0 | 0.0 | 0.00 | 0.00 | 0.00 | 41 | 1015.0 |
| 20260901193006 | 83 | 239 | 0.0 | 0.0 | 0.00 | 0.00 | 0.00 | 41 | 1015.0 |
| 20260901192909 | 83 | 250 | 0.0 | 2.0 | 0.00 | 0.00 | 0.00 | 40 | 1015.9 |
| 20260901192825 | 83 | 239 | 0.0 | 0.0 | 0.00 | 0.00 | 0.00 | 40 | 1015.0 |
| 20260901192756 | 82 | 239 | 0.0 | 0.0 | 0.00 | 0.00 | 0.00 | 40 | 1015.0 |
| 20260901192741 | 82 | 241 | 2.0 | 0.0 | 0.00 | 0.00 | 0.00 | 41 | 1015.2 |
| 20260901192554 | 82 | 241 | 2.0 | 0.0 | 0.00 | 0.00 | 0.00 | 41 | 1015.2 |
| 20260901192540 | 81 | 241 | 2.0 | 0.0 | 0.00 | 0.00 | 0.00 | 43 | 1015.2 |
| 20260901192410 | 81 | 241 | 2.0 | 0.0 | 0.00 | 0.00 | 0.00 | 43 | 1015.2 |
| 20260901192406 | 81 | 240 | 2.0 | 6.0 | 0.00 | 0.00 | 0.00 | 44 | 1015.8 |
| 20260901192354 | 81 | 241 | 2.0 | 0.0 | 0.00 | 0.00 | 0.00 | 45 | 1015.2 |
| 20260901192324 | 80 | 241 | 2.0 | 0.0 | 0.00 | 0.00 | 0.00 | 44 | 1015.2 |
| 20260901192256 | 80 | 241 | 2.0 | 0.0 | 0.00 | 0.00 | 0.00 | 44 | 1015.2 |
| 20260901192224 | 80 | 241 | 2.0 | 0.0 | 0.00 | 0.00 | 0.00 | 43 | 1015.2 |
| 20260901192207 | 80 | 241 | 2.0 | 0.0 | 0.00 | 0.00 | 0.00 | 43 | 1015.2 |
| 20260901192135 | 81 | 82 | 2.0 | 0.0 | 0.00 | 0.00 | 0.00 | 43 | 1015.2 |
| 20260901192125 | 80 | 241 | 2.0 | 0.0 | 0.00 | 0.00 | 0.00 | 43 | 1015.2 |
| 20260901192055 | 81 | 241 | 2.0 | 0.0 | 0.00 | 0.00 | 0.00 | 43 | 1015.2 |
| 20260901191901 | 81 | 204 | 5.0 | 5.0 | 0.00 | 0.00 | 0.00 | 43 | 1015.9 |
| 20260901191827 | 81 | 241 | 2.0 | 0.0 | 0.00 | 0.00 | 0.00 | 43 | 1015.2 |
| 20260901191817 | 81 | 241 | 2.0 | 3.0 | 0.00 | 0.00 | 0.00 | 44 | 1015.2 |
| 20260901191805 | 81 | 82 | 2.0 | 0.0 | 0.00 | 0.00 | 0.00 | 44 | 1015.2 |
| 20260901191625 | 81 | 82 | 2.0 | 0.0 | 0.00 | 0.00 | 0.00 | 42 | 1015.2 |
| 20260901191556 | 81 | 82 | 2.0 | 0.0 | 0.00 | 0.00 | 0.00 | 42 | 1015.2 |
| 20260901191525 | 81 | 82 | 2.0 | 0.0 | 0.00 | 0.00 | 0.00 | 43 | 1015.2 |
| 20260901191507 | 82 | 82 | 2.0 | 0.0 | 0.00 | 0.00 | 0.00 | 42 | 1015.2 |
| 20260901191427 | 81 | 82 | 2.0 | 0.0 | 0.00 | 0.00 | 0.00 | 42 | 1015.2 |
| 20260901191356 | 81 | 227 | 2.0 | 5.0 | 0.00 | 0.00 | 0.00 | 41 | 1015.8 |
| 20260901191331 | 79 | 82 | 2.0 | 0.0 | 0.00 | 0.00 | 0.00 | 47 | 1015.2 |
| 20260901191325 | 81 | 82 | 2.0 | 0.0 | 0.00 | 0.00 | 0.00 | 41 | 1015.2 |
| 20260901191255 | 81 | 82 | 2.0 | 0.0 | 0.00 | 0.00 | 0.00 | 41 | 1015.2 |
| 20260901191226 | 81 | 82 | 2.0 | 0.0 | 0.00 | 0.00 | 0.00 | 42 | 1015.2 |
| 20260901191125 | 80 | 82 | 2.0 | 0.0 | 0.00 | 0.00 | 0.00 | 44 | 1015.2 |
| 20260901191033 | 80 | 180 | 4.0 | 0.0 | 0.00 | 0.00 | 0.00 | 48 | 1015.3 |
| 20260901191029 | 80 | 82 | 2.0 | 0.0 | 0.00 | 0.00 | 0.00 | 46 | 1015.2 |
| 20260901191016 | 80 | 82 | 2.0 | 0.0 | 0.00 | 0.00 | 0.00 | 47 | 1015.2 |
| 20260901191005 | 79 | 82 | 2.0 | 0.0 | 0.00 | 0.00 | 0.00 | 47 | 1015.2 |
| 20260901190853 | 79 | 59 | 1.0 | 6.0 | 0.00 | 0.00 | 0.00 | 47 | 1016.0 |
| 20260901190826 | 79 | 82 | 2.0 | 0.0 | 0.00 | 0.00 | 0.00 | 47 | 1015.2 |
| 20260901190756 | 79 | 82 | 2.0 | 5.0 | 0.00 | 0.00 | 0.00 | 46 | 1015.2 |
| 20260901190725 | 79 | 180 | 4.0 | 0.0 | 0.00 | 0.00 | 0.00 | 47 | 1015.3 |
| 20260901190654 | 79 | 180 | 4.0 | 0.0 | 0.00 | 0.00 | 0.00 | 47 | 1015.3 |
| 20260901190639 | 80 | 180 | 4.0 | 0.0 | 0.00 | 0.00 | 0.00 | 48 | 1015.3 |
| 20260901190632 | 79 | 180 | 4.0 | 0.0 | 0.00 | 0.00 | 0.00 | 47 | 1015.3 |
| 20260901190628 | 79 | 180 | 4.0 | 0.0 | 0.00 | 0.00 | 0.00 | 48 | 1015.3 |
| 20260901190617 | 79 | 180 | 4.0 | 0.0 | 0.00 | 0.00 | 0.00 | 48 | 1015.3 |
| 20260901190554 | 80 | 180 | 4.0 | 0.0 | 0.00 | 0.00 | 0.00 | 48 | 1015.3 |
| 20260901190409 | 79 | 180 | 4.0 | 0.0 | 0.00 | 0.00 | 0.00 | 45 | 1015.3 |
| 20260901190353 | 80 | 10 | 1.0 | 4.0 | 0.00 | 0.00 | 0.00 | 48 | 1015.9 |
| 20260901190345 | 80 | 180 | 4.0 | 0.0 | 0.00 | 0.00 | 0.00 | 48 | 1015.3 |
| 20260901190317 | 80 | 180 | 4.0 | 0.0 | 0.00 | 0.00 | 0.00 | 48 | 1015.3 |
| 20260901190145 | 79 | 231 | 1.0 | 0.0 | 0.00 | 0.00 | 0.00 | 45 | 1015.2 |
| 20260901190141 | 80 | 180 | 4.0 | 0.0 | 0.00 | 0.00 | 0.00 | 47 | 1015.3 |
| 20260901190130 | 80 | 180 | 4.0 | 0.0 | 0.00 | 0.00 | 0.00 | 48 | 1015.3 |
| 20260901190120 | 79 | 180 | 4.0 | 0.0 | 0.00 | 0.00 | 0.00 | 47 | 1015.3 |
| 20260901185851 | 79 | 201 | 2.0 | 4.0 | 0.00 | 0.00 | 0.00 | 46 | 1016.0 |
| 20260901185824 | 79 | 180 | 4.0 | 0.0 | 0.00 | 0.00 | 0.00 | 46 | 1015.3 |
| 20260901185805 | 79 | 231 | 1.0 | 0.0 | 0.00 | 0.00 | 0.00 | 51 | 1015.2 |
| 20260901185756 | 79 | 180 | 4.0 | 4.0 | 0.00 | 0.00 | 0.00 | 46 | 1015.3 |
| 20260901185725 | 79 | 231 | 1.0 | 0.0 | 0.00 | 0.00 | 0.00 | 46 | 1015.2 |
| 20260901185655 | 79 | 231 | 1.0 | 0.0 | 0.00 | 0.00 | 0.00 | 46 | 1015.2 |
| 20260901185639 | 79 | 231 | 1.0 | 0.0 | 0.00 | 0.00 | 0.00 | 45 | 1015.2 |
| 20260901185501 | 79 | 231 | 1.0 | 0.0 | 0.00 | 0.00 | 0.00 | 45 | 1015.2 |
| 20260901185449 | 79 | 231 | 1.0 | 0.0 | 0.00 | 0.00 | 0.00 | 47 | 1015.2 |
| 20260901185437 | 79 | 231 | 1.0 | 0.0 | 0.00 | 0.00 | 0.00 | 49 | 1015.2 |
| 20260901185350 | 79 | 260 | 2.0 | 4.0 | 0.00 | 0.00 | 0.00 | 52 | 1016.0 |
| 20260901185255 | 79 | 231 | 1.0 | 0.0 | 0.00 | 0.00 | 0.00 | 52 | 1015.2 |
| 20260901185226 | 78 | 231 | 1.0 | 0.0 | 0.00 | 0.00 | 0.00 | 52 | 1015.2 |
| 20260901185125 | 78 | 231 | 1.0 | 0.0 | 0.00 | 0.00 | 0.00 | 52 | 1015.2 |
| 20260901185055 | 78 | 231 | 1.0 | 0.0 | 0.00 | 0.00 | 0.00 | 51 | 1015.2 |
| 20260901185045 | 79 | 114 | 0.0 | 0.0 | 0.00 | 0.00 | 0.00 | 50 | 1015.4 |
| 20260901185026 | 79 | 231 | 1.0 | 0.0 | 0.00 | 0.00 | 0.00 | 51 | 1015.2 |
| 20260901184936 | 79 | 114 | 0.0 | 0.0 | 0.00 | 0.00 | 0.00 | 51 | 1015.4 |
| 20260901184927 | 79 | 231 | 1.0 | 0.0 | 0.00 | 0.00 | 0.00 | 51 | 1015.2 |
| 20260901184845 | 80 | 214 | 0.0 | 3.0 | 0.00 | 0.00 | 0.00 | 50 | 1016.2 |
| 20260901184825 | 80 | 231 | 1.0 | 0.0 | 0.00 | 0.00 | 0.00 | 50 | 1015.2 |
| 20260901184756 | 80 | 231 | 1.0 | 3.0 | 0.00 | 0.00 | 0.00 | 50 | 1015.2 |
| 20260901184740 | 78 | 114 | 0.0 | 0.0 | 0.00 | 0.00 | 0.00 | 53 | 1015.4 |
| 20260901184736 | 79 | 114 | 0.0 | 0.0 | 0.00 | 0.00 | 0.00 | 50 | 1015.4 |
| 20260901184721 | 79 | 114 | 0.0 | 0.0 | 0.00 | 0.00 | 0.00 | 50 | 1015.4 |
| 20260901184424 | 79 | 114 | 0.0 | 0.0 | 0.00 | 0.00 | 0.00 | 51 | 1015.4 |
| 20260901184354 | 79 | 114 | 0.0 | 0.0 | 0.00 | 0.00 | 0.00 | 50 | 1015.4 |
| 20260901184341 | 79 | 230 | 0.0 | 2.0 | 0.00 | 0.00 | 0.00 | 53 | 1016.2 |
| 20260901184324 | 79 | 114 | 0.0 | 0.0 | 0.00 | 0.00 | 0.00 | 53 | 1015.4 |
| 20260901184243 | 78 | 114 | 0.0 | 0.0 | 0.00 | 0.00 | 0.00 | 54 | 1015.4 |
| 20260901184235 | 78 | 114 | 0.0 | 0.0 | 0.00 | 0.00 | 0.00 | 54 | 1015.4 |
| 20260901184055 | 78 | 114 | 0.0 | 0.0 | 0.00 | 0.00 | 0.00 | 54 | 1015.4 |
| 20260901184025 | 78 | 114 | 0.0 | 0.0 | 0.00 | 0.00 | 0.00 | 53 | 1015.4 |
| 20260901183925 | 77 | 114 | 0.0 | 0.0 | 0.00 | 0.00 | 0.00 | 53 | 1015.4 |
| 20260901183903 | 76 | 121 | 0.0 | 0.0 | 0.00 | 0.00 | 0.00 | 53 | 1015.4 |
| 20260901183855 | 77 | 114 | 0.0 | 0.0 | 0.00 | 0.00 | 0.00 | 53 | 1015.4 |
| 20260901183836 | 77 | 130 | 0.0 | 3.0 | 0.00 | 0.00 | 0.00 | 53 | 1016.2 |
| 20260901183824 | 77 | 114 | 0.0 | 0.0 | 0.00 | 0.00 | 0.00 | 53 | 1015.4 |
| 20260901183757 | 77 | 114 | 0.0 | 1.0 | 0.00 | 0.00 | 0.00 | 53 | 1015.4 |
| 20260901183725 | 77 | 121 | 0.0 | 0.0 | 0.00 | 0.00 | 0.00 | 53 | 1015.4 |
| 20260901183624 | 76 | 121 | 0.0 | 0.0 | 0.00 | 0.00 | 0.00 | 54 | 1015.4 |
| 20260901183607 | 77 | 121 | 0.0 | 0.0 | 0.00 | 0.00 | 0.00 | 53 | 1015.4 |
| 20260901183543 | 76 | 121 | 0.0 | 0.0 | 0.00 | 0.00 | 0.00 | 54 | 1015.4 |
| 20260901183534 | 76 | 121 | 0.0 | 0.0 | 0.00 | 0.00 | 0.00 | 54 | 1015.4 |
| 20260901183355 | 77 | 121 | 0.0 | 0.0 | 0.00 | 0.00 | 0.00 | 53 | 1015.4 |
| 20260901183335 | 77 | 202 | 2.0 | 8.0 | 0.00 | 0.00 | 0.00 | 55 | 1016.2 |
| 20260901183324 | 77 | 121 | 0.0 | 0.0 | 0.00 | 0.00 | 0.00 | 55 | 1015.4 |
| 20260901183254 | 77 | 121 | 0.0 | 0.0 | 0.00 | 0.00 | 0.00 | 56 | 1015.4 |
| 20260901183240 | 77 | 121 | 0.0 | 0.0 | 0.00 | 0.00 | 0.00 | 53 | 1015.4 |
| 20260901183024 | 77 | 121 | 0.0 | 0.0 | 0.00 | 0.00 | 0.00 | 53 | 1015.4 |
| 20260901182955 | 77 | 121 | 0.0 | 0.0 | 0.00 | 0.00 | 0.00 | 53 | 1015.4 |
| 20260901182924 | 78 | 121 | 0.0 | 0.0 | 0.00 | 0.00 | 0.00 | 53 | 1015.4 |
| 20260901182857 | 78 | 121 | 0.0 | 0.0 | 0.00 | 0.00 | 0.00 | 53 | 1015.4 |
| 20260901182847 | 77 | 0 | 0.0 | 0.0 | 0.00 | 0.00 | 0.00 | 57 | 1015.4 |
| 20260901182832 | 77 | 121 | 1.0 | 4.0 | 0.00 | 0.00 | 0.00 | 55 | 1016.4 |
| 20260901182825 | 78 | 121 | 0.0 | 0.0 | 0.00 | 0.00 | 0.00 | 53 | 1015.4 |
| 20260901182755 | 77 | 121 | 0.0 | 1.0 | 0.00 | 0.00 | 0.00 | 55 | 1015.4 |
| 20260901182729 | 77 | 0 | 0.0 | 0.0 | 0.00 | 0.00 | 0.00 | 57 | 1015.4 |
| 20260901182725 | 77 | 0 | 0.0 | 0.0 | 0.00 | 0.00 | 0.00 | 55 | 1015.4 |
| 20260901182656 | 77 | 0 | 0.0 | 0.0 | 0.00 | 0.00 | 0.00 | 55 | 1015.4 |
| 20260901182625 | 77 | 0 | 0.0 | 0.0 | 0.00 | 0.00 | 0.00 | 56 | 1015.4 |
| 20260901182555 | 77 | 0 | 0.0 | 0.0 | 0.00 | 0.00 | 0.00 | 56 | 1015.4 |
| 20260901182545 | 76 | 0 | 0.0 | 0.0 | 0.00 | 0.00 | 0.00 | 57 | 1015.4 |
| 20260901182541 | 77 | 0 | 0.0 | 0.0 | 0.00 | 0.00 | 0.00 | 55 | 1015.4 |
| 20260901182524 | 77 | 0 | 0.0 | 0.0 | 0.00 | 0.00 | 0.00 | 56 | 1015.4 |
| 20260901182516 | 77 | 0 | 0.0 | 0.0 | 0.00 | 0.00 | 0.00 | 56 | 1015.4 |
| 20260901182331 | 77 | 131 | 2.0 | 5.0 | 0.00 | 0.00 | 0.00 | 56 | 1016.5 |
| 20260901182224 | 77 | 0 | 0.0 | 0.0 | 0.00 | 0.00 | 0.00 | 57 | 1015.4 |
| 20260901182206 | 76 | 183 | 0.0 | 0.0 | 0.00 | 0.00 | 0.00 | 57 | 1015.4 |
| 20260901182156 | 77 | 0 | 0.0 | 0.0 | 0.00 | 0.00 | 0.00 | 57 | 1015.4 |
| 20260901182125 | 77 | 0 | 0.0 | 0.0 | 0.00 | 0.00 | 0.00 | 57 | 1015.4 |
| 20260901182059 | 76 | 183 | 0.0 | 0.0 | 0.00 | 0.00 | 0.00 | 58 | 1015.4 |
| 20260901182044 | 77 | 0 | 0.0 | 0.0 | 0.00 | 0.00 | 0.00 | 57 | 1015.4 |
| 20260901182035 | 77 | 0 | 0.0 | 0.0 | 0.00 | 0.00 | 0.00 | 57 | 1015.4 |
| 20260901181848 | 76 | 0 | 0.0 | 0.0 | 0.00 | 0.00 | 0.00 | 57 | 1015.4 |
| 20260901181837 | 76 | 0 | 0.0 | 1.0 | 0.00 | 0.00 | 0.00 | 57 | 1015.4 |
| 20260901181827 | 76 | 141 | 2.0 | 4.0 | 0.00 | 0.00 | 0.00 | 57 | 1016.3 |
| 20260901181658 | 75 | 183 | 0.0 | 0.0 | 0.00 | 0.00 | 0.00 | 59 | 1015.4 |
| 20260901181644 | 76 | 183 | 0.0 | 0.0 | 0.00 | 0.00 | 0.00 | 57 | 1015.4 |
| 20260901181635 | 76 | 183 | 0.0 | 0.0 | 0.00 | 0.00 | 0.00 | 57 | 1015.4 |
| 20260901181455 | 76 | 183 | 0.0 | 0.0 | 0.00 | 0.00 | 0.00 | 58 | 1015.4 |
| 20260901181434 | 75 | 183 | 0.0 | 0.0 | 0.00 | 0.00 | 0.00 | 59 | 1015.4 |
| 20260901181425 | 76 | 183 | 0.0 | 0.0 | 0.00 | 0.00 | 0.00 | 58 | 1015.4 |
| 20260901181355 | 76 | 183 | 0.0 | 0.0 | 0.00 | 0.00 | 0.00 | 58 | 1015.4 |
| 20260901181324 | 76 | 183 | 0.0 | 0.0 | 0.00 | 0.00 | 0.00 | 58 | 1015.4 |
| 20260901181321 | 76 | 210 | 2.0 | 4.0 | 0.00 | 0.00 | 0.00 | 58 | 1016.4 |
| 20260901181305 | 75 | 183 | 0.0 | 0.0 | 0.00 | 0.00 | 0.00 | 60 | 1015.4 |
| 20260901181125 | 75 | 183 | 0.0 | 0.0 | 0.00 | 0.00 | 0.00 | 59 | 1015.4 |
| 20260901181116 | 75 | 225 | 0.0 | 0.0 | 0.00 | 0.00 | 0.00 | 60 | 1015.3 |
| 20260901181106 | 75 | 183 | 0.0 | 0.0 | 0.00 | 0.00 | 0.00 | 59 | 1015.4 |
| 20260901180925 | 75 | 183 | 0.0 | 0.0 | 0.00 | 0.00 | 0.00 | 60 | 1015.4 |
| 20260901180856 | 75 | 183 | 0.0 | 0.0 | 0.00 | 0.00 | 0.00 | 61 | 1015.4 |
| 20260901180834 | 76 | 225 | 0.0 | 0.0 | 0.00 | 0.00 | 0.00 | 59 | 1015.3 |
| 20260901180824 | 75 | 183 | 0.0 | 0.0 | 0.00 | 0.00 | 0.00 | 61 | 1015.4 |
| 20260901180820 | 75 | 89 | 0.0 | 2.0 | 0.00 | 0.00 | 0.00 | 60 | 1016.4 |
| 20260901180758 | 75 | 183 | 0.0 | 0.0 | 0.00 | 0.00 | 0.00 | 61 | 1015.4 |
| 20260901180747 | 75 | 225 | 0.0 | 0.0 | 0.00 | 0.00 | 0.00 | 59 | 1015.3 |
| 20260901180743 | 75 | 225 | 0.0 | 0.0 | 0.00 | 0.00 | 0.00 | 61 | 1015.3 |
| 20260901180735 | 75 | 225 | 0.0 | 0.0 | 0.00 | 0.00 | 0.00 | 61 | 1015.3 |
| 20260901180605 | 75 | 82 | 3.0 | 0.0 | 0.00 | 0.00 | 0.00 | 60 | 1015.5 |
| 20260901180556 | 75 | 225 | 0.0 | 0.0 | 0.00 | 0.00 | 0.00 | 61 | 1015.3 |
| 20260901180538 | 76 | 225 | 0.0 | 0.0 | 0.00 | 0.00 | 0.00 | 59 | 1015.3 |
| 20260901180506 | 76 | 225 | 0.0 | 0.0 | 0.00 | 0.00 | 0.00 | 59 | 1015.3 |
| 20260901180345 | 76 | 225 | 0.0 | 0.0 | 0.00 | 0.00 | 0.00 | 59 | 1015.3 |
| 20260901180332 | 76 | 225 | 0.0 | 0.0 | 0.00 | 0.00 | 0.00 | 59 | 1015.3 |
| 20260901180319 | 75 | 135 | 5.0 | 7.0 | 0.00 | 0.00 | 0.00 | 59 | 1016.3 |
| 20260901180313 | 76 | 225 | 0.0 | 0.0 | 0.00 | 0.00 | 0.00 | 59 | 1015.3 |
| 20260901180258 | 75 | 225 | 0.0 | 0.0 | 0.00 | 0.00 | 0.00 | 59 | 1015.3 |
| 20260901180030 | 76 | 225 | 0.0 | 0.0 | 0.00 | 0.00 | 0.00 | 59 | 1015.3 |
| 20260901180017 | 76 | 225 | 0.0 | 0.0 | 0.00 | 0.00 | 0.00 | 59 | 1015.3 |
| 20260901175828 | 76 | 225 | 0.0 | 0.0 | 0.00 | 0.00 | 0.00 | 59 | 1015.3 |
| 20260901175819 | 76 | 194 | 3.0 | 5.0 | 0.00 | 0.00 | 0.00 | 58 | 1016.3 |
| 20260901175756 | 76 | 225 | 0.0 | 2.0 | 0.00 | 0.00 | 0.00 | 59 | 1015.3 |
| 20260901175726 | 76 | 82 | 3.0 | 0.0 | 0.00 | 0.00 | 0.00 | 59 | 1015.5 |
| 20260901175715 | 76 | 82 | 3.0 | 0.0 | 0.00 | 0.00 | 0.00 | 59 | 1015.5 |
| 20260901175705 | 75 | 82 | 3.0 | 0.0 | 0.00 | 0.00 | 0.00 | 60 | 1015.5 |
| 20260901175525 | 75 | 82 | 3.0 | 0.0 | 0.00 | 0.00 | 0.00 | 59 | 1015.5 |
| 20260901175510 | 75 | 82 | 3.0 | 0.0 | 0.00 | 0.00 | 0.00 | 60 | 1015.5 |
| 20260901175456 | 75 | 82 | 3.0 | 0.0 | 0.00 | 0.00 | 0.00 | 59 | 1015.5 |
| 20260901175448 | 75 | 82 | 3.0 | 0.0 | 0.00 | 0.00 | 0.00 | 59 | 1015.5 |
| 20260901175314 | 75 | 111 | 2.0 | 3.0 | 0.00 | 0.00 | 0.00 | 60 | 1016.3 |
| 20260901175226 | 75 | 82 | 3.0 | 0.0 | 0.00 | 0.00 | 0.00 | 60 | 1015.5 |
| 20260901175201 | 76 | 51 | 0.0 | 0.0 | 0.00 | 0.00 | 0.00 | 59 | 1015.3 |
| 20260901175156 | 76 | 51 | 0.0 | 0.0 | 0.00 | 0.00 | 0.00 | 59 | 1015.3 |
| 20260901175146 | 75 | 82 | 3.0 | 0.0 | 0.00 | 0.00 | 0.00 | 60 | 1015.5 |
| 20260901174924 | 76 | 82 | 3.0 | 0.0 | 0.00 | 0.00 | 0.00 | 59 | 1015.5 |
| 20260901174908 | 75 | 51 | 0.0 | 0.0 | 0.00 | 0.00 | 0.00 | 61 | 1015.3 |
| 20260901174832 | 76 | 82 | 3.0 | 0.0 | 0.00 | 0.00 | 0.00 | 59 | 1015.5 |
| 20260901174822 | 76 | 82 | 3.0 | 4.0 | 0.00 | 0.00 | 0.00 | 59 | 1015.5 |
| 20260901174811 | 76 | 51 | 0.0 | 0.0 | 0.00 | 0.00 | 0.00 | 59 | 1015.3 |
| 20260901174808 | 76 | 51 | 2.0 | 7.0 | 0.00 | 0.00 | 0.00 | 59 | 1016.3 |
| 20260901174355 | 75 | 51 | 0.0 | 0.0 | 0.00 | 0.00 | 0.00 | 61 | 1015.3 |
| 20260901174325 | 75 | 51 | 0.0 | 0.0 | 0.00 | 0.00 | 0.00 | 62 | 1015.3 |
| 20260901174304 | 75 | 110 | 1.0 | 4.0 | 0.00 | 0.00 | 0.00 | 61 | 1016.4 |
| 20260901174240 | 73 | 51 | 0.0 | 2.0 | 0.00 | 0.00 | 0.00 | 64 | 1015.3 |
| 20260901174226 | 75 | 51 | 0.0 | 0.0 | 0.00 | 0.00 | 0.00 | 62 | 1015.3 |
| 20260901174154 | 74 | 51 | 0.0 | 0.0 | 0.00 | 0.00 | 0.00 | 62 | 1015.3 |
| 20260901174124 | 74 | 51 | 0.0 | 0.0 | 0.00 | 0.00 | 0.00 | 63 | 1015.3 |
| 20260901174041 | 73 | 48 | 0.0 | 0.0 | 0.00 | 0.00 | 0.00 | 64 | 1015.3 |
| 20260901174026 | 74 | 51 | 0.0 | 0.0 | 0.00 | 0.00 | 0.00 | 63 | 1015.3 |
| 20260901173954 | 74 | 51 | 0.0 | 0.0 | 0.00 | 0.00 | 0.00 | 63 | 1015.3 |
| 20260901173925 | 73 | 51 | 0.0 | 0.0 | 0.00 | 0.00 | 0.00 | 64 | 1015.3 |
| 20260901173908 | 73 | 51 | 0.0 | 0.0 | 0.00 | 0.00 | 0.00 | 64 | 1015.3 |
| 20260901173800 | 73 | 51 | 0.0 | 6.0 | 0.00 | 0.00 | 0.00 | 64 | 1016.4 |
| 20260901173739 | 73 | 48 | 0.0 | 0.0 | 0.00 | 0.00 | 0.00 | 64 | 1015.3 |
| 20260901173730 | 73 | 48 | 0.0 | 0.0 | 0.00 | 0.00 | 0.00 | 63 | 1015.3 |
| 20260901173707 | 74 | 48 | 0.0 | 0.0 | 0.00 | 0.00 | 0.00 | 64 | 1015.3 |
| 20260901173525 | 73 | 48 | 0.0 | 0.0 | 0.00 | 0.00 | 0.00 | 64 | 1015.3 |
| 20260901173455 | 73 | 48 | 0.0 | 0.0 | 0.00 | 0.00 | 0.00 | 64 | 1015.3 |
| 20260901173424 | 74 | 48 | 0.0 | 0.0 | 0.00 | 0.00 | 0.00 | 63 | 1015.3 |
| 20260901173355 | 74 | 48 | 0.0 | 0.0 | 0.00 | 0.00 | 0.00 | 63 | 1015.3 |
| 20260901173325 | 74 | 48 | 0.0 | 0.0 | 0.00 | 0.00 | 0.00 | 63 | 1015.3 |
| 20260901173259 | 74 | 170 | 2.0 | 5.0 | 0.00 | 0.00 | 0.00 | 63 | 1016.3 |
| 20260901173225 | 74 | 48 | 0.0 | 0.0 | 0.00 | 0.00 | 0.00 | 63 | 1015.3 |
| 20260901173207 | 74 | 48 | 0.0 | 0.0 | 0.00 | 0.00 | 0.00 | 63 | 1015.3 |
| 20260901173124 | 74 | 48 | 0.0 | 0.0 | 0.00 | 0.00 | 0.00 | 63 | 1015.3 |
| 20260901173025 | 74 | 48 | 0.0 | 0.0 | 0.00 | 0.00 | 0.00 | 63 | 1015.3 |
| 20260901172954 | 74 | 48 | 0.0 | 0.0 | 0.00 | 0.00 | 0.00 | 63 | 1015.3 |
| 20260901172925 | 73 | 48 | 0.0 | 0.0 | 0.00 | 0.00 | 0.00 | 65 | 1015.3 |
| 20260901172854 | 73 | 48 | 0.0 | 0.0 | 0.00 | 0.00 | 0.00 | 65 | 1015.3 |
| 20260901172825 | 73 | 48 | 0.0 | 0.0 | 0.00 | 0.00 | 0.00 | 66 | 1015.3 |
| 20260901172756 | 73 | 53 | 2.0 | 2.0 | 0.00 | 0.00 | 0.00 | 65 | 1016.5 |
| 20260901172729 | 72 | 116 | 0.0 | 0.0 | 0.00 | 0.00 | 0.00 | 66 | 1015.3 |
| 20260901172725 | 73 | 116 | 0.0 | 0.0 | 0.00 | 0.00 | 0.00 | 66 | 1015.3 |
| 20260901172655 | 72 | 116 | 0.0 | 0.0 | 0.00 | 0.00 | 0.00 | 66 | 1015.3 |
| 20260901172625 | 72 | 116 | 0.0 | 0.0 | 0.00 | 0.00 | 0.00 | 66 | 1015.3 |
| 20260901172605 | 72 | 116 | 0.0 | 0.0 | 0.00 | 0.00 | 0.00 | 66 | 1015.3 |
| 20260901172525 | 72 | 116 | 0.0 | 0.0 | 0.00 | 0.00 | 0.00 | 66 | 1015.3 |
| 20260901172455 | 72 | 116 | 0.0 | 0.0 | 0.00 | 0.00 | 0.00 | 66 | 1015.3 |
| 20260901172424 | 72 | 116 | 0.0 | 0.0 | 0.00 | 0.00 | 0.00 | 66 | 1015.3 |
| 20260901172406 | 72 | 116 | 0.0 | 0.0 | 0.00 | 0.00 | 0.00 | 66 | 1015.3 |
| 20260901172255 | 72 | 138 | 2.0 | 5.0 | 0.00 | 0.00 | 0.00 | 66 | 1016.4 |
| 20260901172244 | 72 | 93 | 0.0 | 0.0 | 0.00 | 0.00 | 0.00 | 66 | 1015.3 |
| 20260901172239 | 72 | 116 | 0.0 | 0.0 | 0.00 | 0.00 | 0.00 | 66 | 1015.3 |
| 20260901172026 | 72 | 116 | 0.0 | 0.0 | 0.00 | 0.00 | 0.00 | 66 | 1015.3 |
| 20260901171955 | 72 | 116 | 0.0 | 0.0 | 0.00 | 0.00 | 0.00 | 66 | 1015.3 |
| 20260901171923 | 72 | 116 | 0.0 | 0.0 | 0.00 | 0.00 | 0.00 | 66 | 1015.3 |
| 20260901171846 | 72 | 116 | 0.0 | 0.0 | 0.00 | 0.00 | 0.00 | 66 | 1015.3 |
| 20260901171836 | 72 | 116 | 0.0 | 2.0 | 0.00 | 0.00 | 0.00 | 66 | 1015.3 |
| 20260901171753 | 72 | 81 | 1.0 | 6.0 | 0.00 | 0.00 | 0.00 | 66 | 1016.3 |
| 20260901171626 | 72 | 93 | 0.0 | 0.0 | 0.00 | 0.00 | 0.00 | 66 | 1015.3 |
| 20260901171525 | 72 | 93 | 0.0 | 0.0 | 0.00 | 0.00 | 0.00 | 66 | 1015.3 |
| 20260901171457 | 72 | 93 | 0.0 | 0.0 | 0.00 | 0.00 | 0.00 | 66 | 1015.3 |
| 20260901171425 | 72 | 93 | 0.0 | 0.0 | 0.00 | 0.00 | 0.00 | 66 | 1015.3 |
| 20260901171355 | 72 | 93 | 0.0 | 0.0 | 0.00 | 0.00 | 0.00 | 66 | 1015.3 |
| 20260901171325 | 72 | 93 | 0.0 | 0.0 | 0.00 | 0.00 | 0.00 | 66 | 1015.3 |
| 20260901171253 | 72 | 109 | 3.0 | 6.0 | 0.00 | 0.00 | 0.00 | 67 | 1016.3 |
| 20260901171244 | 72 | 93 | 0.0 | 0.0 | 0.00 | 0.00 | 0.00 | 66 | 1015.3 |
| 20260901171239 | 72 | 93 | 0.0 | 0.0 | 0.00 | 0.00 | 0.00 | 66 | 1015.3 |
| 20260901171154 | 72 | 93 | 0.0 | 0.0 | 0.00 | 0.00 | 0.00 | 66 | 1015.3 |
| 20260901171124 | 72 | 93 | 0.0 | 0.0 | 0.00 | 0.00 | 0.00 | 66 | 1015.3 |
| 20260901171048 | 72 | 215 | 0.0 | 0.0 | 0.00 | 0.00 | 0.00 | 65 | 1015.5 |
| 20260901171042 | 72 | 93 | 0.0 | 0.0 | 0.00 | 0.00 | 0.00 | 66 | 1015.3 |
| 20260901170937 | 72 | 93 | 0.0 | 0.0 | 0.00 | 0.00 | 0.00 | 65 | 1015.3 |
| 20260901170928 | 72 | 93 | 0.0 | 0.0 | 0.00 | 0.00 | 0.00 | 65 | 1015.3 |
| 20260901170918 | 72 | 93 | 0.0 | 0.0 | 0.00 | 0.00 | 0.00 | 66 | 1015.3 |
| 20260901170753 | 72 | 89 | 0.0 | 3.0 | 0.00 | 0.00 | 0.00 | 65 | 1016.2 |
| 20260901170725 | 72 | 215 | 0.0 | 0.0 | 0.00 | 0.00 | 0.00 | 65 | 1015.5 |
| 20260901170705 | 72 | 215 | 0.0 | 0.0 | 0.00 | 0.00 | 0.00 | 66 | 1015.5 |
| 20260901170525 | 72 | 215 | 0.0 | 0.0 | 0.00 | 0.00 | 0.00 | 65 | 1015.5 |
| 20260901170425 | 72 | 215 | 0.0 | 0.0 | 0.00 | 0.00 | 0.00 | 65 | 1015.5 |
| 20260901170325 | 72 | 215 | 0.0 | 0.0 | 0.00 | 0.00 | 0.00 | 65 | 1015.5 |
| 20260901170256 | 72 | 215 | 0.0 | 0.0 | 0.00 | 0.00 | 0.00 | 65 | 1015.5 |
| 20260901170253 | 72 | 59 | 2.0 | 4.0 | 0.00 | 0.00 | 0.00 | 65 | 1016.0 |
| 20260901170224 | 72 | 215 | 0.0 | 0.0 | 0.00 | 0.00 | 0.00 | 65 | 1015.5 |
| 20260901170155 | 73 | 215 | 0.0 | 0.0 | 0.00 | 0.00 | 0.00 | 65 | 1015.5 |
| 20260901170125 | 73 | 215 | 0.0 | 0.0 | 0.00 | 0.00 | 0.00 | 65 | 1015.5 |
| 20260901170108 | 73 | 215 | 0.0 | 0.0 | 0.00 | 0.00 | 0.00 | 65 | 1015.5 |
| 20260901170029 | 72 | 215 | 0.0 | 0.0 | 0.00 | 0.00 | 0.00 | 65 | 1015.5 |
| 20260901165933 | 74 | 122 | 1.0 | 0.0 | 0.00 | 0.00 | 0.00 | 62 | 1015.3 |
| 20260901165925 | 73 | 215 | 0.0 | 0.0 | 0.00 | 0.00 | 0.00 | 64 | 1015.5 |
| 20260901165854 | 73 | 215 | 0.0 | 0.0 | 0.00 | 0.00 | 0.00 | 64 | 1015.5 |
| 20260901165824 | 73 | 215 | 0.0 | 0.0 | 0.00 | 0.00 | 0.00 | 63 | 1015.5 |
| 20260901165756 | 73 | 215 | 0.0 | 1.0 | 0.00 | 0.00 | 0.00 | 63 | 1015.5 |
| 20260901165751 | 73 | 59 | 0.0 | 3.0 | 0.00 | 0.00 | 0.00 | 63 | 1016.3 |
| 20260901165724 | 73 | 122 | 1.0 | 0.0 | 0.00 | 0.00 | 0.00 | 63 | 1015.3 |
| 20260901165655 | 74 | 122 | 1.0 | 0.0 | 0.00 | 0.00 | 0.00 | 62 | 1015.3 |
| 20260901165624 | 74 | 122 | 1.0 | 0.0 | 0.00 | 0.00 | 0.00 | 62 | 1015.3 |
| 20260901165612 | 74 | 122 | 1.0 | 0.0 | 0.00 | 0.00 | 0.00 | 62 | 1015.3 |
| 20260901165605 | 74 | 122 | 1.0 | 0.0 | 0.00 | 0.00 | 0.00 | 62 | 1015.3 |
| 20260901165425 | 74 | 122 | 1.0 | 0.0 | 0.00 | 0.00 | 0.00 | 62 | 1015.3 |
| 20260901165325 | 74 | 122 | 1.0 | 0.0 | 0.00 | 0.00 | 0.00 | 62 | 1015.3 |
| 20260901165246 | 73 | 124 | 5.0 | 5.0 | 0.00 | 0.00 | 0.00 | 64 | 1016.3 |
| 20260901165241 | 74 | 122 | 1.0 | 0.0 | 0.00 | 0.00 | 0.00 | 62 | 1015.3 |
| 20260901165101 | 73 | 125 | 2.0 | 0.0 | 0.00 | 0.00 | 0.00 | 65 | 1015.4 |
| 20260901165026 | 75 | 122 | 1.0 | 0.0 | 0.00 | 0.00 | 0.00 | 61 | 1015.3 |
| 20260901164954 | 75 | 122 | 1.0 | 0.0 | 0.00 | 0.00 | 0.00 | 61 | 1015.3 |
| 20260901164930 | 71 | 125 | 2.0 | 0.0 | 0.00 | 0.00 | 0.00 | 67 | 1015.4 |
| 20260901164924 | 74 | 122 | 1.0 | 0.0 | 0.00 | 0.00 | 0.00 | 63 | 1015.3 |
| 20260901164856 | 74 | 122 | 1.0 | 0.0 | 0.00 | 0.00 | 0.00 | 63 | 1015.3 |
| 20260901164825 | 74 | 122 | 1.0 | 0.0 | 0.00 | 0.00 | 0.00 | 63 | 1015.3 |
| 20260901164806 | 72 | 125 | 2.0 | 0.0 | 0.00 | 0.00 | 0.00 | 66 | 1015.4 |
| 20260901164757 | 74 | 122 | 1.0 | 1.0 | 0.00 | 0.00 | 0.00 | 64 | 1015.3 |
| 20260901164746 | 71 | 125 | 2.0 | 0.0 | 0.00 | 0.00 | 0.00 | 67 | 1015.4 |
| 20260901164742 | 73 | 127 | 0.0 | 1.0 | 0.00 | 0.00 | 0.00 | 65 | 1016.3 |
| 20260901164615 | 72 | 125 | 2.0 | 0.0 | 0.00 | 0.00 | 0.00 | 67 | 1015.4 |
| 20260901164605 | 71 | 125 | 2.0 | 0.0 | 0.00 | 0.00 | 0.00 | 67 | 1015.4 |
| 20260901164425 | 71 | 125 | 2.0 | 0.0 | 0.00 | 0.00 | 0.00 | 67 | 1015.4 |
| 20260901164406 | 71 | 125 | 2.0 | 0.0 | 0.00 | 0.00 | 0.00 | 67 | 1015.4 |
| 20260901164245 | 72 | 166 | 2.0 | 0.0 | 0.00 | 0.00 | 0.00 | 67 | 1015.3 |
| 20260901164241 | 72 | 125 | 2.0 | 0.0 | 0.00 | 0.00 | 0.00 | 66 | 1015.4 |
| 20260901164238 | 72 | 208 | 5.0 | 5.0 | 0.00 | 0.00 | 0.00 | 65 | 1016.2 |
| 20260901164231 | 72 | 125 | 2.0 | 0.0 | 0.00 | 0.00 | 0.00 | 66 | 1015.4 |
| 20260901164221 | 71 | 125 | 2.0 | 0.0 | 0.00 | 0.00 | 0.00 | 67 | 1015.4 |
| 20260901164030 | 71 | 125 | 2.0 | 0.0 | 0.00 | 0.00 | 0.00 | 67 | 1015.4 |
| 20260901163956 | 71 | 125 | 2.0 | 0.0 | 0.00 | 0.00 | 0.00 | 67 | 1015.4 |
| 20260901163925 | 72 | 125 | 2.0 | 0.0 | 0.00 | 0.00 | 0.00 | 66 | 1015.4 |
| 20260901163854 | 72 | 125 | 2.0 | 0.0 | 0.00 | 0.00 | 0.00 | 65 | 1015.4 |
| 20260901163826 | 72 | 125 | 2.0 | 0.0 | 0.00 | 0.00 | 0.00 | 66 | 1015.4 |
| 20260901163816 | 72 | 125 | 2.0 | 2.0 | 0.00 | 0.00 | 0.00 | 66 | 1015.4 |
| 20260901163805 | 72 | 166 | 2.0 | 0.0 | 0.00 | 0.00 | 0.00 | 66 | 1015.3 |
| 20260901163733 | 72 | 168 | 1.0 | 2.0 | 0.00 | 0.00 | 0.00 | 66 | 1016.0 |
| 20260901163625 | 72 | 166 | 2.0 | 0.0 | 0.00 | 0.00 | 0.00 | 66 | 1015.3 |
| 20260901163525 | 72 | 166 | 2.0 | 0.0 | 0.00 | 0.00 | 0.00 | 66 | 1015.3 |
| 20260901163455 | 72 | 166 | 2.0 | 0.0 | 0.00 | 0.00 | 0.00 | 66 | 1015.3 |
| 20260901163427 | 72 | 166 | 2.0 | 0.0 | 0.00 | 0.00 | 0.00 | 66 | 1015.3 |
| 20260901163354 | 72 | 166 | 2.0 | 0.0 | 0.00 | 0.00 | 0.00 | 66 | 1015.3 |
| 20260901163325 | 72 | 166 | 2.0 | 0.0 | 0.00 | 0.00 | 0.00 | 67 | 1015.3 |
| 20260901163232 | 71 | 102 | 3.0 | 4.0 | 0.00 | 0.00 | 0.00 | 68 | 1016.0 |
| 20260901163225 | 71 | 166 | 2.0 | 0.0 | 0.00 | 0.00 | 0.00 | 69 | 1015.3 |
| 20260901163205 | 71 | 102 | 0.0 | 0.0 | 0.00 | 0.00 | 0.00 | 68 | 1015.1 |
| 20260901163155 | 71 | 166 | 2.0 | 0.0 | 0.00 | 0.00 | 0.00 | 69 | 1015.3 |
| 20260901163126 | 70 | 166 | 2.0 | 0.0 | 0.00 | 0.00 | 0.00 | 70 | 1015.3 |
| 20260901163030 | 70 | 166 | 2.0 | 0.0 | 0.00 | 0.00 | 0.00 | 70 | 1015.3 |
| 20260901163017 | 71 | 102 | 0.0 | 0.0 | 0.00 | 0.00 | 0.00 | 68 | 1015.1 |
| 20260901162954 | 70 | 166 | 2.0 | 0.0 | 0.00 | 0.00 | 0.00 | 70 | 1015.3 |
| 20260901162924 | 70 | 166 | 2.0 | 0.0 | 0.00 | 0.00 | 0.00 | 69 | 1015.3 |
| 20260901162908 | 71 | 102 | 0.0 | 0.0 | 0.00 | 0.00 | 0.00 | 68 | 1015.1 |
| 20260901162856 | 70 | 166 | 2.0 | 0.0 | 0.00 | 0.00 | 0.00 | 69 | 1015.3 |
| 20260901162847 | 71 | 166 | 2.0 | 0.0 | 0.00 | 0.00 | 0.00 | 68 | 1015.3 |
| 20260901162836 | 71 | 166 | 2.0 | 2.0 | 0.00 | 0.00 | 0.00 | 68 | 1015.3 |
| 20260901162727 | 70 | 132 | 1.0 | 5.0 | 0.00 | 0.00 | 0.00 | 70 | 1015.9 |
| 20260901162654 | 71 | 102 | 0.0 | 0.0 | 0.00 | 0.00 | 0.00 | 68 | 1015.1 |
| 20260901162325 | 71 | 102 | 0.0 | 0.0 | 0.00 | 0.00 | 0.00 | 68 | 1015.1 |
| 20260901162226 | 71 | 190 | 3.0 | 5.0 | 0.00 | 0.00 | 0.00 | 69 | 1015.9 |
| 20260901162204 | 72 | 110 | 0.0 | 0.0 | 0.00 | 0.00 | 0.00 | 66 | 1015.2 |
| 20260901162125 | 71 | 102 | 0.0 | 0.0 | 0.00 | 0.00 | 0.00 | 68 | 1015.1 |
| 20260901162026 | 71 | 102 | 0.0 | 0.0 | 0.00 | 0.00 | 0.00 | 68 | 1015.1 |
| 20260901161955 | 72 | 102 | 0.0 | 0.0 | 0.00 | 0.00 | 0.00 | 66 | 1015.1 |
| 20260901161925 | 72 | 102 | 0.0 | 0.0 | 0.00 | 0.00 | 0.00 | 66 | 1015.1 |
| 20260901161847 | 72 | 102 | 0.0 | 0.0 | 0.00 | 0.00 | 0.00 | 66 | 1015.1 |
| 20260901161836 | 72 | 102 | 0.0 | 2.0 | 0.00 | 0.00 | 0.00 | 66 | 1015.1 |
| 20260901161726 | 72 | 89 | 0.0 | 4.0 | 0.00 | 0.00 | 0.00 | 66 | 1016.0 |
| 20260901161625 | 72 | 110 | 0.0 | 0.0 | 0.00 | 0.00 | 0.00 | 66 | 1015.2 |
| 20260901161537 | 71 | 107 | 3.0 | 0.0 | 0.00 | 0.00 | 0.00 | 70 | 1015.2 |
| 20260901161525 | 71 | 110 | 0.0 | 0.0 | 0.00 | 0.00 | 0.00 | 68 | 1015.2 |
| 20260901161425 | 71 | 110 | 0.0 | 0.0 | 0.00 | 0.00 | 0.00 | 68 | 1015.2 |
| 20260901161409 | 72 | 110 | 0.0 | 0.0 | 0.00 | 0.00 | 0.00 | 69 | 1015.2 |
| 20260901161324 | 71 | 110 | 0.0 | 0.0 | 0.00 | 0.00 | 0.00 | 68 | 1015.2 |
| 20260901161313 | 72 | 110 | 0.0 | 0.0 | 0.00 | 0.00 | 0.00 | 68 | 1015.2 |
| 20260901161247 | 71 | 107 | 3.0 | 0.0 | 0.00 | 0.00 | 0.00 | 70 | 1015.2 |
| 20260901161242 | 71 | 110 | 0.0 | 0.0 | 0.00 | 0.00 | 0.00 | 68 | 1015.2 |
| 20260901161229 | 71 | 110 | 0.0 | 0.0 | 0.00 | 0.00 | 0.00 | 68 | 1015.2 |
| 20260901161221 | 71 | 198 | 0.0 | 3.0 | 0.00 | 0.00 | 0.00 | 69 | 1016.0 |
| 20260901161057 | 71 | 110 | 0.0 | 0.0 | 0.00 | 0.00 | 0.00 | 68 | 1015.2 |
| 20260901161045 | 71 | 110 | 0.0 | 0.0 | 0.00 | 0.00 | 0.00 | 68 | 1015.2 |
| 20260901160803 | 71 | 107 | 3.0 | 0.0 | 0.00 | 0.00 | 0.00 | 71 | 1015.2 |
| 20260901160756 | 72 | 110 | 0.0 | 1.0 | 0.00 | 0.00 | 0.00 | 69 | 1015.2 |
| 20260901160734 | 72 | 107 | 3.0 | 0.0 | 0.00 | 0.00 | 0.00 | 69 | 1015.2 |
| 20260901160720 | 71 | 107 | 3.0 | 0.0 | 0.00 | 0.00 | 0.00 | 70 | 1015.2 |
| 20260901160717 | 72 | 121 | 0.0 | 3.0 | 0.00 | 0.00 | 0.00 | 69 | 1016.0 |
| 20260901160439 | 71 | 107 | 3.0 | 0.0 | 0.00 | 0.00 | 0.00 | 70 | 1015.2 |
| 20260901160430 | 71 | 107 | 3.0 | 0.0 | 0.00 | 0.00 | 0.00 | 70 | 1015.2 |
| 20260901160420 | 71 | 107 | 3.0 | 0.0 | 0.00 | 0.00 | 0.00 | 71 | 1015.2 |
| 20260901160225 | 71 | 107 | 3.0 | 0.0 | 0.00 | 0.00 | 0.00 | 71 | 1015.2 |
| 20260901160212 | 70 | 127 | 0.0 | 3.0 | 0.00 | 0.00 | 0.00 | 71 | 1016.3 |
| 20260901160125 | 71 | 107 | 3.0 | 0.0 | 0.00 | 0.00 | 0.00 | 71 | 1015.2 |
| 20260901160107 | 71 | 107 | 3.0 | 0.0 | 0.00 | 0.00 | 0.00 | 71 | 1015.2 |
| 20260901160028 | 71 | 107 | 3.0 | 0.0 | 0.00 | 0.00 | 0.00 | 71 | 1015.2 |
| 20260901155948 | 72 | 113 | 1.0 | 0.0 | 0.00 | 0.00 | 0.00 | 68 | 1015.4 |
| 20260901155943 | 72 | 113 | 1.0 | 0.0 | 0.00 | 0.00 | 0.00 | 68 | 1015.4 |
| 20260901155939 | 71 | 107 | 3.0 | 0.0 | 0.00 | 0.00 | 0.00 | 71 | 1015.2 |
| 20260901155756 | 71 | 107 | 3.0 | 4.0 | 0.00 | 0.00 | 0.00 | 71 | 1015.2 |
| 20260901155741 | 72 | 113 | 2.0 | 0.0 | 0.00 | 0.00 | 0.00 | 69 | 1015.2 |
| 20260901155726 | 71 | 113 | 1.0 | 0.0 | 0.00 | 0.00 | 0.00 | 71 | 1015.4 |
| 20260901155711 | 71 | 99 | 3.0 | 4.0 | 0.00 | 0.00 | 0.00 | 70 | 1016.2 |
| 20260901155656 | 71 | 113 | 1.0 | 0.0 | 0.00 | 0.00 | 0.00 | 71 | 1015.4 |
| 20260901155644 | 71 | 113 | 1.0 | 0.0 | 0.00 | 0.00 | 0.00 | 71 | 1015.4 |
| 20260901155635 | 71 | 113 | 1.0 | 0.0 | 0.00 | 0.00 | 0.00 | 71 | 1015.4 |
| 20260901155622 | 71 | 113 | 1.0 | 0.0 | 0.00 | 0.00 | 0.00 | 70 | 1015.4 |
| 20260901155612 | 71 | 113 | 1.0 | 0.0 | 0.00 | 0.00 | 0.00 | 70 | 1015.4 |
| 20260901155224 | 72 | 113 | 1.0 | 0.0 | 0.00 | 0.00 | 0.00 | 68 | 1015.4 |
| 20260901155206 | 72 | 126 | 1.0 | 2.0 | 0.00 | 0.00 | 0.00 | 68 | 1016.2 |
| 20260901155154 | 72 | 113 | 1.0 | 0.0 | 0.00 | 0.00 | 0.00 | 68 | 1015.4 |
| 20260901155130 | 72 | 113 | 2.0 | 0.0 | 0.00 | 0.00 | 0.00 | 69 | 1015.2 |
| 20260901155125 | 72 | 113 | 1.0 | 0.0 | 0.00 | 0.00 | 0.00 | 69 | 1015.4 |
| 20260901155055 | 71 | 113 | 1.0 | 0.0 | 0.00 | 0.00 | 0.00 | 69 | 1015.4 |
| 20260901155028 | 72 | 113 | 1.0 | 0.0 | 0.00 | 0.00 | 0.00 | 68 | 1015.4 |
| 20260901154958 | 72 | 113 | 2.0 | 0.0 | 0.00 | 0.00 | 0.00 | 67 | 1015.2 |
| 20260901154944 | 72 | 113 | 1.0 | 0.0 | 0.00 | 0.00 | 0.00 | 68 | 1015.4 |
| 20260901154936 | 72 | 113 | 1.0 | 0.0 | 0.00 | 0.00 | 0.00 | 68 | 1015.4 |
| 20260901154926 | 72 | 113 | 1.0 | 0.0 | 0.00 | 0.00 | 0.00 | 69 | 1015.4 |
| 20260901154916 | 72 | 113 | 1.0 | 3.0 | 0.00 | 0.00 | 0.00 | 69 | 1015.4 |
| 20260901154701 | 72 | 120 | 2.0 | 4.0 | 0.00 | 0.00 | 0.00 | 69 | 1016.2 |
| 20260901154624 | 71 | 113 | 2.0 | 0.0 | 0.00 | 0.00 | 0.00 | 69 | 1015.2 |
| 20260901154556 | 71 | 113 | 2.0 | 0.0 | 0.00 | 0.00 | 0.00 | 69 | 1015.2 |
| 20260901154525 | 72 | 113 | 2.0 | 0.0 | 0.00 | 0.00 | 0.00 | 68 | 1015.2 |
| 20260901154507 | 71 | 113 | 2.0 | 0.0 | 0.00 | 0.00 | 0.00 | 70 | 1015.2 |
| 20260901154455 | 72 | 113 | 2.0 | 0.0 | 0.00 | 0.00 | 0.00 | 68 | 1015.2 |
| 20260901154425 | 72 | 113 | 2.0 | 0.0 | 0.00 | 0.00 | 0.00 | 68 | 1015.2 |
| 20260901154357 | 70 | 113 | 2.0 | 2.0 | 0.00 | 0.00 | 0.00 | 71 | 1015.2 |
| 20260901154347 | 72 | 113 | 2.0 | 0.0 | 0.00 | 0.00 | 0.00 | 68 | 1015.2 |
| 20260901154336 | 72 | 113 | 2.0 | 0.0 | 0.00 | 0.00 | 0.00 | 68 | 1015.2 |
| 20260901154156 | 72 | 114 | 1.0 | 2.0 | 0.00 | 0.00 | 0.00 | 69 | 1016.3 |
| 20260901154150 | 72 | 113 | 2.0 | 0.0 | 0.00 | 0.00 | 0.00 | 69 | 1015.2 |
| 20260901154140 | 71 | 113 | 2.0 | 0.0 | 0.00 | 0.00 | 0.00 | 69 | 1015.2 |
| 20260901153955 | 71 | 113 | 2.0 | 0.0 | 0.00 | 0.00 | 0.00 | 70 | 1015.2 |
| 20260901153930 | 70 | 157 | 0.0 | 0.0 | 0.00 | 0.00 | 0.00 | 71 | 1015.1 |
| 20260901153925 | 71 | 113 | 2.0 | 0.0 | 0.00 | 0.00 | 0.00 | 71 | 1015.2 |
| 20260901153915 | 70 | 113 | 2.0 | 0.0 | 0.00 | 0.00 | 0.00 | 71 | 1015.2 |
| 20260901153905 | 70 | 113 | 2.0 | 0.0 | 0.00 | 0.00 | 0.00 | 72 | 1015.2 |
| 20260901153724 | 70 | 157 | 0.0 | 0.0 | 0.00 | 0.00 | 0.00 | 71 | 1015.1 |
| 20260901153657 | 70 | 157 | 0.0 | 0.0 | 0.00 | 0.00 | 0.00 | 72 | 1015.1 |
| 20260901153652 | 70 | 128 | 3.0 | 3.0 | 0.00 | 0.00 | 0.00 | 72 | 1016.0 |
| 20260901153647 | 71 | 157 | 0.0 | 0.0 | 0.00 | 0.00 | 0.00 | 69 | 1015.1 |
| 20260901153625 | 70 | 157 | 0.0 | 0.0 | 0.00 | 0.00 | 0.00 | 72 | 1015.1 |
| 20260901153531 | 72 | 157 | 0.0 | 0.0 | 0.00 | 0.00 | 0.00 | 69 | 1015.1 |
| 20260901153527 | 69 | 157 | 0.0 | 0.0 | 0.00 | 0.00 | 0.00 | 72 | 1015.1 |
| 20260901153517 | 70 | 157 | 0.0 | 0.0 | 0.00 | 0.00 | 0.00 | 72 | 1015.1 |
| 20260901153506 | 70 | 157 | 0.0 | 0.0 | 0.00 | 0.00 | 0.00 | 71 | 1015.1 |
| 20260901153337 | 70 | 157 | 0.0 | 0.0 | 0.00 | 0.00 | 0.00 | 71 | 1015.1 |
| 20260901153323 | 70 | 157 | 0.0 | 0.0 | 0.00 | 0.00 | 0.00 | 70 | 1015.1 |
| 20260901153151 | 71 | 182 | 2.0 | 3.0 | 0.00 | 0.00 | 0.00 | 69 | 1015.9 |
| 20260901153030 | 72 | 157 | 0.0 | 0.0 | 0.00 | 0.00 | 0.00 | 68 | 1015.1 |
| 20260901152954 | 72 | 157 | 0.0 | 0.0 | 0.00 | 0.00 | 0.00 | 68 | 1015.1 |
| 20260901152924 | 72 | 157 | 0.0 | 0.0 | 0.00 | 0.00 | 0.00 | 67 | 1015.1 |
| 20260901152854 | 72 | 157 | 0.0 | 0.0 | 0.00 | 0.00 | 0.00 | 68 | 1015.1 |
| 20260901152825 | 72 | 157 | 0.0 | 0.0 | 0.00 | 0.00 | 0.00 | 67 | 1015.1 |
| 20260901152756 | 72 | 157 | 0.0 | 1.0 | 0.00 | 0.00 | 0.00 | 66 | 1015.1 |
| 20260901152724 | 72 | 155 | 2.0 | 0.0 | 0.00 | 0.00 | 0.00 | 67 | 1015.1 |
| 20260901152646 | 72 | 89 | 0.0 | 1.0 | 0.00 | 0.00 | 0.00 | 67 | 1016.0 |
| 20260901152626 | 72 | 155 | 2.0 | 0.0 | 0.00 | 0.00 | 0.00 | 67 | 1015.1 |
| 20260901152555 | 71 | 155 | 2.0 | 0.0 | 0.00 | 0.00 | 0.00 | 68 | 1015.1 |
| 20260901152525 | 71 | 155 | 2.0 | 0.0 | 0.00 | 0.00 | 0.00 | 69 | 1015.1 |
| 20260901152438 | 71 | 155 | 2.0 | 0.0 | 0.00 | 0.00 | 0.00 | 69 | 1015.1 |
| 20260901152426 | 71 | 155 | 2.0 | 0.0 | 0.00 | 0.00 | 0.00 | 69 | 1015.1 |
| 20260901152354 | 71 | 155 | 2.0 | 0.0 | 0.00 | 0.00 | 0.00 | 70 | 1015.1 |
| 20260901152325 | 71 | 155 | 2.0 | 0.0 | 0.00 | 0.00 | 0.00 | 69 | 1015.1 |
| 20260901152309 | 71 | 155 | 2.0 | 0.0 | 0.00 | 0.00 | 0.00 | 68 | 1015.1 |
| 20260901152225 | 71 | 155 | 2.0 | 0.0 | 0.00 | 0.00 | 0.00 | 67 | 1015.1 |
| 20260901152159 | 73 | 109 | 1.0 | 0.0 | 0.00 | 0.00 | 0.00 | 63 | 1014.8 |
| 20260901152154 | 72 | 155 | 2.0 | 0.0 | 0.00 | 0.00 | 0.00 | 66 | 1015.1 |
| 20260901152144 | 71 | 117 | 0.0 | 0.0 | 0.00 | 0.00 | 0.00 | 68 | 1016.0 |
| 20260901152139 | 71 | 155 | 2.0 | 0.0 | 0.00 | 0.00 | 0.00 | 68 | 1015.1 |
| 20260901152129 | 71 | 155 | 2.0 | 0.0 | 0.00 | 0.00 | 0.00 | 67 | 1015.1 |
| 20260901152105 | 71 | 155 | 2.0 | 0.0 | 0.00 | 0.00 | 0.00 | 68 | 1015.1 |
| 20260901151925 | 71 | 155 | 2.0 | 0.0 | 0.00 | 0.00 | 0.00 | 69 | 1015.1 |
| 20260901151901 | 71 | 155 | 2.0 | 0.0 | 0.00 | 0.00 | 0.00 | 68 | 1015.1 |
| 20260901151851 | 71 | 155 | 2.0 | 2.0 | 0.00 | 0.00 | 0.00 | 67 | 1015.1 |
| 20260901151826 | 72 | 109 | 1.0 | 0.0 | 0.00 | 0.00 | 0.00 | 66 | 1014.8 |
| 20260901151816 | 72 | 109 | 1.0 | 0.0 | 0.00 | 0.00 | 0.00 | 65 | 1014.8 |
| 20260901151641 | 73 | 242 | 2.0 | 2.0 | 0.00 | 0.00 | 0.00 | 64 | 1015.9 |
| 20260901151525 | 73 | 109 | 1.0 | 0.0 | 0.00 | 0.00 | 0.00 | 64 | 1014.8 |
| 20260901151500 | 74 | 109 | 1.0 | 0.0 | 0.00 | 0.00 | 0.00 | 63 | 1014.8 |
| 20260901151455 | 73 | 109 | 1.0 | 0.0 | 0.00 | 0.00 | 0.00 | 63 | 1014.8 |
| 20260901151425 | 73 | 109 | 1.0 | 0.0 | 0.00 | 0.00 | 0.00 | 64 | 1014.8 |
| 20260901151356 | 73 | 109 | 1.0 | 0.0 | 0.00 | 0.00 | 0.00 | 64 | 1014.8 |
| 20260901151335 | 73 | 109 | 1.0 | 0.0 | 0.00 | 0.00 | 0.00 | 63 | 1014.8 |
| 20260901151325 | 73 | 109 | 1.0 | 0.0 | 0.00 | 0.00 | 0.00 | 64 | 1014.8 |
| 20260901151225 | 73 | 109 | 1.0 | 0.0 | 0.00 | 0.00 | 0.00 | 64 | 1014.8 |
| 20260901151204 | 68 | 171 | 1.0 | 0.0 | 0.00 | 0.00 | 0.00 | 73 | 1014.8 |
| 20260901151146 | 73 | 109 | 1.0 | 0.0 | 0.00 | 0.00 | 0.00 | 64 | 1014.8 |
| 20260901151139 | 73 | 135 | 0.0 | 1.0 | 0.00 | 0.00 | 0.00 | 64 | 1015.9 |
| 20260901151135 | 74 | 109 | 1.0 | 0.0 | 0.00 | 0.00 | 0.00 | 62 | 1014.8 |
| 20260901151125 | 74 | 109 | 1.0 | 0.0 | 0.00 | 0.00 | 0.00 | 61 | 1014.8 |
| 20260901150824 | 73 | 109 | 1.0 | 0.0 | 0.00 | 0.00 | 0.00 | 64 | 1014.8 |
| 20260901150755 | 73 | 109 | 1.0 | 1.0 | 0.00 | 0.00 | 0.00 | 64 | 1014.8 |
| 20260901150725 | 72 | 171 | 1.0 | 0.0 | 0.00 | 0.00 | 0.00 | 65 | 1014.8 |
| 20260901150633 | 73 | 174 | 0.0 | 1.0 | 0.00 | 0.00 | 0.00 | 65 | 1015.7 |
| 20260901150624 | 72 | 171 | 1.0 | 0.0 | 0.00 | 0.00 | 0.00 | 65 | 1014.8 |
| 20260901150610 | 68 | 171 | 1.0 | 0.0 | 0.00 | 0.00 | 0.00 | 72 | 1014.8 |
| 20260901150601 | 72 | 171 | 1.0 | 0.0 | 0.00 | 0.00 | 0.00 | 65 | 1014.8 |
| 20260901150551 | 72 | 171 | 1.0 | 0.0 | 0.00 | 0.00 | 0.00 | 66 | 1014.8 |
| 20260901150425 | 71 | 171 | 1.0 | 0.0 | 0.00 | 0.00 | 0.00 | 67 | 1014.8 |
| 20260901150325 | 71 | 171 | 1.0 | 0.0 | 0.00 | 0.00 | 0.00 | 67 | 1014.8 |
| 20260901150255 | 71 | 171 | 1.0 | 0.0 | 0.00 | 0.00 | 0.00 | 69 | 1014.8 |
| 20260901150244 | 70 | 171 | 1.0 | 0.0 | 0.00 | 0.00 | 0.00 | 69 | 1014.8 |
| 20260901150230 | 69 | 171 | 1.0 | 0.0 | 0.00 | 0.00 | 0.00 | 71 | 1014.8 |
| 20260901150220 | 69 | 171 | 1.0 | 0.0 | 0.00 | 0.00 | 0.00 | 71 | 1014.8 |
| 20260901150131 | 69 | 142 | 0.0 | 1.0 | 0.00 | 0.00 | 0.00 | 71 | 1015.6 |
| 20260901145924 | 67 | 171 | 1.0 | 0.0 | 0.00 | 0.00 | 0.00 | 74 | 1014.8 |
| 20260901145855 | 67 | 171 | 1.0 | 0.0 | 0.00 | 0.00 | 0.00 | 74 | 1014.8 |
| 20260901145824 | 67 | 171 | 1.0 | 0.0 | 0.00 | 0.00 | 0.00 | 73 | 1014.8 |
| 20260901145755 | 67 | 171 | 1.0 | 2.0 | 0.00 | 0.00 | 0.00 | 72 | 1014.8 |
| 20260901145726 | 67 | 89 | 0.0 | 0.0 | 0.00 | 0.00 | 0.00 | 72 | 1014.8 |
| 20260901145630 | 67 | 178 | 0.0 | 2.0 | 0.00 | 0.00 | 0.00 | 71 | 1015.5 |
| 20260901145624 | 67 | 89 | 0.0 | 0.0 | 0.00 | 0.00 | 0.00 | 72 | 1014.8 |
| 20260901145607 | 69 | 89 | 0.0 | 0.0 | 0.00 | 0.00 | 0.00 | 58 | 1014.8 |
| 20260901145554 | 67 | 89 | 0.0 | 0.0 | 0.00 | 0.00 | 0.00 | 71 | 1014.8 |
| 20260901145524 | 67 | 89 | 0.0 | 0.0 | 0.00 | 0.00 | 0.00 | 70 | 1014.8 |
| 20260901145455 | 67 | 89 | 0.0 | 0.0 | 0.00 | 0.00 | 0.00 | 68 | 1014.8 |
| 20260901145425 | 67 | 89 | 0.0 | 0.0 | 0.00 | 0.00 | 0.00 | 67 | 1014.8 |
| 20260901145354 | 68 | 89 | 0.0 | 0.0 | 0.00 | 0.00 | 0.00 | 66 | 1014.8 |
| 20260901145339 | 68 | 89 | 0.0 | 0.0 | 0.00 | 0.00 | 0.00 | 57 | 1014.8 |
| 20260901145324 | 68 | 89 | 0.0 | 0.0 | 0.00 | 0.00 | 0.00 | 65 | 1014.8 |
| 20260901145312 | 67 | 51 | 0.0 | 0.0 | 0.00 | 0.00 | 0.00 | 57 | 1014.4 |
| 20260901145308 | 68 | 89 | 0.0 | 0.0 | 0.00 | 0.00 | 0.00 | 64 | 1014.8 |
| 20260901145258 | 69 | 89 | 0.0 | 0.0 | 0.00 | 0.00 | 0.00 | 63 | 1014.8 |
| 20260901145235 | 69 | 89 | 0.0 | 0.0 | 0.00 | 0.00 | 0.00 | 61 | 1014.8 |
| 20260901145129 | 69 | 55 | 0.0 | 0.0 | 0.00 | 0.00 | 0.00 | 57 | 1015.5 |
| 20260901145030 | 69 | 89 | 0.0 | 0.0 | 0.00 | 0.00 | 0.00 | 56 | 1014.8 |
| 20260901145016 | 69 | 89 | 0.0 | 0.0 | 0.00 | 0.00 | 0.00 | 56 | 1014.8 |
| 20260901145006 | 69 | 89 | 0.0 | 0.0 | 0.00 | 0.00 | 0.00 | 57 | 1014.8 |
| 20260901144956 | 69 | 89 | 0.0 | 0.0 | 0.00 | 0.00 | 0.00 | 57 | 1014.8 |
| 20260901144946 | 68 | 89 | 0.0 | 0.0 | 0.00 | 0.00 | 0.00 | 57 | 1014.8 |
| 20260901144654 | 67 | 51 | 0.0 | 0.0 | 0.00 | 0.00 | 0.00 | 58 | 1014.4 |
| 20260901144625 | 67 | 85 | 0.0 | 2.0 | 0.00 | 0.00 | 0.00 | 58 | 1015.5 |
| 20260901144555 | 67 | 51 | 0.0 | 0.0 | 0.00 | 0.00 | 0.00 | 58 | 1014.4 |
| 20260901144534 | 64 | 51 | 0.0 | 0.0 | 0.00 | 0.00 | 0.00 | 64 | 1014.4 |
| 20260901144525 | 66 | 51 | 0.0 | 0.0 | 0.00 | 0.00 | 0.00 | 58 | 1014.4 |
| 20260901144455 | 66 | 51 | 0.0 | 0.0 | 0.00 | 0.00 | 0.00 | 58 | 1014.4 |
| 20260901144435 | 63 | 68 | 1.0 | 0.0 | 0.00 | 0.00 | 0.00 | 65 | 1014.5 |
| 20260901144425 | 66 | 51 | 0.0 | 0.0 | 0.00 | 0.00 | 0.00 | 59 | 1014.4 |
| 20260901144325 | 65 | 51 | 0.0 | 0.0 | 0.00 | 0.00 | 0.00 | 59 | 1014.4 |
| 20260901144315 | 64 | 51 | 0.0 | 0.0 | 0.00 | 0.00 | 0.00 | 65 | 1014.4 |
| 20260901144300 | 65 | 51 | 0.0 | 0.0 | 0.00 | 0.00 | 0.00 | 60 | 1014.4 |
| 20260901144250 | 65 | 51 | 0.0 | 0.0 | 0.00 | 0.00 | 0.00 | 64 | 1014.4 |
| 20260901144239 | 65 | 51 | 0.0 | 0.0 | 0.00 | 0.00 | 0.00 | 64 | 1014.4 |
| 20260901144230 | 64 | 51 | 0.0 | 0.0 | 0.00 | 0.00 | 0.00 | 65 | 1014.4 |
| 20260901144220 | 64 | 51 | 0.0 | 0.0 | 0.00 | 0.00 | 0.00 | 65 | 1014.4 |
| 20260901144208 | 64 | 51 | 0.0 | 0.0 | 0.00 | 0.00 | 0.00 | 64 | 1014.4 |
| 20260901144120 | 64 | 64 | 1.0 | 2.0 | 0.00 | 0.00 | 0.00 | 65 | 1015.6 |
| 20260901143943 | 64 | 51 | 0.0 | 0.0 | 0.00 | 0.00 | 0.00 | 64 | 1014.4 |
| 20260901143935 | 64 | 51 | 0.0 | 0.0 | 0.00 | 0.00 | 0.00 | 64 | 1014.4 |
| 20260901143757 | 64 | 51 | 0.0 | 2.0 | 0.00 | 0.00 | 0.00 | 65 | 1014.4 |
| 20260901143724 | 63 | 68 | 1.0 | 0.0 | 0.00 | 0.00 | 0.00 | 65 | 1014.5 |
| 20260901143657 | 63 | 68 | 1.0 | 0.0 | 0.00 | 0.00 | 0.00 | 65 | 1014.5 |
| 20260901143624 | 63 | 68 | 1.0 | 0.0 | 0.00 | 0.00 | 0.00 | 65 | 1014.5 |
| 20260901143610 | 63 | 62 | 1.0 | 2.0 | 0.00 | 0.00 | 0.00 | 64 | 1015.7 |
| 20260901143554 | 63 | 68 | 1.0 | 0.0 | 0.00 | 0.00 | 0.00 | 64 | 1014.5 |
| 20260901143539 | 63 | 68 | 1.0 | 0.0 | 0.00 | 0.00 | 0.00 | 65 | 1014.5 |
| 20260901143408 | 63 | 68 | 1.0 | 0.0 | 0.00 | 0.00 | 0.00 | 65 | 1014.5 |
| 20260901143325 | 63 | 68 | 1.0 | 0.0 | 0.00 | 0.00 | 0.00 | 65 | 1014.5 |
| 20260901143225 | 63 | 68 | 1.0 | 0.0 | 0.00 | 0.00 | 0.00 | 65 | 1014.5 |
| 20260901143157 | 63 | 68 | 1.0 | 0.0 | 0.00 | 0.00 | 0.00 | 65 | 1014.5 |
| 20260901143124 | 63 | 68 | 1.0 | 0.0 | 0.00 | 0.00 | 0.00 | 66 | 1014.5 |
| 20260901143106 | 63 | 23 | 2.0 | 2.0 | 0.00 | 0.00 | 0.00 | 65 | 1015.4 |
| 20260901143041 | 63 | 89 | 2.0 | 0.0 | 0.00 | 0.00 | 0.00 | 65 | 1014.2 |
| 20260901143031 | 63 | 68 | 1.0 | 0.0 | 0.00 | 0.00 | 0.00 | 65 | 1014.5 |
| 20260901142956 | 63 | 68 | 1.0 | 0.0 | 0.00 | 0.00 | 0.00 | 65 | 1014.5 |
| 20260901142925 | 63 | 68 | 1.0 | 0.0 | 0.00 | 0.00 | 0.00 | 65 | 1014.5 |
| 20260901142854 | 63 | 68 | 1.0 | 0.0 | 0.00 | 0.00 | 0.00 | 65 | 1014.5 |
| 20260901142824 | 63 | 68 | 1.0 | 0.0 | 0.00 | 0.00 | 0.00 | 65 | 1014.5 |
| 20260901142756 | 63 | 68 | 1.0 | 2.0 | 0.00 | 0.00 | 0.00 | 65 | 1014.5 |
| 20260901142724 | 63 | 89 | 2.0 | 0.0 | 0.00 | 0.00 | 0.00 | 65 | 1014.2 |
| 20260901142705 | 63 | 89 | 2.0 | 0.0 | 0.00 | 0.00 | 0.00 | 65 | 1014.2 |
| 20260901142601 | 63 | 73 | 2.0 | 3.0 | 0.00 | 0.00 | 0.00 | 66 | 1015.2 |
| 20260901142525 | 62 | 89 | 2.0 | 0.0 | 0.00 | 0.00 | 0.00 | 66 | 1014.2 |
| 20260901142457 | 62 | 89 | 2.0 | 0.0 | 0.00 | 0.00 | 0.00 | 66 | 1014.2 |
| 20260901142425 | 62 | 89 | 2.0 | 0.0 | 0.00 | 0.00 | 0.00 | 67 | 1014.2 |
| 20260901142326 | 62 | 89 | 2.0 | 0.0 | 0.00 | 0.00 | 0.00 | 67 | 1014.2 |
| 20260901142316 | 60 | 83 | 2.0 | 0.0 | 0.00 | 0.00 | 0.00 | 66 | 1014.0 |
| 20260901142307 | 62 | 89 | 2.0 | 0.0 | 0.00 | 0.00 | 0.00 | 67 | 1014.2 |
| 20260901142224 | 61 | 89 | 2.0 | 0.0 | 0.00 | 0.00 | 0.00 | 67 | 1014.2 |
| 20260901142143 | 59 | 114 | 2.0 | 0.0 | 0.00 | 0.00 | 0.00 | 66 | 1013.9 |
| 20260901142126 | 61 | 89 | 2.0 | 0.0 | 0.00 | 0.00 | 0.00 | 67 | 1014.2 |
| 20260901142102 | 60 | 83 | 2.0 | 0.0 | 0.00 | 0.00 | 0.00 | 66 | 1014.0 |
| 20260901142054 | 61 | 89 | 2.0 | 0.0 | 0.00 | 0.00 | 0.00 | 67 | 1014.2 |
| 20260901142044 | 61 | 89 | 2.0 | 0.0 | 0.00 | 0.00 | 0.00 | 66 | 1014.2 |
| 20260901142032 | 61 | 89 | 2.0 | 0.0 | 0.00 | 0.00 | 0.00 | 66 | 1014.2 |
| 20260901142019 | 60 | 89 | 2.0 | 0.0 | 0.00 | 0.00 | 0.00 | 66 | 1014.2 |
| 20260901141954 | 60 | 89 | 2.0 | 0.0 | 0.00 | 0.00 | 0.00 | 66 | 1014.2 |
| 20260901141945 | 60 | 89 | 2.0 | 2.0 | 0.00 | 0.00 | 0.00 | 66 | 1014.2 |
| 20260901141701 | 60 | 83 | 2.0 | 0.0 | 0.00 | 0.00 | 0.00 | 68 | 1014.0 |
| 20260901141640 | 60 | 83 | 2.0 | 0.0 | 0.00 | 0.00 | 0.00 | 66 | 1014.0 |
| 20260901141556 | 60 | 97 | 2.0 | 2.0 | 0.00 | 0.00 | 0.00 | 66 | 1015.2 |
| 20260901141454 | 60 | 83 | 2.0 | 0.0 | 0.00 | 0.00 | 0.00 | 66 | 1014.0 |
| 20260901141425 | 60 | 83 | 2.0 | 0.0 | 0.00 | 0.00 | 0.00 | 67 | 1014.0 |
| 20260901141352 | 60 | 83 | 2.0 | 0.0 | 0.00 | 0.00 | 0.00 | 66 | 1014.0 |
| 20260901141343 | 60 | 83 | 2.0 | 0.0 | 0.00 | 0.00 | 0.00 | 66 | 1014.0 |
| 20260901141333 | 60 | 83 | 2.0 | 0.0 | 0.00 | 0.00 | 0.00 | 67 | 1014.0 |
| 20260901141324 | 60 | 83 | 2.0 | 0.0 | 0.00 | 0.00 | 0.00 | 67 | 1014.0 |
| 20260901141050 | 59 | 67 | 1.0 | 2.0 | 0.00 | 0.00 | 0.00 | 67 | 1015.0 |
| 20260901141025 | 59 | 83 | 2.0 | 0.0 | 0.00 | 0.00 | 0.00 | 67 | 1014.0 |
| 20260901140955 | 59 | 83 | 2.0 | 0.0 | 0.00 | 0.00 | 0.00 | 66 | 1014.0 |
| 20260901140925 | 59 | 83 | 2.0 | 0.0 | 0.00 | 0.00 | 0.00 | 66 | 1014.0 |
| 20260901140825 | 59 | 83 | 2.0 | 0.0 | 0.00 | 0.00 | 0.00 | 66 | 1014.0 |
| 20260901140813 | 59 | 114 | 2.0 | 0.0 | 0.00 | 0.00 | 0.00 | 67 | 1013.9 |
| 20260901140756 | 59 | 83 | 2.0 | 2.0 | 0.00 | 0.00 | 0.00 | 66 | 1014.0 |
| 20260901140745 | 59 | 114 | 2.0 | 0.0 | 0.00 | 0.00 | 0.00 | 68 | 1013.9 |
| 20260901140740 | 59 | 114 | 2.0 | 0.0 | 0.00 | 0.00 | 0.00 | 66 | 1013.9 |
| 20260901140549 | 59 | 74 | 2.0 | 2.0 | 0.00 | 0.00 | 0.00 | 66 | 1014.9 |
| 20260901140526 | 59 | 114 | 2.0 | 0.0 | 0.00 | 0.00 | 0.00 | 66 | 1013.9 |
| 20260901140513 | 59 | 114 | 2.0 | 0.0 | 0.00 | 0.00 | 0.00 | 67 | 1013.9 |
| 20260901140505 | 59 | 114 | 2.0 | 0.0 | 0.00 | 0.00 | 0.00 | 66 | 1013.9 |
| 20260901140455 | 59 | 114 | 2.0 | 0.0 | 0.00 | 0.00 | 0.00 | 66 | 1013.9 |
| 20260901140444 | 59 | 114 | 2.0 | 0.0 | 0.00 | 0.00 | 0.00 | 67 | 1013.9 |
| 20260901140158 | 59 | 48 | 2.0 | 0.0 | 0.00 | 0.00 | 0.00 | 67 | 1013.9 |
| 20260901140144 | 59 | 114 | 2.0 | 0.0 | 0.00 | 0.00 | 0.00 | 68 | 1013.9 |
| 20260901140043 | 59 | 84 | 0.0 | 2.0 | 0.00 | 0.00 | 0.00 | 68 | 1015.1 |
| 20260901135955 | 59 | 114 | 2.0 | 0.0 | 0.00 | 0.00 | 0.00 | 68 | 1013.9 |
| 20260901135924 | 59 | 114 | 2.0 | 0.0 | 0.00 | 0.00 | 0.00 | 68 | 1013.9 |
| 20260901135825 | 59 | 114 | 2.0 | 0.0 | 0.00 | 0.00 | 0.00 | 67 | 1013.9 |
| 20260901135755 | 59 | 114 | 2.0 | 2.0 | 0.00 | 0.00 | 0.00 | 67 | 1013.9 |
| 20260901135738 | 59 | 48 | 2.0 | 0.0 | 0.00 | 0.00 | 0.00 | 67 | 1013.9 |
| 20260901135555 | 59 | 48 | 2.0 | 0.0 | 0.00 | 0.00 | 0.00 | 66 | 1013.9 |
| 20260901135542 | 59 | 98 | 2.0 | 2.0 | 0.00 | 0.00 | 0.00 | 67 | 1014.8 |
| 20260901135523 | 59 | 48 | 2.0 | 0.0 | 0.00 | 0.00 | 0.00 | 67 | 1013.9 |
| 20260901135434 | 59 | 48 | 2.0 | 0.0 | 0.00 | 0.00 | 0.00 | 67 | 1013.9 |
| 20260901135425 | 59 | 48 | 2.0 | 0.0 | 0.00 | 0.00 | 0.00 | 67 | 1013.9 |
| 20260901135353 | 59 | 48 | 2.0 | 0.0 | 0.00 | 0.00 | 0.00 | 67 | 1013.9 |
| 20260901135324 | 59 | 48 | 2.0 | 0.0 | 0.00 | 0.00 | 0.00 | 66 | 1013.9 |
| 20260901135253 | 59 | 48 | 2.0 | 0.0 | 0.00 | 0.00 | 0.00 | 67 | 1013.9 |
| 20260901135223 | 59 | 48 | 2.0 | 0.0 | 0.00 | 0.00 | 0.00 | 67 | 1013.9 |
| 20260901135124 | 59 | 48 | 2.0 | 0.0 | 0.00 | 0.00 | 0.00 | 66 | 1013.9 |
| 20260901135114 | 59 | 48 | 2.0 | 0.0 | 0.00 | 0.00 | 0.00 | 66 | 1013.9 |
| 20260901135104 | 59 | 48 | 2.0 | 0.0 | 0.00 | 0.00 | 0.00 | 67 | 1013.9 |
| 20260901135038 | 59 | 130 | 0.0 | 2.0 | 0.00 | 0.00 | 0.00 | 67 | 1015.0 |
| 20260901134923 | 59 | 48 | 2.0 | 0.0 | 0.00 | 0.00 | 0.00 | 67 | 1013.9 |
| 20260901134823 | 58 | 48 | 2.0 | 0.0 | 0.00 | 0.00 | 0.00 | 67 | 1013.9 |
| 20260901134755 | 58 | 48 | 2.0 | 2.0 | 0.00 | 0.00 | 0.00 | 67 | 1013.9 |
| 20260901134723 | 58 | 45 | 0.0 | 0.0 | 0.00 | 0.00 | 0.00 | 67 | 1014.0 |
| 20260901134654 | 58 | 45 | 0.0 | 0.0 | 0.00 | 0.00 | 0.00 | 67 | 1014.0 |
| 20260901134623 | 58 | 45 | 0.0 | 0.0 | 0.00 | 0.00 | 0.00 | 67 | 1014.0 |
| 20260901134559 | 58 | 45 | 0.0 | 0.0 | 0.00 | 0.00 | 0.00 | 70 | 1014.0 |
| 20260901134555 | 58 | 45 | 0.0 | 0.0 | 0.00 | 0.00 | 0.00 | 67 | 1014.0 |
| 20260901134535 | 59 | 86 | 1.0 | 2.0 | 0.00 | 0.00 | 0.00 | 68 | 1014.9 |
| 20260901134524 | 58 | 45 | 0.0 | 0.0 | 0.00 | 0.00 | 0.00 | 68 | 1014.0 |
| 20260901134425 | 58 | 45 | 0.0 | 0.0 | 0.00 | 0.00 | 0.00 | 68 | 1014.0 |
| 20260901134359 | 58 | 45 | 0.0 | 0.0 | 0.00 | 0.00 | 0.00 | 70 | 1014.0 |
| 20260901134324 | 58 | 45 | 0.0 | 0.0 | 0.00 | 0.00 | 0.00 | 68 | 1014.0 |
| 20260901134244 | 58 | 45 | 0.0 | 0.0 | 0.00 | 0.00 | 0.00 | 69 | 1014.0 |
| 20260901134235 | 58 | 45 | 0.0 | 0.0 | 0.00 | 0.00 | 0.00 | 69 | 1014.0 |
| 20260901134044 | 58 | 103 | 1.0 | 0.0 | 0.00 | 0.00 | 0.00 | 74 | 1013.9 |
| 20260901134039 | 58 | 45 | 0.0 | 0.0 | 0.00 | 0.00 | 0.00 | 70 | 1014.0 |
| 20260901134034 | 58 | 57 | 1.0 | 2.0 | 0.00 | 0.00 | 0.00 | 70 | 1015.0 |
| 20260901133853 | 58 | 45 | 0.0 | 0.0 | 0.00 | 0.00 | 0.00 | 71 | 1014.0 |
| 20260901133823 | 58 | 45 | 0.0 | 0.0 | 0.00 | 0.00 | 0.00 | 71 | 1014.0 |
| 20260901133755 | 58 | 45 | 0.0 | 2.0 | 0.00 | 0.00 | 0.00 | 73 | 1014.0 |
| 20260901133728 | 58 | 103 | 1.0 | 0.0 | 0.00 | 0.00 | 0.00 | 73 | 1013.9 |
| 20260901133716 | 58 | 103 | 1.0 | 0.0 | 0.00 | 0.00 | 0.00 | 74 | 1013.9 |
| 20260901133705 | 58 | 103 | 1.0 | 0.0 | 0.00 | 0.00 | 0.00 | 73 | 1013.9 |
| 20260901133533 | 58 | 44 | 1.0 | 2.0 | 0.00 | 0.00 | 0.00 | 74 | 1014.8 |
| 20260901133523 | 58 | 103 | 1.0 | 0.0 | 0.00 | 0.00 | 0.00 | 74 | 1013.9 |
| 20260901133508 | 58 | 103 | 1.0 | 0.0 | 0.00 | 0.00 | 0.00 | 74 | 1013.9 |
| 20260901133455 | 58 | 103 | 1.0 | 0.0 | 0.00 | 0.00 | 0.00 | 74 | 1013.9 |
| 20260901133424 | 58 | 103 | 1.0 | 0.0 | 0.00 | 0.00 | 0.00 | 74 | 1013.9 |
| 20260901133357 | 58 | 103 | 1.0 | 0.0 | 0.00 | 0.00 | 0.00 | 74 | 1013.9 |
| 20260901133353 | 58 | 103 | 1.0 | 0.0 | 0.00 | 0.00 | 0.00 | 74 | 1013.9 |
| 20260901133343 | 58 | 103 | 1.0 | 0.0 | 0.00 | 0.00 | 0.00 | 73 | 1013.9 |
| 20260901133334 | 58 | 103 | 1.0 | 0.0 | 0.00 | 0.00 | 0.00 | 73 | 1013.9 |
| 20260901133140 | 58 | 103 | 1.0 | 0.0 | 0.00 | 0.00 | 0.00 | 74 | 1013.9 |
| 20260901133033 | 59 | 62 | 0.0 | 2.0 | 0.00 | 0.00 | 0.00 | 74 | 1014.8 |
| 20260901133002 | 58 | 62 | 1.0 | 0.0 | 0.00 | 0.00 | 0.00 | 73 | 1014.0 |
| 20260901132952 | 58 | 103 | 1.0 | 0.0 | 0.00 | 0.00 | 0.00 | 74 | 1013.9 |
| 20260901132755 | 58 | 103 | 1.0 | 2.0 | 0.00 | 0.00 | 0.00 | 74 | 1013.9 |
| 20260901132723 | 59 | 62 | 1.0 | 0.0 | 0.00 | 0.00 | 0.00 | 74 | 1014.0 |
| 20260901132706 | 58 | 62 | 1.0 | 0.0 | 0.00 | 0.00 | 0.00 | 74 | 1014.0 |
| 20260901132653 | 58 | 62 | 1.0 | 0.0 | 0.00 | 0.00 | 0.00 | 74 | 1014.0 |
| 20260901132623 | 58 | 62 | 1.0 | 0.0 | 0.00 | 0.00 | 0.00 | 73 | 1014.0 |
| 20260901132604 | 58 | 62 | 1.0 | 0.0 | 0.00 | 0.00 | 0.00 | 73 | 1014.0 |
| 20260901132532 | 59 | 94 | 0.0 | 2.0 | 0.00 | 0.00 | 0.00 | 73 | 1014.9 |
| 20260901132430 | 58 | 62 | 1.0 | 0.0 | 0.00 | 0.00 | 0.00 | 73 | 1014.0 |
| 20260901132354 | 58 | 62 | 1.0 | 0.0 | 0.00 | 0.00 | 0.00 | 76 | 1014.0 |
| 20260901132344 | 58 | 62 | 1.0 | 0.0 | 0.00 | 0.00 | 0.00 | 73 | 1014.0 |
| 20260901132126 | 58 | 62 | 1.0 | 0.0 | 0.00 | 0.00 | 0.00 | 74 | 1014.0 |
| 20260901132043 | 58 | 41 | 2.0 | 0.0 | 0.00 | 0.00 | 0.00 | 80 | 1013.9 |
| 20260901132039 | 58 | 62 | 1.0 | 0.0 | 0.00 | 0.00 | 0.00 | 75 | 1014.0 |
| 20260901132029 | 58 | 62 | 1.0 | 0.0 | 0.00 | 0.00 | 0.00 | 75 | 1014.0 |
| 20260901132027 | 58 | 12 | 2.0 | 3.0 | 0.00 | 0.00 | 0.00 | 76 | 1015.0 |
| 20260901132006 | 58 | 62 | 1.0 | 0.0 | 0.00 | 0.00 | 0.00 | 76 | 1014.0 |
| 20260901131824 | 58 | 62 | 1.0 | 0.0 | 0.00 | 0.00 | 0.00 | 77 | 1014.0 |
| 20260901131755 | 58 | 62 | 1.0 | 3.0 | 0.00 | 0.00 | 0.00 | 77 | 1014.0 |
| 20260901131724 | 58 | 41 | 2.0 | 0.0 | 0.00 | 0.00 | 0.00 | 77 | 1013.9 |
| 20260901131653 | 58 | 41 | 2.0 | 0.0 | 0.00 | 0.00 | 0.00 | 78 | 1013.9 |
| 20260901131623 | 58 | 41 | 2.0 | 0.0 | 0.00 | 0.00 | 0.00 | 79 | 1013.9 |
| 20260901131540 | 58 | 41 | 2.0 | 0.0 | 0.00 | 0.00 | 0.00 | 79 | 1013.9 |
| 20260901131527 | 58 | 126 | 1.0 | 2.0 | 0.00 | 0.00 | 0.00 | 79 | 1014.9 |
| 20260901131401 | 58 | 41 | 2.0 | 0.0 | 0.00 | 0.00 | 0.00 | 80 | 1013.9 |
| 20260901131324 | 58 | 41 | 2.0 | 0.0 | 0.00 | 0.00 | 0.00 | 80 | 1013.9 |
| 20260901131254 | 58 | 41 | 2.0 | 0.0 | 0.00 | 0.00 | 0.00 | 80 | 1013.9 |
| 20260901131224 | 58 | 41 | 2.0 | 0.0 | 0.00 | 0.00 | 0.00 | 80 | 1013.9 |
| 20260901131154 | 58 | 41 | 2.0 | 0.0 | 0.00 | 0.00 | 0.00 | 80 | 1013.9 |
| 20260901131123 | 58 | 41 | 2.0 | 0.0 | 0.00 | 0.00 | 0.00 | 80 | 1013.9 |
| 20260901131044 | 58 | 65 | 0.0 | 0.0 | 0.00 | 0.00 | 0.00 | 81 | 1014.0 |
| 20260901131040 | 58 | 41 | 2.0 | 0.0 | 0.00 | 0.00 | 0.00 | 80 | 1013.9 |
| 20260901131022 | 58 | 42 | 2.0 | 2.0 | 0.00 | 0.00 | 0.00 | 80 | 1015.0 |
| 20260901130854 | 58 | 41 | 2.0 | 0.0 | 0.00 | 0.00 | 0.00 | 80 | 1013.9 |
| 20260901130823 | 58 | 41 | 2.0 | 0.0 | 0.00 | 0.00 | 0.00 | 81 | 1013.9 |
| 20260901130808 | 58 | 41 | 2.0 | 2.0 | 0.00 | 0.00 | 0.00 | 81 | 1013.9 |
| 20260901130725 | 58 | 65 | 0.0 | 0.0 | 0.00 | 0.00 | 0.00 | 81 | 1014.0 |
| 20260901130650 | 58 | 65 | 0.0 | 0.0 | 0.00 | 0.00 | 0.00 | 81 | 1014.0 |
| 20260901130522 | 58 | 55 | 2.0 | 2.0 | 0.00 | 0.00 | 0.00 | 81 | 1014.8 |
| 20260901130424 | 58 | 65 | 0.0 | 0.0 | 0.00 | 0.00 | 0.00 | 82 | 1014.0 |
| 20260901130359 | 58 | 65 | 0.0 | 0.0 | 0.00 | 0.00 | 0.00 | 83 | 1014.0 |
| 20260901130324 | 58 | 65 | 0.0 | 0.0 | 0.00 | 0.00 | 0.00 | 82 | 1014.0 |
| 20260901130224 | 58 | 65 | 0.0 | 0.0 | 0.00 | 0.00 | 0.00 | 82 | 1014.0 |
| 20260901130209 | 58 | 65 | 0.0 | 0.0 | 0.00 | 0.00 | 0.00 | 82 | 1014.0 |
| 20260901130124 | 58 | 65 | 0.0 | 0.0 | 0.00 | 0.00 | 0.00 | 83 | 1014.0 |
| 20260901130053 | 58 | 65 | 0.0 | 0.0 | 0.00 | 0.00 | 0.00 | 83 | 1014.0 |
| 20260901130020 | 58 | 59 | 2.0 | 2.0 | 0.00 | 0.00 | 0.00 | 83 | 1014.8 |
| 20260901125854 | 58 | 65 | 0.0 | 0.0 | 0.00 | 0.00 | 0.00 | 83 | 1014.0 |
| 20260901125831 | 58 | 83 | 2.0 | 0.0 | 0.00 | 0.00 | 0.00 | 84 | 1014.0 |
| 20260901125823 | 58 | 65 | 0.0 | 0.0 | 0.00 | 0.00 | 0.00 | 84 | 1014.0 |
| 20260901125755 | 58 | 65 | 0.0 | 2.0 | 0.00 | 0.00 | 0.00 | 84 | 1014.0 |
| 20260901125723 | 58 | 83 | 2.0 | 0.0 | 0.00 | 0.00 | 0.00 | 84 | 1014.0 |
| 20260901125654 | 58 | 83 | 2.0 | 0.0 | 0.00 | 0.00 | 0.00 | 84 | 1014.0 |
| 20260901125623 | 58 | 83 | 2.0 | 0.0 | 0.00 | 0.00 | 0.00 | 84 | 1014.0 |
| 20260901125528 | 58 | 83 | 2.0 | 0.0 | 0.00 | 0.00 | 0.00 | 84 | 1014.0 |
| 20260901125524 | 58 | 83 | 2.0 | 0.0 | 0.00 | 0.00 | 0.00 | 84 | 1014.0 |
| 20260901125519 | 58 | 73 | 2.0 | 2.0 | 0.00 | 0.00 | 0.00 | 84 | 1014.9 |
| 20260901125507 | 58 | 83 | 2.0 | 0.0 | 0.00 | 0.00 | 0.00 | 84 | 1014.0 |
| 20260901125323 | 58 | 83 | 2.0 | 0.0 | 0.00 | 0.00 | 0.00 | 84 | 1014.0 |
| 20260901125224 | 58 | 83 | 2.0 | 0.0 | 0.00 | 0.00 | 0.00 | 84 | 1014.0 |
| 20260901125145 | 58 | 86 | 1.0 | 0.0 | 0.00 | 0.00 | 0.00 | 84 | 1013.8 |
| 20260901125141 | 58 | 83 | 2.0 | 0.0 | 0.00 | 0.00 | 0.00 | 84 | 1014.0 |
| 20260901125014 | 58 | 44 | 2.0 | 2.0 | 0.00 | 0.00 | 0.00 | 84 | 1014.9 |
| 20260901124924 | 58 | 83 | 2.0 | 0.0 | 0.00 | 0.00 | 0.00 | 84 | 1014.0 |
| 20260901124824 | 58 | 83 | 2.0 | 0.0 | 0.00 | 0.00 | 0.00 | 84 | 1014.0 |
| 20260901124755 | 58 | 83 | 2.0 | 2.0 | 0.00 | 0.00 | 0.00 | 84 | 1014.0 |
| 20260901124742 | 58 | 86 | 1.0 | 0.0 | 0.00 | 0.00 | 0.00 | 84 | 1013.8 |
| 20260901124554 | 58 | 86 | 1.0 | 0.0 | 0.00 | 0.00 | 0.00 | 84 | 1013.8 |
| 20260901124523 | 58 | 86 | 1.0 | 0.0 | 0.00 | 0.00 | 0.00 | 84 | 1013.8 |
| 20260901124509 | 58 | 101 | 2.0 | 3.0 | 0.00 | 0.00 | 0.00 | 84 | 1014.9 |
| 20260901124436 | 58 | 86 | 1.0 | 0.0 | 0.00 | 0.00 | 0.00 | 84 | 1013.8 |
| 20260901124406 | 58 | 86 | 1.0 | 0.0 | 0.00 | 0.00 | 0.00 | 84 | 1013.8 |
| 20260901124324 | 58 | 86 | 1.0 | 0.0 | 0.00 | 0.00 | 0.00 | 84 | 1013.8 |
| 20260901124304 | 58 | 86 | 1.0 | 0.0 | 0.00 | 0.00 | 0.00 | 84 | 1013.8 |
| 20260901124225 | 58 | 86 | 1.0 | 0.0 | 0.00 | 0.00 | 0.00 | 84 | 1013.8 |
| 20260901124124 | 58 | 86 | 1.0 | 0.0 | 0.00 | 0.00 | 0.00 | 84 | 1013.8 |
| 20260901124033 | 58 | 54 | 2.0 | 0.0 | 0.00 | 0.00 | 0.00 | 84 | 1013.9 |
| 20260901124028 | 58 | 86 | 1.0 | 0.0 | 0.00 | 0.00 | 0.00 | 84 | 1013.8 |
| 20260901124009 | 58 | 91 | 2.0 | 2.0 | 0.00 | 0.00 | 0.00 | 84 | 1014.8 |
| 20260901123938 | 58 | 86 | 1.0 | 0.0 | 0.00 | 0.00 | 0.00 | 84 | 1013.8 |
| 20260901123755 | 58 | 86 | 1.0 | 2.0 | 0.00 | 0.00 | 0.00 | 84 | 1013.8 |
| 20260901123723 | 58 | 54 | 2.0 | 0.0 | 0.00 | 0.00 | 0.00 | 84 | 1013.9 |
| 20260901123705 | 58 | 54 | 2.0 | 0.0 | 0.00 | 0.00 | 0.00 | 84 | 1013.9 |
| 20260901123523 | 59 | 54 | 2.0 | 0.0 | 0.00 | 0.00 | 0.00 | 84 | 1013.9 |
| 20260901123504 | 59 | 60 | 2.0 | 2.0 | 0.00 | 0.00 | 0.00 | 84 | 1014.8 |
| 20260901123424 | 59 | 54 | 2.0 | 0.0 | 0.00 | 0.00 | 0.00 | 84 | 1013.9 |
| 20260901123355 | 59 | 54 | 2.0 | 0.0 | 0.00 | 0.00 | 0.00 | 84 | 1013.9 |
| 20260901123333 | 59 | 54 | 2.0 | 0.0 | 0.00 | 0.00 | 0.00 | 84 | 1013.9 |
| 20260901123324 | 59 | 54 | 2.0 | 0.0 | 0.00 | 0.00 | 0.00 | 84 | 1013.9 |
| 20260901123224 | 59 | 54 | 2.0 | 0.0 | 0.00 | 0.00 | 0.00 | 84 | 1013.9 |
| 20260901123154 | 59 | 54 | 2.0 | 0.0 | 0.00 | 0.00 | 0.00 | 84 | 1013.9 |
| 20260901123124 | 59 | 54 | 2.0 | 0.0 | 0.00 | 0.00 | 0.00 | 84 | 1013.9 |
| 20260901123026 | 59 | 54 | 2.0 | 0.0 | 0.00 | 0.00 | 0.00 | 84 | 1013.9 |
| 20260901123003 | 59 | 50 | 3.0 | 4.0 | 0.00 | 0.00 | 0.00 | 84 | 1014.8 |
| 20260901122955 | 59 | 54 | 2.0 | 0.0 | 0.00 | 0.00 | 0.00 | 84 | 1013.9 |
| 20260901122755 | 59 | 54 | 2.0 | 2.0 | 0.00 | 0.00 | 0.00 | 84 | 1013.9 |
| 20260901122724 | 59 | 32 | 2.0 | 0.0 | 0.00 | 0.00 | 0.00 | 84 | 1013.9 |
| 20260901122654 | 59 | 32 | 2.0 | 0.0 | 0.00 | 0.00 | 0.00 | 84 | 1013.9 |
| 20260901122623 | 59 | 32 | 2.0 | 0.0 | 0.00 | 0.00 | 0.00 | 84 | 1013.9 |
| 20260901122536 | 59 | 32 | 2.0 | 0.0 | 0.00 | 0.00 | 0.00 | 84 | 1013.9 |
| 20260901122505 | 59 | 32 | 2.0 | 0.0 | 0.00 | 0.00 | 0.00 | 84 | 1013.9 |
| 20260901122457 | 59 | 45 | 1.0 | 2.0 | 0.00 | 0.00 | 0.00 | 84 | 1014.8 |
| 20260901122426 | 59 | 32 | 2.0 | 0.0 | 0.00 | 0.00 | 0.00 | 84 | 1013.9 |
| 20260901122324 | 59 | 32 | 2.0 | 0.0 | 0.00 | 0.00 | 0.00 | 84 | 1013.9 |
| 20260901122306 | 59 | 32 | 2.0 | 0.0 | 0.00 | 0.00 | 0.00 | 84 | 1013.9 |
| 20260901122224 | 59 | 32 | 2.0 | 0.0 | 0.00 | 0.00 | 0.00 | 84 | 1013.9 |
| 20260901122148 | 59 | 32 | 2.0 | 0.0 | 0.00 | 0.00 | 0.00 | 84 | 1013.9 |
| 20260901121956 | 59 | 41 | 1.0 | 2.0 | 0.00 | 0.00 | 0.00 | 84 | 1014.8 |
| 20260901121938 | 59 | 32 | 2.0 | 0.0 | 0.00 | 0.00 | 0.00 | 84 | 1013.9 |
| 20260901121803 | 58 | 44 | 0.0 | 0.0 | 0.00 | 0.00 | 0.00 | 84 | 1013.8 |
| 20260901121755 | 59 | 32 | 2.0 | 2.0 | 0.00 | 0.00 | 0.00 | 84 | 1013.9 |
| 20260901121723 | 59 | 44 | 0.0 | 0.0 | 0.00 | 0.00 | 0.00 | 84 | 1013.8 |
| 20260901121624 | 59 | 44 | 0.0 | 0.0 | 0.00 | 0.00 | 0.00 | 84 | 1013.8 |
| 20260901121523 | 59 | 44 | 0.0 | 0.0 | 0.00 | 0.00 | 0.00 | 84 | 1013.8 |
| 20260901121451 | 59 | 62 | 0.0 | 0.0 | 0.00 | 0.00 | 0.00 | 84 | 1014.7 |
| 20260901121443 | 59 | 44 | 0.0 | 0.0 | 0.00 | 0.00 | 0.00 | 84 | 1013.8 |
| 20260901121434 | 59 | 44 | 0.0 | 0.0 | 0.00 | 0.00 | 0.00 | 84 | 1013.8 |
| 20260901121254 | 58 | 44 | 0.0 | 0.0 | 0.00 | 0.00 | 0.00 | 84 | 1013.8 |
| 20260901121227 | 59 | 44 | 0.0 | 0.0 | 0.00 | 0.00 | 0.00 | 84 | 1013.8 |
| 20260901121200 | 59 | 48 | 1.0 | 0.0 | 0.00 | 0.00 | 0.00 | 84 | 1013.8 |
| 20260901121155 | 59 | 44 | 0.0 | 0.0 | 0.00 | 0.00 | 0.00 | 84 | 1013.8 |
| 20260901121124 | 59 | 44 | 0.0 | 0.0 | 0.00 | 0.00 | 0.00 | 84 | 1013.8 |
| 20260901121027 | 59 | 44 | 0.0 | 0.0 | 0.00 | 0.00 | 0.00 | 84 | 1013.8 |
| 20260901120946 | 59 | 256 | 0.0 | 0.0 | 0.00 | 0.00 | 0.00 | 84 | 1014.8 |
| 20260901120924 | 59 | 44 | 0.0 | 0.0 | 0.00 | 0.00 | 0.00 | 84 | 1013.8 |
| 20260901120852 | 59 | 44 | 0.0 | 0.0 | 0.00 | 0.00 | 0.00 | 84 | 1013.8 |
| 20260901120842 | 58 | 44 | 0.0 | 0.0 | 0.00 | 0.00 | 0.00 | 84 | 1013.8 |
| 20260901120623 | 59 | 48 | 1.0 | 0.0 | 0.00 | 0.00 | 0.00 | 84 | 1013.8 |
| 20260901120601 | 58 | 48 | 1.0 | 0.0 | 0.00 | 0.00 | 0.00 | 85 | 1013.8 |
| 20260901120524 | 59 | 48 | 1.0 | 0.0 | 0.00 | 0.00 | 0.00 | 84 | 1013.8 |
| 20260901120454 | 59 | 48 | 1.0 | 0.0 | 0.00 | 0.00 | 0.00 | 84 | 1013.8 |
| 20260901120446 | 59 | 68 | 0.0 | 3.0 | 0.00 | 0.00 | 0.00 | 85 | 1014.8 |
| 20260901120424 | 58 | 48 | 1.0 | 0.0 | 0.00 | 0.00 | 0.00 | 85 | 1013.8 |
| 20260901120326 | 58 | 48 | 1.0 | 0.0 | 0.00 | 0.00 | 0.00 | 85 | 1013.8 |
| 20260901120306 | 58 | 48 | 1.0 | 0.0 | 0.00 | 0.00 | 0.00 | 85 | 1013.8 |
| 20260901120229 | 58 | 48 | 1.0 | 0.0 | 0.00 | 0.00 | 0.00 | 85 | 1013.8 |
| 20260901120217 | 58 | 48 | 1.0 | 0.0 | 0.00 | 0.00 | 0.00 | 85 | 1013.8 |
| 20260901120030 | 58 | 72 | 1.0 | 0.0 | 0.00 | 0.00 | 0.00 | 84 | 1013.8 |
| 20260901120026 | 58 | 48 | 1.0 | 0.0 | 0.00 | 0.00 | 0.00 | 85 | 1013.8 |
| 20260901115942 | 58 | 57 | 2.0 | 3.0 | 0.00 | 0.00 | 0.00 | 85 | 1014.7 |
| 20260901115939 | 58 | 48 | 1.0 | 0.0 | 0.00 | 0.00 | 0.00 | 85 | 1013.8 |
| 20260901115755 | 58 | 48 | 1.0 | 2.0 | 0.00 | 0.00 | 0.00 | 85 | 1013.8 |
| 20260901115724 | 58 | 72 | 1.0 | 0.0 | 0.00 | 0.00 | 0.00 | 85 | 1013.8 |
| 20260901115704 | 58 | 72 | 1.0 | 0.0 | 0.00 | 0.00 | 0.00 | 84 | 1013.8 |
| 20260901115524 | 58 | 72 | 1.0 | 0.0 | 0.00 | 0.00 | 0.00 | 84 | 1013.8 |
| 20260901115455 | 58 | 72 | 1.0 | 0.0 | 0.00 | 0.00 | 0.00 | 84 | 1013.8 |
| 20260901115442 | 58 | 73 | 0.0 | 1.0 | 0.00 | 0.00 | 0.00 | 84 | 1014.6 |
| 20260901115423 | 58 | 72 | 1.0 | 0.0 | 0.00 | 0.00 | 0.00 | 84 | 1013.8 |
| 20260901115355 | 58 | 72 | 1.0 | 0.0 | 0.00 | 0.00 | 0.00 | 84 | 1013.8 |
| 20260901115324 | 58 | 72 | 1.0 | 0.0 | 0.00 | 0.00 | 0.00 | 84 | 1013.8 |
| 20260901115254 | 58 | 72 | 1.0 | 0.0 | 0.00 | 0.00 | 0.00 | 84 | 1013.8 |
| 20260901115223 | 58 | 72 | 1.0 | 0.0 | 0.00 | 0.00 | 0.00 | 84 | 1013.8 |
| 20260901115125 | 58 | 72 | 1.0 | 0.0 | 0.00 | 0.00 | 0.00 | 84 | 1013.8 |
| 20260901115027 | 58 | 72 | 1.0 | 0.0 | 0.00 | 0.00 | 0.00 | 84 | 1013.8 |
| 20260901114954 | 58 | 72 | 1.0 | 0.0 | 0.00 | 0.00 | 0.00 | 84 | 1013.8 |
| 20260901114940 | 58 | 69 | 0.0 | 2.0 | 0.00 | 0.00 | 0.00 | 83 | 1014.8 |
| 20260901114924 | 58 | 72 | 1.0 | 0.0 | 0.00 | 0.00 | 0.00 | 84 | 1013.8 |
| 20260901114912 | 58 | 74 | 1.0 | 0.0 | 0.00 | 0.00 | 0.00 | 83 | 1013.6 |
| 20260901114824 | 58 | 72 | 1.0 | 0.0 | 0.00 | 0.00 | 0.00 | 83 | 1013.8 |
| 20260901114757 | 58 | 72 | 1.0 | 1.0 | 0.00 | 0.00 | 0.00 | 83 | 1013.8 |
| 20260901114736 | 58 | 74 | 1.0 | 0.0 | 0.00 | 0.00 | 0.00 | 83 | 1013.6 |
| 20260901114724 | 58 | 74 | 1.0 | 0.0 | 0.00 | 0.00 | 0.00 | 83 | 1013.6 |
| 20260901114624 | 58 | 74 | 1.0 | 0.0 | 0.00 | 0.00 | 0.00 | 83 | 1013.6 |
| 20260901114558 | 58 | 74 | 1.0 | 0.0 | 0.00 | 0.00 | 0.00 | 82 | 1013.6 |
| 20260901114542 | 58 | 74 | 1.0 | 0.0 | 0.00 | 0.00 | 0.00 | 82 | 1013.6 |
| 20260901114538 | 58 | 74 | 1.0 | 0.0 | 0.00 | 0.00 | 0.00 | 83 | 1013.6 |
| 20260901114435 | 58 | 72 | 0.0 | 2.0 | 0.00 | 0.00 | 0.00 | 83 | 1014.6 |
| 20260901114405 | 58 | 74 | 1.0 | 0.0 | 0.00 | 0.00 | 0.00 | 83 | 1013.6 |
| 20260901114236 | 58 | 75 | 2.0 | 0.0 | 0.00 | 0.00 | 0.00 | 81 | 1013.8 |
| 20260901114230 | 58 | 74 | 1.0 | 0.0 | 0.00 | 0.00 | 0.00 | 82 | 1013.6 |
| 20260901114218 | 58 | 74 | 1.0 | 0.0 | 0.00 | 0.00 | 0.00 | 82 | 1013.6 |
| 20260901113933 | 58 | 66 | 0.0 | 1.0 | 0.00 | 0.00 | 0.00 | 82 | 1014.6 |
| 20260901113923 | 58 | 74 | 1.0 | 0.0 | 0.00 | 0.00 | 0.00 | 82 | 1013.6 |
| 20260901113846 | 58 | 74 | 1.0 | 0.0 | 0.00 | 0.00 | 0.00 | 82 | 1013.6 |
| 20260901113837 | 58 | 74 | 1.0 | 1.0 | 0.00 | 0.00 | 0.00 | 81 | 1013.6 |
| 20260901113654 | 58 | 75 | 2.0 | 0.0 | 0.00 | 0.00 | 0.00 | 81 | 1013.8 |
| 20260901113624 | 58 | 75 | 2.0 | 0.0 | 0.00 | 0.00 | 0.00 | 81 | 1013.8 |
| 20260901113559 | 58 | 75 | 2.0 | 0.0 | 0.00 | 0.00 | 0.00 | 81 | 1013.8 |
| 20260901113524 | 58 | 75 | 2.0 | 0.0 | 0.00 | 0.00 | 0.00 | 81 | 1013.8 |
| 20260901113453 | 58 | 75 | 2.0 | 0.0 | 0.00 | 0.00 | 0.00 | 81 | 1013.8 |
| 20260901113432 | 58 | 60 | 0.0 | 1.0 | 0.00 | 0.00 | 0.00 | 81 | 1014.7 |
| 20260901113423 | 58 | 75 | 2.0 | 0.0 | 0.00 | 0.00 | 0.00 | 81 | 1013.8 |
| 20260901113354 | 58 | 75 | 2.0 | 0.0 | 0.00 | 0.00 | 0.00 | 81 | 1013.8 |
| 20260901113324 | 58 | 75 | 2.0 | 0.0 | 0.00 | 0.00 | 0.00 | 81 | 1013.8 |
| 20260901113254 | 58 | 75 | 2.0 | 0.0 | 0.00 | 0.00 | 0.00 | 81 | 1013.8 |
| 20260901113224 | 58 | 75 | 2.0 | 0.0 | 0.00 | 0.00 | 0.00 | 81 | 1013.8 |
| 20260901113125 | 58 | 75 | 2.0 | 0.0 | 0.00 | 0.00 | 0.00 | 81 | 1013.8 |
| 20260901113053 | 58 | 75 | 2.0 | 0.0 | 0.00 | 0.00 | 0.00 | 81 | 1013.8 |
| 20260901113026 | 58 | 75 | 2.0 | 0.0 | 0.00 | 0.00 | 0.00 | 80 | 1013.8 |
| 20260901112928 | 58 | 68 | 1.0 | 2.0 | 0.00 | 0.00 | 0.00 | 80 | 1014.5 |
| 20260901112923 | 58 | 75 | 2.0 | 0.0 | 0.00 | 0.00 | 0.00 | 80 | 1013.8 |
| 20260901112854 | 58 | 75 | 2.0 | 0.0 | 0.00 | 0.00 | 0.00 | 80 | 1013.8 |
| 20260901112823 | 58 | 75 | 2.0 | 0.0 | 0.00 | 0.00 | 0.00 | 80 | 1013.8 |
| 20260901112755 | 58 | 75 | 2.0 | 2.0 | 0.00 | 0.00 | 0.00 | 80 | 1013.8 |
| 20260901112724 | 58 | 70 | 2.0 | 0.0 | 0.00 | 0.00 | 0.00 | 80 | 1013.9 |
| 20260901112624 | 58 | 70 | 2.0 | 0.0 | 0.00 | 0.00 | 0.00 | 80 | 1013.9 |
| 20260901112524 | 58 | 70 | 2.0 | 0.0 | 0.00 | 0.00 | 0.00 | 80 | 1013.9 |
| 20260901112423 | 58 | 70 | 2.0 | 0.0 | 0.00 | 0.00 | 0.00 | 80 | 1013.9 |
| 20260901112401 | 58 | 70 | 2.0 | 0.0 | 0.00 | 0.00 | 0.00 | 79 | 1013.9 |
| 20260901112324 | 58 | 70 | 2.0 | 0.0 | 0.00 | 0.00 | 0.00 | 80 | 1013.9 |
| 20260901112224 | 58 | 70 | 2.0 | 0.0 | 0.00 | 0.00 | 0.00 | 80 | 1013.9 |
| 20260901112155 | 58 | 70 | 2.0 | 0.0 | 0.00 | 0.00 | 0.00 | 80 | 1013.9 |
| 20260901112130 | 59 | 69 | 2.0 | 0.0 | 0.00 | 0.00 | 0.00 | 79 | 1013.8 |
| 20260901112123 | 58 | 70 | 2.0 | 0.0 | 0.00 | 0.00 | 0.00 | 80 | 1013.9 |
| 20260901112042 | 58 | 69 | 2.0 | 0.0 | 0.00 | 0.00 | 0.00 | 78 | 1013.8 |
| 20260901112038 | 58 | 70 | 2.0 | 0.0 | 0.00 | 0.00 | 0.00 | 80 | 1013.9 |
| 20260901111918 | 59 | 70 | 1.0 | 2.0 | 0.00 | 0.00 | 0.00 | 79 | 1014.7 |
| 20260901111830 | 58 | 69 | 2.0 | 0.0 | 0.00 | 0.00 | 0.00 | 78 | 1013.8 |
| 20260901111826 | 58 | 70 | 2.0 | 0.0 | 0.00 | 0.00 | 0.00 | 79 | 1013.9 |
| 20260901111804 | 58 | 70 | 2.0 | 2.0 | 0.00 | 0.00 | 0.00 | 79 | 1013.9 |
| 20260901111752 | 59 | 69 | 2.0 | 0.0 | 0.00 | 0.00 | 0.00 | 79 | 1013.8 |
| 20260901111624 | 59 | 69 | 2.0 | 0.0 | 0.00 | 0.00 | 0.00 | 79 | 1013.8 |
| 20260901111616 | 59 | 69 | 2.0 | 0.0 | 0.00 | 0.00 | 0.00 | 79 | 1013.8 |
| 20260901111416 | 59 | 61 | 2.0 | 2.0 | 0.00 | 0.00 | 0.00 | 78 | 1014.7 |
| 20260901111324 | 58 | 69 | 2.0 | 0.0 | 0.00 | 0.00 | 0.00 | 78 | 1013.8 |
| 20260901111254 | 59 | 69 | 2.0 | 0.0 | 0.00 | 0.00 | 0.00 | 78 | 1013.8 |
| 20260901111224 | 59 | 69 | 2.0 | 0.0 | 0.00 | 0.00 | 0.00 | 78 | 1013.8 |
| 20260901111124 | 59 | 69 | 2.0 | 0.0 | 0.00 | 0.00 | 0.00 | 78 | 1013.8 |
| 20260901111025 | 59 | 69 | 2.0 | 0.0 | 0.00 | 0.00 | 0.00 | 78 | 1013.8 |
| 20260901110955 | 59 | 69 | 2.0 | 0.0 | 0.00 | 0.00 | 0.00 | 78 | 1013.8 |
| 20260901110924 | 59 | 69 | 2.0 | 0.0 | 0.00 | 0.00 | 0.00 | 78 | 1013.8 |
| 20260901110915 | 59 | 67 | 0.0 | 2.0 | 0.00 | 0.00 | 0.00 | 77 | 1014.6 |
| 20260901110854 | 59 | 69 | 2.0 | 0.0 | 0.00 | 0.00 | 0.00 | 78 | 1013.8 |
| 20260901110823 | 59 | 69 | 2.0 | 0.0 | 0.00 | 0.00 | 0.00 | 77 | 1013.8 |
| 20260901110756 | 59 | 69 | 2.0 | 2.0 | 0.00 | 0.00 | 0.00 | 77 | 1013.8 |
| 20260901110725 | 59 | 97 | 0.0 | 0.0 | 0.00 | 0.00 | 0.00 | 77 | 1013.7 |
| 20260901110654 | 59 | 97 | 0.0 | 0.0 | 0.00 | 0.00 | 0.00 | 77 | 1013.7 |
| 20260901110624 | 59 | 97 | 0.0 | 0.0 | 0.00 | 0.00 | 0.00 | 77 | 1013.7 |
| 20260901110558 | 59 | 97 | 0.0 | 0.0 | 0.00 | 0.00 | 0.00 | 76 | 1013.7 |
| 20260901110554 | 59 | 97 | 0.0 | 0.0 | 0.00 | 0.00 | 0.00 | 77 | 1013.7 |
| 20260901110523 | 59 | 97 | 0.0 | 0.0 | 0.00 | 0.00 | 0.00 | 77 | 1013.7 |
| 20260901110425 | 59 | 97 | 0.0 | 0.0 | 0.00 | 0.00 | 0.00 | 77 | 1013.7 |
| 20260901110411 | 59 | 73 | 1.0 | 2.0 | 0.00 | 0.00 | 0.00 | 77 | 1014.7 |
| 20260901110325 | 59 | 97 | 0.0 | 0.0 | 0.00 | 0.00 | 0.00 | 77 | 1013.7 |
| 20260901110308 | 59 | 97 | 0.0 | 0.0 | 0.00 | 0.00 | 0.00 | 76 | 1013.7 |
| 20260901110234 | 59 | 68 | 2.0 | 0.0 | 0.00 | 0.00 | 0.00 | 75 | 1013.8 |
| 20260901110229 | 59 | 97 | 0.0 | 0.0 | 0.00 | 0.00 | 0.00 | 76 | 1013.7 |
| 20260901110217 | 59 | 97 | 0.0 | 0.0 | 0.00 | 0.00 | 0.00 | 76 | 1013.7 |
| 20260901110026 | 59 | 97 | 0.0 | 0.0 | 0.00 | 0.00 | 0.00 | 76 | 1013.7 |
| 20260901105924 | 59 | 97 | 0.0 | 0.0 | 0.00 | 0.00 | 0.00 | 76 | 1013.7 |
| 20260901105907 | 59 | 89 | 1.0 | 2.0 | 0.00 | 0.00 | 0.00 | 75 | 1014.7 |
| 20260901105827 | 59 | 97 | 0.0 | 0.0 | 0.00 | 0.00 | 0.00 | 75 | 1013.7 |
| 20260901105816 | 59 | 97 | 0.0 | 2.0 | 0.00 | 0.00 | 0.00 | 75 | 1013.7 |
| 20260901105804 | 59 | 68 | 2.0 | 0.0 | 0.00 | 0.00 | 0.00 | 75 | 1013.8 |
| 20260901105631 | 59 | 68 | 2.0 | 0.0 | 0.00 | 0.00 | 0.00 | 74 | 1013.8 |
| 20260901105624 | 59 | 68 | 2.0 | 0.0 | 0.00 | 0.00 | 0.00 | 75 | 1013.8 |
| 20260901105524 | 59 | 68 | 2.0 | 0.0 | 0.00 | 0.00 | 0.00 | 75 | 1013.8 |
| 20260901105433 | 59 | 68 | 2.0 | 0.0 | 0.00 | 0.00 | 0.00 | 74 | 1013.8 |
| 20260901105425 | 59 | 68 | 2.0 | 0.0 | 0.00 | 0.00 | 0.00 | 75 | 1013.8 |
| 20260901105402 | 59 | 86 | 1.0 | 1.0 | 0.00 | 0.00 | 0.00 | 75 | 1014.6 |
| 20260901105354 | 59 | 68 | 2.0 | 0.0 | 0.00 | 0.00 | 0.00 | 75 | 1013.8 |
| 20260901105323 | 59 | 68 | 2.0 | 0.0 | 0.00 | 0.00 | 0.00 | 74 | 1013.8 |
| 20260901105310 | 59 | 68 | 2.0 | 0.0 | 0.00 | 0.00 | 0.00 | 74 | 1013.8 |
| 20260901105305 | 59 | 68 | 2.0 | 0.0 | 0.00 | 0.00 | 0.00 | 74 | 1013.8 |
| 20260901105124 | 59 | 68 | 2.0 | 0.0 | 0.00 | 0.00 | 0.00 | 74 | 1013.8 |
| 20260901105109 | 59 | 59 | 0.0 | 0.0 | 0.00 | 0.00 | 0.00 | 73 | 1013.6 |
| 20260901105103 | 59 | 68 | 2.0 | 0.0 | 0.00 | 0.00 | 0.00 | 74 | 1013.8 |
| 20260901104943 | 59 | 59 | 0.0 | 0.0 | 0.00 | 0.00 | 0.00 | 73 | 1013.6 |
| 20260901104939 | 59 | 68 | 2.0 | 0.0 | 0.00 | 0.00 | 0.00 | 74 | 1013.8 |
| 20260901104858 | 59 | 70 | 1.0 | 2.0 | 0.00 | 0.00 | 0.00 | 74 | 1014.7 |
| 20260901104755 | 59 | 68 | 2.0 | 2.0 | 0.00 | 0.00 | 0.00 | 74 | 1013.8 |
| 20260901104724 | 59 | 59 | 0.0 | 0.0 | 0.00 | 0.00 | 0.00 | 74 | 1013.6 |
| 20260901104633 | 59 | 59 | 0.0 | 0.0 | 0.00 | 0.00 | 0.00 | 72 | 1013.6 |
| 20260901104629 | 59 | 59 | 0.0 | 0.0 | 0.00 | 0.00 | 0.00 | 74 | 1013.6 |
| 20260901104616 | 59 | 59 | 0.0 | 0.0 | 0.00 | 0.00 | 0.00 | 74 | 1013.6 |
| 20260901104353 | 59 | 34 | 1.0 | 3.0 | 0.00 | 0.00 | 0.00 | 73 | 1014.7 |
| 20260901104325 | 59 | 59 | 0.0 | 0.0 | 0.00 | 0.00 | 0.00 | 73 | 1013.6 |
| 20260901104303 | 59 | 59 | 0.0 | 0.0 | 0.00 | 0.00 | 0.00 | 72 | 1013.6 |
| 20260901104256 | 59 | 59 | 0.0 | 0.0 | 0.00 | 0.00 | 0.00 | 73 | 1013.6 |
| 20260901104224 | 59 | 59 | 0.0 | 0.0 | 0.00 | 0.00 | 0.00 | 73 | 1013.6 |
| 20260901104125 | 59 | 59 | 0.0 | 0.0 | 0.00 | 0.00 | 0.00 | 73 | 1013.6 |
| 20260901104113 | 59 | 57 | 2.0 | 0.0 | 0.00 | 0.00 | 0.00 | 71 | 1013.9 |
| 20260901104105 | 59 | 59 | 0.0 | 0.0 | 0.00 | 0.00 | 0.00 | 72 | 1013.6 |
| 20260901103938 | 59 | 59 | 0.0 | 0.0 | 0.00 | 0.00 | 0.00 | 72 | 1013.6 |
| 20260901103849 | 59 | 51 | 1.0 | 2.0 | 0.00 | 0.00 | 0.00 | 72 | 1014.6 |
| 20260901103755 | 59 | 59 | 0.0 | 1.0 | 0.00 | 0.00 | 0.00 | 72 | 1013.6 |
| 20260901103723 | 59 | 57 | 2.0 | 0.0 | 0.00 | 0.00 | 0.00 | 72 | 1013.9 |
| 20260901103640 | 59 | 57 | 2.0 | 0.0 | 0.00 | 0.00 | 0.00 | 71 | 1013.9 |
| 20260901103507 | 59 | 57 | 2.0 | 0.0 | 0.00 | 0.00 | 0.00 | 71 | 1013.9 |
| 20260901103454 | 59 | 57 | 2.0 | 0.0 | 0.00 | 0.00 | 0.00 | 71 | 1013.9 |
| 20260901103423 | 59 | 57 | 2.0 | 0.0 | 0.00 | 0.00 | 0.00 | 71 | 1013.9 |
| 20260901103349 | 59 | 91 | 0.0 | 2.0 | 0.00 | 0.00 | 0.00 | 71 | 1014.5 |
| 20260901103336 | 59 | 57 | 2.0 | 0.0 | 0.00 | 0.00 | 0.00 | 70 | 1013.9 |
| 20260901103326 | 59 | 57 | 2.0 | 0.0 | 0.00 | 0.00 | 0.00 | 71 | 1013.9 |
| 20260901103306 | 59 | 57 | 2.0 | 0.0 | 0.00 | 0.00 | 0.00 | 71 | 1013.9 |
| 20260901103225 | 59 | 57 | 2.0 | 0.0 | 0.00 | 0.00 | 0.00 | 71 | 1013.9 |
| 20260901103145 | 59 | 57 | 2.0 | 0.0 | 0.00 | 0.00 | 0.00 | 71 | 1013.9 |
| 20260901103016 | 59 | 89 | 1.0 | 0.0 | 0.00 | 0.00 | 0.00 | 70 | 1014.1 |
| 20260901103005 | 59 | 57 | 2.0 | 0.0 | 0.00 | 0.00 | 0.00 | 71 | 1013.9 |
| 20260901102848 | 59 | 79 | 2.0 | 2.0 | 0.00 | 0.00 | 0.00 | 71 | 1014.7 |
| 20260901102825 | 59 | 57 | 2.0 | 0.0 | 0.00 | 0.00 | 0.00 | 70 | 1013.9 |
| 20260901102755 | 59 | 57 | 2.0 | 2.0 | 0.00 | 0.00 | 0.00 | 70 | 1013.9 |
| 20260901102741 | 59 | 89 | 1.0 | 0.0 | 0.00 | 0.00 | 0.00 | 70 | 1014.1 |
| 20260901102737 | 59 | 89 | 1.0 | 0.0 | 0.00 | 0.00 | 0.00 | 70 | 1014.1 |
| 20260901102624 | 59 | 89 | 1.0 | 0.0 | 0.00 | 0.00 | 0.00 | 70 | 1014.1 |
| 20260901102552 | 59 | 89 | 1.0 | 0.0 | 0.00 | 0.00 | 0.00 | 70 | 1014.1 |
| 20260901102529 | 59 | 89 | 1.0 | 0.0 | 0.00 | 0.00 | 0.00 | 70 | 1014.1 |
| 20260901102519 | 59 | 89 | 1.0 | 0.0 | 0.00 | 0.00 | 0.00 | 71 | 1014.1 |
| 20260901102355 | 59 | 89 | 1.0 | 0.0 | 0.00 | 0.00 | 0.00 | 71 | 1014.1 |
| 20260901102347 | 59 | 89 | 1.0 | 0.0 | 0.00 | 0.00 | 0.00 | 71 | 1014.1 |
| 20260901102343 | 59 | 78 | 0.0 | 2.0 | 0.00 | 0.00 | 0.00 | 71 | 1014.8 |
| 20260901102153 | 59 | 89 | 1.0 | 0.0 | 0.00 | 0.00 | 0.00 | 70 | 1014.1 |
| 20260901102138 | 59 | 79 | 1.0 | 0.0 | 0.00 | 0.00 | 0.00 | 70 | 1014.0 |
| 20260901102123 | 59 | 89 | 1.0 | 0.0 | 0.00 | 0.00 | 0.00 | 70 | 1014.1 |
| 20260901102042 | 59 | 79 | 1.0 | 0.0 | 0.00 | 0.00 | 0.00 | 70 | 1014.0 |
| 20260901102037 | 59 | 89 | 1.0 | 0.0 | 0.00 | 0.00 | 0.00 | 70 | 1014.1 |
| 20260901101859 | 59 | 79 | 1.0 | 0.0 | 0.00 | 0.00 | 0.00 | 70 | 1014.0 |
| 20260901101844 | 59 | 79 | 1.0 | 0.0 | 0.00 | 0.00 | 0.00 | 70 | 1014.0 |
| 20260901101839 | 59 | 89 | 1.0 | 0.0 | 0.00 | 0.00 | 0.00 | 70 | 1014.1 |
| 20260901101829 | 59 | 89 | 1.0 | 1.0 | 0.00 | 0.00 | 0.00 | 70 | 1014.1 |
| 20260901101818 | 59 | 79 | 1.0 | 0.0 | 0.00 | 0.00 | 0.00 | 70 | 1014.0 |
| 20260901101524 | 59 | 79 | 1.0 | 0.0 | 0.00 | 0.00 | 0.00 | 70 | 1014.0 |
| 20260901101505 | 59 | 79 | 1.0 | 0.0 | 0.00 | 0.00 | 0.00 | 70 | 1014.0 |
| 20260901101339 | 59 | 63 | 0.0 | 2.0 | 0.00 | 0.00 | 0.00 | 70 | 1014.7 |
| 20260901101323 | 59 | 79 | 1.0 | 0.0 | 0.00 | 0.00 | 0.00 | 70 | 1014.0 |
| 20260901101251 | 59 | 79 | 1.0 | 0.0 | 0.00 | 0.00 | 0.00 | 70 | 1014.0 |
| 20260901101027 | 59 | 79 | 1.0 | 0.0 | 0.00 | 0.00 | 0.00 | 70 | 1014.0 |
| 20260901100954 | 59 | 79 | 1.0 | 0.0 | 0.00 | 0.00 | 0.00 | 70 | 1014.0 |
| 20260901100936 | 59 | 81 | 1.0 | 0.0 | 0.00 | 0.00 | 0.00 | 70 | 1014.0 |
| 20260901100923 | 59 | 79 | 1.0 | 0.0 | 0.00 | 0.00 | 0.00 | 70 | 1014.0 |
| 20260901100838 | 59 | 87 | 0.0 | 2.0 | 0.00 | 0.00 | 0.00 | 70 | 1015.0 |
| 20260901100823 | 59 | 79 | 1.0 | 0.0 | 0.00 | 0.00 | 0.00 | 70 | 1014.0 |
| 20260901100800 | 60 | 81 | 1.0 | 0.0 | 0.00 | 0.00 | 0.00 | 70 | 1014.0 |
| 20260901100755 | 59 | 79 | 1.0 | 2.0 | 0.00 | 0.00 | 0.00 | 70 | 1014.0 |
| 20260901100724 | 59 | 81 | 1.0 | 0.0 | 0.00 | 0.00 | 0.00 | 70 | 1014.0 |
| 20260901100624 | 59 | 81 | 1.0 | 0.0 | 0.00 | 0.00 | 0.00 | 70 | 1014.0 |
| 20260901100605 | 59 | 81 | 1.0 | 0.0 | 0.00 | 0.00 | 0.00 | 70 | 1014.0 |
| 20260901100435 | 59 | 81 | 1.0 | 0.0 | 0.00 | 0.00 | 0.00 | 70 | 1014.0 |
| 20260901100423 | 60 | 81 | 1.0 | 0.0 | 0.00 | 0.00 | 0.00 | 70 | 1014.0 |
| 20260901100419 | 59 | 81 | 1.0 | 0.0 | 0.00 | 0.00 | 0.00 | 70 | 1014.0 |
| 20260901100333 | 60 | 38 | 2.0 | 2.0 | 0.00 | 0.00 | 0.00 | 70 | 1014.8 |
| 20260901100237 | 60 | 81 | 1.0 | 0.0 | 0.00 | 0.00 | 0.00 | 70 | 1014.0 |
| 20260901100207 | 60 | 81 | 1.0 | 0.0 | 0.00 | 0.00 | 0.00 | 70 | 1014.0 |
| 20260901100150 | 59 | 86 | 1.0 | 0.0 | 0.00 | 0.00 | 0.00 | 72 | 1013.9 |
| 20260901100144 | 60 | 81 | 1.0 | 0.0 | 0.00 | 0.00 | 0.00 | 70 | 1014.0 |
| 20260901100110 | 60 | 81 | 1.0 | 0.0 | 0.00 | 0.00 | 0.00 | 70 | 1014.0 |
| 20260901100039 | 59 | 89 | 1.0 | 0.0 | 0.00 | 0.00 | 0.00 | 70 | 1013.9 |
| 20260901100029 | 60 | 81 | 1.0 | 0.0 | 0.00 | 0.00 | 0.00 | 70 | 1014.0 |
| 20260901095837 | 60 | 81 | 1.0 | 0.0 | 0.00 | 0.00 | 0.00 | 70 | 1014.0 |
| 20260901095832 | 59 | 64 | 2.0 | 2.0 | 0.00 | 0.00 | 0.00 | 70 | 1014.9 |
| 20260901095825 | 59 | 81 | 1.0 | 0.0 | 0.00 | 0.00 | 0.00 | 70 | 1014.0 |
| 20260901095814 | 60 | 81 | 1.0 | 2.0 | 0.00 | 0.00 | 0.00 | 71 | 1014.0 |
| 20260901095802 | 60 | 89 | 1.0 | 0.0 | 0.00 | 0.00 | 0.00 | 71 | 1013.9 |
| 20260901095625 | 60 | 89 | 1.0 | 0.0 | 0.00 | 0.00 | 0.00 | 71 | 1013.9 |
| 20260901095617 | 60 | 89 | 1.0 | 0.0 | 0.00 | 0.00 | 0.00 | 71 | 1013.9 |
| 20260901095437 | 59 | 89 | 1.0 | 0.0 | 0.00 | 0.00 | 0.00 | 70 | 1013.9 |
| 20260901095426 | 59 | 89 | 1.0 | 0.0 | 0.00 | 0.00 | 0.00 | 73 | 1013.9 |
| 20260901095419 | 59 | 89 | 1.0 | 0.0 | 0.00 | 0.00 | 0.00 | 71 | 1013.9 |
| 20260901095351 | 59 | 86 | 1.0 | 0.0 | 0.00 | 0.00 | 0.00 | 72 | 1013.9 |
| 20260901095330 | 59 | 63 | 1.0 | 2.0 | 0.00 | 0.00 | 0.00 | 71 | 1014.9 |
| 20260901095316 | 59 | 89 | 1.0 | 0.0 | 0.00 | 0.00 | 0.00 | 71 | 1013.9 |
| 20260901095306 | 59 | 89 | 1.0 | 0.0 | 0.00 | 0.00 | 0.00 | 71 | 1013.9 |
| 20260901095135 | 59 | 89 | 1.0 | 0.0 | 0.00 | 0.00 | 0.00 | 72 | 1013.9 |
| 20260901095126 | 59 | 89 | 1.0 | 0.0 | 0.00 | 0.00 | 0.00 | 72 | 1013.9 |
| 20260901095115 | 60 | 89 | 1.0 | 0.0 | 0.00 | 0.00 | 0.00 | 72 | 1013.9 |
| 20260901095105 | 60 | 89 | 1.0 | 0.0 | 0.00 | 0.00 | 0.00 | 73 | 1013.9 |
| 20260901094830 | 59 | 89 | 1.0 | 0.0 | 0.00 | 0.00 | 0.00 | 72 | 1013.9 |
| 20260901094824 | 59 | 50 | 0.0 | 2.0 | 0.00 | 0.00 | 0.00 | 72 | 1014.8 |
| 20260901094820 | 59 | 89 | 1.0 | 1.0 | 0.00 | 0.00 | 0.00 | 72 | 1013.9 |
| 20260901094620 | 59 | 86 | 1.0 | 0.0 | 0.00 | 0.00 | 0.00 | 72 | 1013.9 |
| 20260901094557 | 60 | 89 | 0.0 | 0.0 | 0.00 | 0.00 | 0.00 | 72 | 1013.8 |
| 20260901094550 | 59 | 86 | 1.0 | 0.0 | 0.00 | 0.00 | 0.00 | 72 | 1013.9 |
| 20260901094520 | 60 | 86 | 1.0 | 0.0 | 0.00 | 0.00 | 0.00 | 72 | 1013.9 |
| 20260901094457 | 60 | 86 | 1.0 | 0.0 | 0.00 | 0.00 | 0.00 | 72 | 1013.9 |
| 20260901094447 | 59 | 86 | 1.0 | 0.0 | 0.00 | 0.00 | 0.00 | 72 | 1013.9 |
| 20260901094319 | 60 | 71 | 1.0 | 2.0 | 0.00 | 0.00 | 0.00 | 73 | 1014.8 |
| 20260901094306 | 60 | 86 | 1.0 | 0.0 | 0.00 | 0.00 | 0.00 | 73 | 1013.9 |
| 20260901094237 | 59 | 86 | 1.0 | 0.0 | 0.00 | 0.00 | 0.00 | 73 | 1013.9 |
| 20260901094207 | 59 | 86 | 1.0 | 0.0 | 0.00 | 0.00 | 0.00 | 72 | 1013.9 |
| 20260901094121 | 59 | 86 | 1.0 | 0.0 | 0.00 | 0.00 | 0.00 | 72 | 1013.9 |
| 20260901094110 | 59 | 86 | 1.0 | 0.0 | 0.00 | 0.00 | 0.00 | 72 | 1013.9 |
| 20260901093911 | 59 | 86 | 1.0 | 0.0 | 0.00 | 0.00 | 0.00 | 72 | 1013.9 |
| 20260901093900 | 60 | 89 | 0.0 | 0.0 | 0.00 | 0.00 | 0.00 | 72 | 1013.8 |
| 20260901093850 | 59 | 86 | 1.0 | 0.0 | 0.00 | 0.00 | 0.00 | 72 | 1013.9 |
| 20260901093814 | 60 | 87 | 2.0 | 2.0 | 0.00 | 0.00 | 0.00 | 72 | 1014.8 |
| 20260901093807 | 59 | 86 | 1.0 | 0.0 | 0.00 | 0.00 | 0.00 | 72 | 1013.9 |
| 20260901093738 | 60 | 86 | 1.0 | 2.0 | 0.00 | 0.00 | 0.00 | 72 | 1013.9 |
| 20260901093706 | 60 | 89 | 0.0 | 0.0 | 0.00 | 0.00 | 0.00 | 72 | 1013.8 |
| 20260901093637 | 60 | 89 | 0.0 | 0.0 | 0.00 | 0.00 | 0.00 | 72 | 1013.8 |
| 20260901093357 | 60 | 89 | 0.0 | 0.0 | 0.00 | 0.00 | 0.00 | 71 | 1013.7 |
| 20260901093349 | 60 | 89 | 0.0 | 0.0 | 0.00 | 0.00 | 0.00 | 72 | 1013.8 |
| 20260901093313 | 60 | 87 | 2.0 | 2.0 | 0.00 | 0.00 | 0.00 | 72 | 1014.8 |
| 20260901093307 | 60 | 89 | 0.0 | 0.0 | 0.00 | 0.00 | 0.00 | 72 | 1013.8 |
| 20260901093236 | 60 | 89 | 0.0 | 0.0 | 0.00 | 0.00 | 0.00 | 72 | 1013.8 |
| 20260901093212 | 60 | 89 | 0.0 | 0.0 | 0.00 | 0.00 | 0.00 | 72 | 1013.7 |
| 20260901093206 | 60 | 89 | 0.0 | 0.0 | 0.00 | 0.00 | 0.00 | 72 | 1013.8 |
| 20260901093112 | 60 | 89 | 0.0 | 0.0 | 0.00 | 0.00 | 0.00 | 71 | 1013.7 |
| 20260901093108 | 60 | 89 | 0.0 | 0.0 | 0.00 | 0.00 | 0.00 | 72 | 1013.8 |
| 20260901093042 | 60 | 89 | 0.0 | 0.0 | 0.00 | 0.00 | 0.00 | 72 | 1013.8 |
| 20260901093034 | 60 | 89 | 0.0 | 0.0 | 0.00 | 0.00 | 0.00 | 72 | 1013.8 |
| 20260901092916 | 60 | 89 | 0.0 | 0.0 | 0.00 | 0.00 | 0.00 | 72 | 1013.8 |
| 20260901092902 | 60 | 89 | 0.0 | 0.0 | 0.00 | 0.00 | 0.00 | 72 | 1013.8 |
| 20260901092852 | 60 | 89 | 0.0 | 0.0 | 0.00 | 0.00 | 0.00 | 72 | 1013.8 |
| 20260901092840 | 60 | 89 | 0.0 | 0.0 | 0.00 | 0.00 | 0.00 | 72 | 1013.7 |
| 20260901092809 | 60 | 107 | 0.0 | 1.0 | 0.00 | 0.00 | 0.00 | 72 | 1014.8 |
| 20260901092537 | 60 | 89 | 0.0 | 0.0 | 0.00 | 0.00 | 0.00 | 71 | 1013.7 |
| 20260901092506 | 60 | 89 | 0.0 | 0.0 | 0.00 | 0.00 | 0.00 | 71 | 1013.7 |
| 20260901092425 | 60 | 89 | 0.0 | 0.0 | 0.00 | 0.00 | 0.00 | 71 | 1013.7 |
| 20260901092421 | 60 | 89 | 0.0 | 0.0 | 0.00 | 0.00 | 0.00 | 71 | 1013.7 |
| 20260901092305 | 60 | 93 | 0.0 | 2.0 | 0.00 | 0.00 | 0.00 | 71 | 1014.8 |
| 20260901092227 | 60 | 71 | 1.0 | 0.0 | 0.00 | 0.00 | 0.00 | 71 | 1013.8 |
| 20260901092207 | 60 | 89 | 0.0 | 0.0 | 0.00 | 0.00 | 0.00 | 71 | 1013.7 |
| 20260901092128 | 60 | 71 | 1.0 | 0.0 | 0.00 | 0.00 | 0.00 | 71 | 1013.8 |
| 20260901092120 | 60 | 71 | 1.0 | 0.0 | 0.00 | 0.00 | 0.00 | 71 | 1013.8 |
| 20260901092109 | 60 | 89 | 0.0 | 0.0 | 0.00 | 0.00 | 0.00 | 71 | 1013.7 |
| 20260901092054 | 60 | 71 | 1.0 | 0.0 | 0.00 | 0.00 | 0.00 | 70 | 1013.8 |
| 20260901092046 | 60 | 89 | 0.0 | 0.0 | 0.00 | 0.00 | 0.00 | 71 | 1013.7 |
| 20260901091911 | 60 | 89 | 0.0 | 0.0 | 0.00 | 0.00 | 0.00 | 71 | 1013.7 |
| 20260901091901 | 60 | 89 | 0.0 | 1.0 | 0.00 | 0.00 | 0.00 | 71 | 1013.7 |
| 20260901091801 | 60 | 89 | 0.0 | 2.0 | 0.00 | 0.00 | 0.00 | 71 | 1014.8 |
| 20260901091628 | 60 | 71 | 1.0 | 0.0 | 0.00 | 0.00 | 0.00 | 70 | 1013.8 |
| 20260901091621 | 60 | 71 | 1.0 | 0.0 | 0.00 | 0.00 | 0.00 | 71 | 1013.8 |
| 20260901091420 | 60 | 71 | 1.0 | 0.0 | 0.00 | 0.00 | 0.00 | 71 | 1013.8 |
| 20260901091405 | 60 | 71 | 1.0 | 0.0 | 0.00 | 0.00 | 0.00 | 71 | 1013.8 |
| 20260901091357 | 60 | 71 | 1.0 | 0.0 | 0.00 | 0.00 | 0.00 | 71 | 1013.8 |
| 20260901091255 | 60 | 79 | 0.0 | 2.0 | 0.00 | 0.00 | 0.00 | 71 | 1014.8 |
| 20260901091112 | 61 | 65 | 1.0 | 0.0 | 0.00 | 0.00 | 0.00 | 70 | 1014.0 |
| 20260901091106 | 60 | 71 | 1.0 | 0.0 | 0.00 | 0.00 | 0.00 | 71 | 1013.8 |
| 20260901091047 | 60 | 71 | 1.0 | 0.0 | 0.00 | 0.00 | 0.00 | 71 | 1013.8 |
| 20260901091006 | 60 | 71 | 1.0 | 0.0 | 0.00 | 0.00 | 0.00 | 70 | 1013.8 |
| 20260901090918 | 61 | 65 | 1.0 | 0.0 | 0.00 | 0.00 | 0.00 | 70 | 1014.0 |
| 20260901090907 | 60 | 71 | 1.0 | 0.0 | 0.00 | 0.00 | 0.00 | 70 | 1013.8 |
| 20260901090821 | 60 | 71 | 1.0 | 0.0 | 0.00 | 0.00 | 0.00 | 70 | 1013.8 |
| 20260901090758 | 60 | 71 | 1.0 | 2.0 | 0.00 | 0.00 | 0.00 | 70 | 1013.8 |
| 20260901090749 | 60 | 71 | 1.0 | 2.0 | 0.00 | 0.00 | 0.00 | 70 | 1014.8 |
| 20260901090747 | 61 | 65 | 1.0 | 0.0 | 0.00 | 0.00 | 0.00 | 70 | 1014.0 |
| 20260901090608 | 61 | 65 | 1.0 | 0.0 | 0.00 | 0.00 | 0.00 | 70 | 1014.0 |
| 20260901090547 | 61 | 65 | 1.0 | 0.0 | 0.00 | 0.00 | 0.00 | 70 | 1014.0 |
| 20260901090406 | 61 | 65 | 1.0 | 0.0 | 0.00 | 0.00 | 0.00 | 70 | 1014.0 |
| 20260901090355 | 61 | 65 | 1.0 | 0.0 | 0.00 | 0.00 | 0.00 | 71 | 1014.0 |
| 20260901090349 | 61 | 65 | 1.0 | 0.0 | 0.00 | 0.00 | 0.00 | 70 | 1014.0 |
| 20260901090307 | 61 | 65 | 1.0 | 0.0 | 0.00 | 0.00 | 0.00 | 70 | 1014.0 |
| 20260901090244 | 61 | 69 | 1.0 | 2.0 | 0.00 | 0.00 | 0.00 | 70 | 1014.7 |
| 20260901090236 | 61 | 65 | 1.0 | 0.0 | 0.00 | 0.00 | 0.00 | 70 | 1014.0 |
| 20260901090206 | 61 | 65 | 1.0 | 0.0 | 0.00 | 0.00 | 0.00 | 70 | 1014.0 |
| 20260901090120 | 61 | 65 | 1.0 | 0.0 | 0.00 | 0.00 | 0.00 | 70 | 1014.0 |
| 20260901090038 | 61 | 30 | 1.0 | 0.0 | 0.00 | 0.00 | 0.00 | 71 | 1013.9 |
| 20260901090027 | 61 | 65 | 1.0 | 0.0 | 0.00 | 0.00 | 0.00 | 70 | 1014.0 |
| 20260901090018 | 61 | 65 | 1.0 | 0.0 | 0.00 | 0.00 | 0.00 | 70 | 1014.0 |
| 20260901085836 | 61 | 65 | 1.0 | 0.0 | 0.00 | 0.00 | 0.00 | 71 | 1014.0 |
| 20260901085806 | 61 | 65 | 1.0 | 0.0 | 0.00 | 0.00 | 0.00 | 71 | 1014.0 |
| 20260901085740 | 61 | 58 | 1.0 | 2.0 | 0.00 | 0.00 | 0.00 | 71 | 1014.7 |
| 20260901085738 | 61 | 65 | 1.0 | 2.0 | 0.00 | 0.00 | 0.00 | 71 | 1014.0 |
| 20260901085706 | 61 | 30 | 1.0 | 0.0 | 0.00 | 0.00 | 0.00 | 71 | 1013.9 |
| 20260901085625 | 61 | 30 | 1.0 | 0.0 | 0.00 | 0.00 | 0.00 | 70 | 1013.9 |
| 20260901085621 | 61 | 30 | 1.0 | 0.0 | 0.00 | 0.00 | 0.00 | 71 | 1013.9 |
| 20260901085413 | 61 | 30 | 1.0 | 0.0 | 0.00 | 0.00 | 0.00 | 70 | 1013.9 |
| 20260901085407 | 61 | 30 | 1.0 | 0.0 | 0.00 | 0.00 | 0.00 | 71 | 1013.9 |
| 20260901085307 | 61 | 30 | 1.0 | 0.0 | 0.00 | 0.00 | 0.00 | 70 | 1013.9 |
| 20260901085242 | 61 | 30 | 1.0 | 0.0 | 0.00 | 0.00 | 0.00 | 70 | 1013.9 |
| 20260901085236 | 61 | 48 | 0.0 | 2.0 | 0.00 | 0.00 | 0.00 | 70 | 1014.7 |
| 20260901085221 | 61 | 30 | 1.0 | 0.0 | 0.00 | 0.00 | 0.00 | 70 | 1013.9 |
| 20260901085036 | 61 | 30 | 1.0 | 0.0 | 0.00 | 0.00 | 0.00 | 70 | 1013.9 |
| 20260901084739 | 61 | 30 | 1.0 | 2.0 | 0.00 | 0.00 | 0.00 | 70 | 1013.9 |
| 20260901084732 | 61 | 59 | 0.0 | 2.0 | 0.00 | 0.00 | 0.00 | 70 | 1014.8 |
| 20260901084710 | 61 | 73 | 1.0 | 0.0 | 0.00 | 0.00 | 0.00 | 70 | 1014.0 |
| 20260901084700 | 61 | 73 | 1.0 | 0.0 | 0.00 | 0.00 | 0.00 | 70 | 1014.0 |
| 20260901084608 | 61 | 73 | 1.0 | 0.0 | 0.00 | 0.00 | 0.00 | 70 | 1014.0 |
| 20260901084538 | 61 | 73 | 1.0 | 0.0 | 0.00 | 0.00 | 0.00 | 70 | 1014.0 |
| 20260901084507 | 61 | 73 | 1.0 | 0.0 | 0.00 | 0.00 | 0.00 | 70 | 1014.0 |
| 20260901084436 | 61 | 73 | 1.0 | 0.0 | 0.00 | 0.00 | 0.00 | 70 | 1014.0 |
| 20260901084406 | 61 | 73 | 1.0 | 0.0 | 0.00 | 0.00 | 0.00 | 71 | 1014.0 |
| 20260901084325 | 61 | 73 | 1.0 | 0.0 | 0.00 | 0.00 | 0.00 | 71 | 1014.0 |
| 20260901084316 | 61 | 73 | 1.0 | 0.0 | 0.00 | 0.00 | 0.00 | 71 | 1014.0 |
| 20260901084228 | 61 | 44 | 0.0 | 1.0 | 0.00 | 0.00 | 0.00 | 70 | 1014.9 |
| 20260901084109 | 61 | 73 | 1.0 | 0.0 | 0.00 | 0.00 | 0.00 | 70 | 1014.0 |
| 20260901084018 | 61 | 58 | 1.0 | 0.0 | 0.00 | 0.00 | 0.00 | 70 | 1014.1 |
| 20260901084007 | 61 | 73 | 1.0 | 0.0 | 0.00 | 0.00 | 0.00 | 70 | 1014.0 |
| 20260901083907 | 61 | 73 | 1.0 | 0.0 | 0.00 | 0.00 | 0.00 | 70 | 1014.0 |
| 20260901083845 | 61 | 58 | 1.0 | 0.0 | 0.00 | 0.00 | 0.00 | 70 | 1014.1 |
| 20260901083806 | 61 | 73 | 1.0 | 0.0 | 0.00 | 0.00 | 0.00 | 70 | 1014.0 |
| 20260901083737 | 61 | 73 | 1.0 | 2.0 | 0.00 | 0.00 | 0.00 | 70 | 1014.0 |
| 20260901083722 | 61 | 59 | 2.0 | 2.0 | 0.00 | 0.00 | 0.00 | 70 | 1014.8 |
| 20260901083712 | 61 | 58 | 1.0 | 0.0 | 0.00 | 0.00 | 0.00 | 70 | 1014.1 |
| 20260901083706 | 61 | 58 | 1.0 | 0.0 | 0.00 | 0.00 | 0.00 | 70 | 1014.1 |
| 20260901083648 | 61 | 58 | 1.0 | 0.0 | 0.00 | 0.00 | 0.00 | 70 | 1014.1 |
| 20260901083348 | 61 | 58 | 1.0 | 0.0 | 0.00 | 0.00 | 0.00 | 70 | 1014.1 |
| 20260901083222 | 61 | 37 | 2.0 | 2.0 | 0.00 | 0.00 | 0.00 | 69 | 1014.9 |
| 20260901083206 | 61 | 58 | 1.0 | 0.0 | 0.00 | 0.00 | 0.00 | 70 | 1014.1 |
| 20260901083137 | 61 | 58 | 1.0 | 0.0 | 0.00 | 0.00 | 0.00 | 69 | 1014.1 |
| 20260901083106 | 61 | 58 | 1.0 | 0.0 | 0.00 | 0.00 | 0.00 | 69 | 1014.1 |
| 20260901083038 | 61 | 58 | 1.0 | 0.0 | 0.00 | 0.00 | 0.00 | 69 | 1014.1 |
| 20260901083006 | 61 | 58 | 1.0 | 0.0 | 0.00 | 0.00 | 0.00 | 69 | 1014.1 |
| 20260901082907 | 61 | 58 | 1.0 | 0.0 | 0.00 | 0.00 | 0.00 | 69 | 1014.1 |
| 20260901082837 | 61 | 58 | 1.0 | 0.0 | 0.00 | 0.00 | 0.00 | 69 | 1014.1 |
| 20260901082807 | 61 | 58 | 1.0 | 0.0 | 0.00 | 0.00 | 0.00 | 69 | 1014.1 |
| 20260901082739 | 61 | 58 | 1.0 | 1.0 | 0.00 | 0.00 | 0.00 | 69 | 1014.1 |
| 20260901082720 | 61 | 74 | 1.0 | 2.0 | 0.00 | 0.00 | 0.00 | 69 | 1014.8 |
| 20260901082706 | 61 | 28 | 2.0 | 0.0 | 0.00 | 0.00 | 0.00 | 69 | 1014.1 |
| 20260901082645 | 61 | 28 | 2.0 | 0.0 | 0.00 | 0.00 | 0.00 | 68 | 1014.1 |
| 20260901082637 | 61 | 28 | 2.0 | 0.0 | 0.00 | 0.00 | 0.00 | 69 | 1014.1 |
| 20260901082606 | 61 | 28 | 2.0 | 0.0 | 0.00 | 0.00 | 0.00 | 69 | 1014.1 |
| 20260901082538 | 61 | 28 | 2.0 | 0.0 | 0.00 | 0.00 | 0.00 | 69 | 1014.1 |
| 20260901082508 | 61 | 28 | 2.0 | 0.0 | 0.00 | 0.00 | 0.00 | 69 | 1014.1 |
| 20260901082437 | 61 | 28 | 2.0 | 0.0 | 0.00 | 0.00 | 0.00 | 69 | 1014.1 |
| 20260901082406 | 61 | 28 | 2.0 | 0.0 | 0.00 | 0.00 | 0.00 | 68 | 1014.1 |
| 20260901082343 | 61 | 62 | 1.0 | 0.0 | 0.00 | 0.00 | 0.00 | 66 | 1014.1 |
| 20260901082320 | 61 | 28 | 2.0 | 0.0 | 0.00 | 0.00 | 0.00 | 68 | 1014.1 |
| 20260901082216 | 61 | 43 | 0.0 | 2.0 | 0.00 | 0.00 | 0.00 | 68 | 1014.9 |
| 20260901082108 | 61 | 28 | 2.0 | 0.0 | 0.00 | 0.00 | 0.00 | 68 | 1014.1 |
| 20260901082037 | 61 | 28 | 2.0 | 0.0 | 0.00 | 0.00 | 0.00 | 68 | 1014.1 |
| 20260901082006 | 61 | 28 | 2.0 | 0.0 | 0.00 | 0.00 | 0.00 | 68 | 1014.1 |
| 20260901081943 | 61 | 28 | 2.0 | 0.0 | 0.00 | 0.00 | 0.00 | 68 | 1014.1 |
| 20260901081934 | 61 | 28 | 2.0 | 0.0 | 0.00 | 0.00 | 0.00 | 68 | 1014.1 |
| 20260901081806 | 61 | 28 | 2.0 | 0.0 | 0.00 | 0.00 | 0.00 | 67 | 1014.1 |
| 20260901081739 | 61 | 28 | 2.0 | 2.0 | 0.00 | 0.00 | 0.00 | 67 | 1014.1 |
| 20260901081712 | 61 | 43 | 1.0 | 2.0 | 0.00 | 0.00 | 0.00 | 67 | 1014.9 |
| 20260901081706 | 61 | 62 | 1.0 | 0.0 | 0.00 | 0.00 | 0.00 | 67 | 1014.1 |
| 20260901081619 | 61 | 62 | 1.0 | 0.0 | 0.00 | 0.00 | 0.00 | 67 | 1014.1 |
| 20260901081518 | 61 | 62 | 1.0 | 0.0 | 0.00 | 0.00 | 0.00 | 67 | 1014.1 |
| 20260901081510 | 61 | 62 | 1.0 | 0.0 | 0.00 | 0.00 | 0.00 | 67 | 1014.1 |
| 20260901081459 | 61 | 62 | 1.0 | 0.0 | 0.00 | 0.00 | 0.00 | 66 | 1014.1 |
| 20260901081315 | 61 | 62 | 1.0 | 0.0 | 0.00 | 0.00 | 0.00 | 65 | 1014.1 |
| 20260901081306 | 61 | 62 | 1.0 | 0.0 | 0.00 | 0.00 | 0.00 | 66 | 1014.1 |
| 20260901081236 | 61 | 62 | 1.0 | 0.0 | 0.00 | 0.00 | 0.00 | 66 | 1014.1 |
| 20260901081211 | 61 | 68 | 1.0 | 2.0 | 0.00 | 0.00 | 0.00 | 66 | 1014.9 |
| 20260901081206 | 61 | 62 | 1.0 | 0.0 | 0.00 | 0.00 | 0.00 | 66 | 1014.1 |
| 20260901081111 | 61 | 36 | 2.0 | 0.0 | 0.00 | 0.00 | 0.00 | 64 | 1014.2 |
| 20260901081107 | 61 | 62 | 1.0 | 0.0 | 0.00 | 0.00 | 0.00 | 66 | 1014.1 |
| 20260901081038 | 61 | 62 | 1.0 | 0.0 | 0.00 | 0.00 | 0.00 | 66 | 1014.1 |
| 20260901081020 | 61 | 62 | 1.0 | 0.0 | 0.00 | 0.00 | 0.00 | 65 | 1014.1 |
| 20260901080954 | 61 | 36 | 2.0 | 0.0 | 0.00 | 0.00 | 0.00 | 63 | 1014.2 |
| 20260901080947 | 61 | 62 | 1.0 | 0.0 | 0.00 | 0.00 | 0.00 | 65 | 1014.1 |
| 20260901080808 | 61 | 62 | 1.0 | 0.0 | 0.00 | 0.00 | 0.00 | 65 | 1014.1 |
| 20260901080758 | 61 | 62 | 1.0 | 2.0 | 0.00 | 0.00 | 0.00 | 65 | 1014.1 |
| 20260901080747 | 61 | 36 | 2.0 | 0.0 | 0.00 | 0.00 | 0.00 | 64 | 1014.2 |
| 20260901080707 | 61 | 51 | 0.0 | 1.0 | 0.00 | 0.00 | 0.00 | 64 | 1015.0 |
| 20260901080606 | 61 | 36 | 2.0 | 0.0 | 0.00 | 0.00 | 0.00 | 64 | 1014.2 |
| 20260901080546 | 61 | 36 | 2.0 | 0.0 | 0.00 | 0.00 | 0.00 | 64 | 1014.2 |
| 20260901080407 | 61 | 36 | 2.0 | 0.0 | 0.00 | 0.00 | 0.00 | 63 | 1014.2 |
| 20260901080337 | 61 | 36 | 2.0 | 0.0 | 0.00 | 0.00 | 0.00 | 63 | 1014.2 |
| 20260901080307 | 61 | 36 | 2.0 | 0.0 | 0.00 | 0.00 | 0.00 | 63 | 1014.2 |
| 20260901080208 | 61 | 36 | 2.0 | 0.0 | 0.00 | 0.00 | 0.00 | 63 | 1014.2 |
| 20260901080205 | 61 | 51 | 1.0 | 2.0 | 0.00 | 0.00 | 0.00 | 63 | 1015.1 |
| 20260901080114 | 61 | 36 | 2.0 | 0.0 | 0.00 | 0.00 | 0.00 | 63 | 1014.2 |
| 20260901080006 | 61 | 36 | 2.0 | 0.0 | 0.00 | 0.00 | 0.00 | 63 | 1014.2 |
| 20260901075937 | 61 | 36 | 2.0 | 0.0 | 0.00 | 0.00 | 0.00 | 62 | 1014.2 |
| 20260901075906 | 61 | 36 | 2.0 | 0.0 | 0.00 | 0.00 | 0.00 | 62 | 1014.2 |
| 20260901075845 | 62 | 48 | 2.0 | 0.0 | 0.00 | 0.00 | 0.00 | 62 | 1014.1 |
| 20260901075808 | 62 | 36 | 2.0 | 0.0 | 0.00 | 0.00 | 0.00 | 62 | 1014.2 |
| 20260901075738 | 62 | 36 | 2.0 | 2.0 | 0.00 | 0.00 | 0.00 | 62 | 1014.2 |
| 20260901075706 | 62 | 48 | 2.0 | 0.0 | 0.00 | 0.00 | 0.00 | 62 | 1014.1 |
| 20260901075700 | 62 | 59 | 2.0 | 3.0 | 0.00 | 0.00 | 0.00 | 62 | 1015.1 |
| 20260901075620 | 62 | 48 | 2.0 | 0.0 | 0.00 | 0.00 | 0.00 | 62 | 1014.1 |
| 20260901075537 | 62 | 48 | 2.0 | 0.0 | 0.00 | 0.00 | 0.00 | 61 | 1014.1 |
| 20260901075527 | 62 | 48 | 2.0 | 0.0 | 0.00 | 0.00 | 0.00 | 62 | 1014.1 |
| 20260901075523 | 62 | 48 | 2.0 | 0.0 | 0.00 | 0.00 | 0.00 | 62 | 1014.1 |
| 20260901075307 | 62 | 48 | 2.0 | 0.0 | 0.00 | 0.00 | 0.00 | 62 | 1014.1 |
| 20260901075206 | 62 | 48 | 2.0 | 0.0 | 0.00 | 0.00 | 0.00 | 62 | 1014.1 |
| 20260901075200 | 62 | 32 | 0.0 | 2.0 | 0.00 | 0.00 | 0.00 | 62 | 1014.9 |
| 20260901075150 | 62 | 70 | 0.0 | 0.0 | 0.00 | 0.00 | 0.00 | 62 | 1013.9 |
| 20260901075137 | 62 | 48 | 2.0 | 0.0 | 0.00 | 0.00 | 0.00 | 62 | 1014.1 |
| 20260901075106 | 62 | 48 | 2.0 | 0.0 | 0.00 | 0.00 | 0.00 | 62 | 1014.1 |
| 20260901075054 | 62 | 70 | 0.0 | 0.0 | 0.00 | 0.00 | 0.00 | 62 | 1013.9 |
| 20260901075047 | 62 | 48 | 2.0 | 0.0 | 0.00 | 0.00 | 0.00 | 62 | 1014.1 |
| 20260901074907 | 62 | 48 | 2.0 | 0.0 | 0.00 | 0.00 | 0.00 | 62 | 1014.1 |
| 20260901074841 | 62 | 70 | 0.0 | 0.0 | 0.00 | 0.00 | 0.00 | 62 | 1013.9 |
| 20260901074831 | 62 | 48 | 2.0 | 0.0 | 0.00 | 0.00 | 0.00 | 63 | 1014.1 |
| 20260901074820 | 62 | 48 | 2.0 | 2.0 | 0.00 | 0.00 | 0.00 | 63 | 1014.1 |
| 20260901074700 | 62 | 77 | 1.0 | 2.0 | 0.00 | 0.00 | 0.00 | 62 | 1015.1 |
| 20260901074616 | 62 | 70 | 0.0 | 0.0 | 0.00 | 0.00 | 0.00 | 62 | 1013.9 |
| 20260901074611 | 62 | 70 | 0.0 | 0.0 | 0.00 | 0.00 | 0.00 | 62 | 1013.9 |
| 20260901074559 | 62 | 70 | 0.0 | 0.0 | 0.00 | 0.00 | 0.00 | 62 | 1013.9 |
| 20260901074306 | 62 | 70 | 0.0 | 0.0 | 0.00 | 0.00 | 0.00 | 62 | 1013.9 |
| 20260901074237 | 62 | 70 | 0.0 | 0.0 | 0.00 | 0.00 | 0.00 | 62 | 1013.9 |
| 20260901074216 | 62 | 70 | 0.0 | 1.0 | 0.00 | 0.00 | 0.00 | 62 | 1013.9 |
| 20260901074207 | 62 | 70 | 0.0 | 0.0 | 0.00 | 0.00 | 0.00 | 63 | 1013.9 |
| 20260901074155 | 62 | 32 | 0.0 | 2.0 | 0.00 | 0.00 | 0.00 | 63 | 1015.0 |
| 20260901074149 | 62 | 70 | 0.0 | 0.0 | 0.00 | 0.00 | 0.00 | 63 | 1013.9 |
| 20260901074006 | 62 | 70 | 0.0 | 0.0 | 0.00 | 0.00 | 0.00 | 62 | 1013.9 |
| 20260901073924 | 62 | 42 | 0.0 | 0.0 | 0.00 | 0.00 | 0.00 | 62 | 1014.0 |
| 20260901073920 | 62 | 70 | 0.0 | 0.0 | 0.00 | 0.00 | 0.00 | 62 | 1013.9 |
| 20260901073847 | 62 | 70 | 0.0 | 0.0 | 0.00 | 0.00 | 0.00 | 62 | 1013.9 |
| 20260901073706 | 62 | 42 | 0.0 | 0.0 | 0.00 | 0.00 | 0.00 | 62 | 1014.0 |
| 20260901073651 | 62 | 76 | 0.0 | 1.0 | 0.00 | 0.00 | 0.00 | 62 | 1015.0 |